<?xml version="1.0" encoding="UTF-8" standalone="no" ?>
<gpx xmlns="http://www.topografix.com/GPX/1/1" xmlns:xsi="http://www.w3.org/2001/XMLSchema-instance" xsi:schemaLocation="http://www.topografix.com/GPX/1/1 http://www.topografix.com/GPX/1/1/gpx.xsd" version="1.1" creator="VisuGPX - https://www.visugpx.com">
  <metadata>
    <name>Sappey intégrale</name>
  </metadata>
  <trk>
    <name><![CDATA[OpenLayers.Feature.Vector_657308]]></name>
    <trkseg>
      <trkpt lat="45.25989" lon="5.7773">
        <ele>1007</ele>
      </trkpt>
      <trkpt lat="45.26112" lon="5.77735">
        <ele>1017.5</ele>
      </trkpt>
      <trkpt lat="45.2614" lon="5.77685">
        <ele>1019</ele>
      </trkpt>
      <trkpt lat="45.26197" lon="5.7761">
        <ele>1022.6</ele>
      </trkpt>
      <trkpt lat="45.26248" lon="5.77522">
        <ele>1023.4</ele>
      </trkpt>
      <trkpt lat="45.26248" lon="5.77484">
        <ele>1022.7</ele>
      </trkpt>
      <trkpt lat="45.26229" lon="5.77383">
        <ele>1020.9</ele>
      </trkpt>
      <trkpt lat="45.26188" lon="5.77282">
        <ele>1016.2</ele>
      </trkpt>
      <trkpt lat="45.26192" lon="5.77233">
        <ele>1015</ele>
      </trkpt>
      <trkpt lat="45.26294" lon="5.77265">
        <ele>1028.9</ele>
      </trkpt>
      <trkpt lat="45.26371" lon="5.7729">
        <ele>1043.9</ele>
      </trkpt>
      <trkpt lat="45.26463" lon="5.77256">
        <ele>1056.1</ele>
      </trkpt>
      <trkpt lat="45.26501" lon="5.77245">
        <ele>1063.3</ele>
      </trkpt>
      <trkpt lat="45.26579" lon="5.77239">
        <ele>1074.9</ele>
      </trkpt>
      <trkpt lat="45.26649" lon="5.77215">
        <ele>1084.6</ele>
      </trkpt>
      <trkpt lat="45.26704" lon="5.77205">
        <ele>1095</ele>
      </trkpt>
      <trkpt lat="45.26809" lon="5.77175">
        <ele>1112.2</ele>
      </trkpt>
      <trkpt lat="45.26919" lon="5.77102">
        <ele>1123.2</ele>
      </trkpt>
      <trkpt lat="45.27029" lon="5.77037">
        <ele>1130.3</ele>
      </trkpt>
      <trkpt lat="45.27124" lon="5.76999">
        <ele>1149.7</ele>
      </trkpt>
      <trkpt lat="45.27138" lon="5.76898">
        <ele>1149.7</ele>
      </trkpt>
      <trkpt lat="45.27185" lon="5.76728">
        <ele>1158.6</ele>
      </trkpt>
      <trkpt lat="45.27207" lon="5.7669">
        <ele>1162.2</ele>
      </trkpt>
      <trkpt lat="45.27254" lon="5.76655">
        <ele>1174.7</ele>
      </trkpt>
      <trkpt lat="45.2726" lon="5.76621">
        <ele>1171.5</ele>
      </trkpt>
      <trkpt lat="45.27262" lon="5.76574">
        <ele>1166.6</ele>
      </trkpt>
      <trkpt lat="45.27262" lon="5.76572">
        <ele>1166.5</ele>
        <time>2020-09-06T13:47:36.000Z</time>
      </trkpt>
      <trkpt lat="45.27264" lon="5.76565">
        <ele>1166.7</ele>
        <time>2020-09-06T13:47:39.000Z</time>
      </trkpt>
      <trkpt lat="45.27265" lon="5.76559">
        <ele>1166.7</ele>
        <time>2020-09-06T13:47:41.000Z</time>
      </trkpt>
      <trkpt lat="45.27264" lon="5.76546">
        <ele>1166.4</ele>
        <time>2020-09-06T13:47:44.000Z</time>
      </trkpt>
      <trkpt lat="45.27262" lon="5.76541">
        <ele>1166.3</ele>
        <time>2020-09-06T13:47:48.000Z</time>
      </trkpt>
      <trkpt lat="45.27262" lon="5.76531">
        <ele>1166.3</ele>
        <time>2020-09-06T13:47:55.000Z</time>
      </trkpt>
      <trkpt lat="45.27262" lon="5.76523">
        <ele>1166.3</ele>
        <time>2020-09-06T13:48:00.000Z</time>
      </trkpt>
      <trkpt lat="45.27261" lon="5.76522">
        <ele>1166.3</ele>
        <time>2020-09-06T13:48:01.000Z</time>
      </trkpt>
      <trkpt lat="45.27255" lon="5.76514">
        <ele>1166.5</ele>
        <time>2020-09-06T13:48:06.000Z</time>
      </trkpt>
      <trkpt lat="45.27245" lon="5.76504">
        <ele>1166.6</ele>
        <time>2020-09-06T13:48:11.000Z</time>
      </trkpt>
      <trkpt lat="45.27236" lon="5.76491">
        <ele>1165.6</ele>
        <time>2020-09-06T13:48:16.000Z</time>
      </trkpt>
      <trkpt lat="45.27229" lon="5.76484">
        <ele>1165.1</ele>
        <time>2020-09-06T13:48:21.000Z</time>
      </trkpt>
      <trkpt lat="45.27218" lon="5.76472">
        <ele>1164.6</ele>
        <time>2020-09-06T13:48:29.000Z</time>
      </trkpt>
      <trkpt lat="45.27209" lon="5.76465">
        <ele>1164.8</ele>
        <time>2020-09-06T13:48:36.000Z</time>
      </trkpt>
      <trkpt lat="45.27205" lon="5.7646">
        <ele>1164.9</ele>
        <time>2020-09-06T13:48:40.000Z</time>
      </trkpt>
      <trkpt lat="45.27201" lon="5.76451">
        <ele>1165.3</ele>
        <time>2020-09-06T13:48:44.000Z</time>
      </trkpt>
      <trkpt lat="45.27197" lon="5.76444">
        <ele>1165.7</ele>
        <time>2020-09-06T13:48:48.000Z</time>
      </trkpt>
      <trkpt lat="45.27194" lon="5.76437">
        <ele>1166.1</ele>
        <time>2020-09-06T13:48:52.000Z</time>
      </trkpt>
      <trkpt lat="45.27187" lon="5.76423">
        <ele>1167.6</ele>
        <time>2020-09-06T13:49:00.000Z</time>
      </trkpt>
      <trkpt lat="45.27181" lon="5.76415">
        <ele>1168.6</ele>
        <time>2020-09-06T13:49:06.000Z</time>
      </trkpt>
      <trkpt lat="45.2718" lon="5.76413">
        <ele>1168.7</ele>
        <time>2020-09-06T13:49:08.000Z</time>
      </trkpt>
      <trkpt lat="45.27178" lon="5.7641">
        <ele>1168.9</ele>
        <time>2020-09-06T13:49:10.000Z</time>
      </trkpt>
      <trkpt lat="45.27175" lon="5.76406">
        <ele>1169.2</ele>
        <time>2020-09-06T13:49:12.000Z</time>
      </trkpt>
      <trkpt lat="45.2717" lon="5.76399">
        <ele>1169.7</ele>
        <time>2020-09-06T13:49:17.000Z</time>
      </trkpt>
      <trkpt lat="45.27169" lon="5.76398">
        <ele>1169.9</ele>
        <time>2020-09-06T13:49:18.000Z</time>
      </trkpt>
      <trkpt lat="45.27165" lon="5.76395">
        <ele>1170.4</ele>
        <time>2020-09-06T13:49:22.000Z</time>
      </trkpt>
      <trkpt lat="45.27161" lon="5.76392">
        <ele>1170.9</ele>
        <time>2020-09-06T13:49:26.000Z</time>
      </trkpt>
      <trkpt lat="45.27152" lon="5.76387">
        <ele>1172</ele>
        <time>2020-09-06T13:49:33.000Z</time>
      </trkpt>
      <trkpt lat="45.27151" lon="5.76386">
        <ele>1172.2</ele>
        <time>2020-09-06T13:49:34.000Z</time>
      </trkpt>
      <trkpt lat="45.27142" lon="5.76386">
        <ele>1173.4</ele>
        <time>2020-09-06T13:49:40.000Z</time>
      </trkpt>
      <trkpt lat="45.27136" lon="5.76384">
        <ele>1174.3</ele>
        <time>2020-09-06T13:49:44.000Z</time>
      </trkpt>
      <trkpt lat="45.27133" lon="5.76383">
        <ele>1174.8</ele>
        <time>2020-09-06T13:49:46.000Z</time>
      </trkpt>
      <trkpt lat="45.2713" lon="5.76382">
        <ele>1175.3</ele>
        <time>2020-09-06T13:49:49.000Z</time>
      </trkpt>
      <trkpt lat="45.27129" lon="5.76381">
        <ele>1175.5</ele>
        <time>2020-09-06T13:49:50.000Z</time>
      </trkpt>
      <trkpt lat="45.27128" lon="5.76381">
        <ele>1175.6</ele>
        <time>2020-09-06T13:49:51.000Z</time>
      </trkpt>
      <trkpt lat="45.27126" lon="5.7638">
        <ele>1175.9</ele>
        <time>2020-09-06T13:49:53.000Z</time>
      </trkpt>
      <trkpt lat="45.27124" lon="5.76379">
        <ele>1176.3</ele>
        <time>2020-09-06T13:49:56.000Z</time>
      </trkpt>
      <trkpt lat="45.2712" lon="5.76379">
        <ele>1177</ele>
        <time>2020-09-06T13:50:00.000Z</time>
      </trkpt>
      <trkpt lat="45.27118" lon="5.76379">
        <ele>1177.1</ele>
        <time>2020-09-06T13:50:01.000Z</time>
      </trkpt>
      <trkpt lat="45.27116" lon="5.7638">
        <ele>1177.5</ele>
        <time>2020-09-06T13:50:03.000Z</time>
      </trkpt>
      <trkpt lat="45.27115" lon="5.76379">
        <ele>1177.7</ele>
        <time>2020-09-06T13:50:04.000Z</time>
      </trkpt>
      <trkpt lat="45.27112" lon="5.76378">
        <ele>1178.1</ele>
        <time>2020-09-06T13:50:06.000Z</time>
      </trkpt>
      <trkpt lat="45.27108" lon="5.76377">
        <ele>1178.9</ele>
        <time>2020-09-06T13:50:10.000Z</time>
      </trkpt>
      <trkpt lat="45.27105" lon="5.76378">
        <ele>1179.3</ele>
        <time>2020-09-06T13:50:14.000Z</time>
      </trkpt>
      <trkpt lat="45.27102" lon="5.76378">
        <ele>1179.7</ele>
        <time>2020-09-06T13:50:17.000Z</time>
      </trkpt>
      <trkpt lat="45.27101" lon="5.76378">
        <ele>1179.9</ele>
        <time>2020-09-06T13:50:18.000Z</time>
      </trkpt>
      <trkpt lat="45.27097" lon="5.76377">
        <ele>1180.6</ele>
        <time>2020-09-06T13:50:22.000Z</time>
      </trkpt>
      <trkpt lat="45.27096" lon="5.76375">
        <ele>1181</ele>
        <time>2020-09-06T13:50:24.000Z</time>
      </trkpt>
      <trkpt lat="45.27095" lon="5.76375">
        <ele>1181.2</ele>
        <time>2020-09-06T13:50:25.000Z</time>
      </trkpt>
      <trkpt lat="45.27091" lon="5.76372">
        <ele>1181.9</ele>
        <time>2020-09-06T13:50:29.000Z</time>
      </trkpt>
      <trkpt lat="45.2709" lon="5.76372">
        <ele>1182.1</ele>
        <time>2020-09-06T13:50:30.000Z</time>
      </trkpt>
      <trkpt lat="45.27081" lon="5.7637">
        <ele>1183.6</ele>
        <time>2020-09-06T13:50:37.000Z</time>
      </trkpt>
      <trkpt lat="45.2708" lon="5.7637">
        <ele>1183.7</ele>
        <time>2020-09-06T13:50:38.000Z</time>
      </trkpt>
      <trkpt lat="45.27077" lon="5.7637">
        <ele>1183.9</ele>
        <time>2020-09-06T13:50:40.000Z</time>
      </trkpt>
      <trkpt lat="45.27073" lon="5.76367">
        <ele>1184.4</ele>
        <time>2020-09-06T13:50:44.000Z</time>
      </trkpt>
      <trkpt lat="45.27072" lon="5.76366">
        <ele>1184.6</ele>
        <time>2020-09-06T13:50:45.000Z</time>
      </trkpt>
      <trkpt lat="45.27071" lon="5.76365">
        <ele>1184.7</ele>
        <time>2020-09-06T13:50:46.000Z</time>
      </trkpt>
      <trkpt lat="45.27069" lon="5.76362">
        <ele>1185.2</ele>
        <time>2020-09-06T13:50:49.000Z</time>
      </trkpt>
      <trkpt lat="45.27067" lon="5.76361">
        <ele>1185.4</ele>
        <time>2020-09-06T13:50:50.000Z</time>
      </trkpt>
      <trkpt lat="45.27061" lon="5.76356">
        <ele>1186.3</ele>
        <time>2020-09-06T13:50:56.000Z</time>
      </trkpt>
      <trkpt lat="45.27053" lon="5.76351">
        <ele>1187.5</ele>
        <time>2020-09-06T13:51:02.000Z</time>
      </trkpt>
      <trkpt lat="45.27051" lon="5.76349">
        <ele>1187.8</ele>
        <time>2020-09-06T13:51:04.000Z</time>
      </trkpt>
      <trkpt lat="45.27045" lon="5.76343">
        <ele>1189</ele>
        <time>2020-09-06T13:51:10.000Z</time>
      </trkpt>
      <trkpt lat="45.27044" lon="5.76342">
        <ele>1189.2</ele>
        <time>2020-09-06T13:51:11.000Z</time>
      </trkpt>
      <trkpt lat="45.27037" lon="5.76337">
        <ele>1190.4</ele>
        <time>2020-09-06T13:51:17.000Z</time>
      </trkpt>
      <trkpt lat="45.27034" lon="5.76335">
        <ele>1190.9</ele>
        <time>2020-09-06T13:51:19.000Z</time>
      </trkpt>
      <trkpt lat="45.2703" lon="5.7633">
        <ele>1191.2</ele>
        <time>2020-09-06T13:51:23.000Z</time>
      </trkpt>
      <trkpt lat="45.27024" lon="5.76326">
        <ele>1191.3</ele>
        <time>2020-09-06T13:51:28.000Z</time>
      </trkpt>
      <trkpt lat="45.2702" lon="5.76322">
        <ele>1191.4</ele>
        <time>2020-09-06T13:51:32.000Z</time>
      </trkpt>
      <trkpt lat="45.27018" lon="5.76319">
        <ele>1191.4</ele>
        <time>2020-09-06T13:51:35.000Z</time>
      </trkpt>
      <trkpt lat="45.27015" lon="5.76317">
        <ele>1191.6</ele>
        <time>2020-09-06T13:51:37.000Z</time>
      </trkpt>
      <trkpt lat="45.27011" lon="5.76313">
        <ele>1191.7</ele>
        <time>2020-09-06T13:51:41.000Z</time>
      </trkpt>
      <trkpt lat="45.27009" lon="5.76311">
        <ele>1191.8</ele>
        <time>2020-09-06T13:51:42.000Z</time>
      </trkpt>
      <trkpt lat="45.27004" lon="5.76306">
        <ele>1192.2</ele>
        <time>2020-09-06T13:51:47.000Z</time>
      </trkpt>
      <trkpt lat="45.26999" lon="5.76302">
        <ele>1192.6</ele>
        <time>2020-09-06T13:51:51.000Z</time>
      </trkpt>
      <trkpt lat="45.26996" lon="5.763">
        <ele>1192.8</ele>
        <time>2020-09-06T13:51:55.000Z</time>
      </trkpt>
      <trkpt lat="45.26991" lon="5.76298">
        <ele>1193.1</ele>
        <time>2020-09-06T13:51:59.000Z</time>
      </trkpt>
      <trkpt lat="45.26986" lon="5.76296">
        <ele>1193.5</ele>
        <time>2020-09-06T13:52:03.000Z</time>
      </trkpt>
      <trkpt lat="45.26983" lon="5.76295">
        <ele>1193.7</ele>
        <time>2020-09-06T13:52:05.000Z</time>
      </trkpt>
      <trkpt lat="45.26974" lon="5.76291">
        <ele>1194.3</ele>
        <time>2020-09-06T13:52:10.000Z</time>
      </trkpt>
      <trkpt lat="45.26967" lon="5.76288">
        <ele>1194.8</ele>
        <time>2020-09-06T13:52:14.000Z</time>
      </trkpt>
      <trkpt lat="45.26964" lon="5.76286">
        <ele>1195</ele>
        <time>2020-09-06T13:52:16.000Z</time>
      </trkpt>
      <trkpt lat="45.26958" lon="5.76283">
        <ele>1195.4</ele>
        <time>2020-09-06T13:52:19.000Z</time>
      </trkpt>
      <trkpt lat="45.26954" lon="5.76281">
        <ele>1195.7</ele>
        <time>2020-09-06T13:52:22.000Z</time>
      </trkpt>
      <trkpt lat="45.26953" lon="5.7628">
        <ele>1195.8</ele>
        <time>2020-09-06T13:52:23.000Z</time>
      </trkpt>
      <trkpt lat="45.26947" lon="5.76279">
        <ele>1196.3</ele>
        <time>2020-09-06T13:52:27.000Z</time>
      </trkpt>
      <trkpt lat="45.26944" lon="5.76278">
        <ele>1196.5</ele>
        <time>2020-09-06T13:52:29.000Z</time>
      </trkpt>
      <trkpt lat="45.26932" lon="5.76281">
        <ele>1197.7</ele>
        <time>2020-09-06T13:52:36.000Z</time>
      </trkpt>
      <trkpt lat="45.26927" lon="5.76282">
        <ele>1198.2</ele>
        <time>2020-09-06T13:52:42.000Z</time>
      </trkpt>
      <trkpt lat="45.26929" lon="5.76279">
        <ele>1197.9</ele>
        <time>2020-09-06T13:52:50.000Z</time>
      </trkpt>
      <trkpt lat="45.26927" lon="5.76275">
        <ele>1198</ele>
        <time>2020-09-06T13:52:58.000Z</time>
      </trkpt>
      <trkpt lat="45.26929" lon="5.76278">
        <ele>1197.9</ele>
        <time>2020-09-06T13:53:06.000Z</time>
      </trkpt>
      <trkpt lat="45.26933" lon="5.76279">
        <ele>1197.5</ele>
        <time>2020-09-06T13:53:15.000Z</time>
      </trkpt>
      <trkpt lat="45.26927" lon="5.76281">
        <ele>1198.1</ele>
        <time>2020-09-06T13:53:21.000Z</time>
      </trkpt>
      <trkpt lat="45.26928" lon="5.76282">
        <ele>1198.1</ele>
        <time>2020-09-06T13:53:26.000Z</time>
      </trkpt>
      <trkpt lat="45.26928" lon="5.76283">
        <ele>1198.1</ele>
        <time>2020-09-06T13:53:28.000Z</time>
      </trkpt>
      <trkpt lat="45.26926" lon="5.76282">
        <ele>1198.3</ele>
        <time>2020-09-06T13:53:36.000Z</time>
      </trkpt>
      <trkpt lat="45.26918" lon="5.7628">
        <ele>1199</ele>
        <time>2020-09-06T13:53:41.000Z</time>
      </trkpt>
      <trkpt lat="45.26917" lon="5.76277">
        <ele>1199</ele>
        <time>2020-09-06T13:53:42.000Z</time>
      </trkpt>
      <trkpt lat="45.26913" lon="5.76268">
        <ele>1198.2</ele>
        <time>2020-09-06T13:53:44.000Z</time>
      </trkpt>
      <trkpt lat="45.26912" lon="5.76265">
        <ele>1197.8</ele>
        <time>2020-09-06T13:53:45.000Z</time>
      </trkpt>
      <trkpt lat="45.26907" lon="5.76262">
        <ele>1197</ele>
        <time>2020-09-06T13:53:48.000Z</time>
      </trkpt>
      <trkpt lat="45.26906" lon="5.76262">
        <ele>1196.8</ele>
        <time>2020-09-06T13:53:49.000Z</time>
      </trkpt>
      <trkpt lat="45.26904" lon="5.76265">
        <ele>1196.5</ele>
        <time>2020-09-06T13:53:51.000Z</time>
      </trkpt>
      <trkpt lat="45.26902" lon="5.76272">
        <ele>1196.5</ele>
        <time>2020-09-06T13:53:53.000Z</time>
      </trkpt>
      <trkpt lat="45.26899" lon="5.76275">
        <ele>1196.1</ele>
        <time>2020-09-06T13:53:54.000Z</time>
      </trkpt>
      <trkpt lat="45.26896" lon="5.76274">
        <ele>1195.7</ele>
        <time>2020-09-06T13:53:55.000Z</time>
      </trkpt>
      <trkpt lat="45.26896" lon="5.76272">
        <ele>1195.6</ele>
        <time>2020-09-06T13:53:56.000Z</time>
      </trkpt>
      <trkpt lat="45.26895" lon="5.76271">
        <ele>1195.3</ele>
        <time>2020-09-06T13:53:57.000Z</time>
      </trkpt>
      <trkpt lat="45.26893" lon="5.7627">
        <ele>1195.1</ele>
        <time>2020-09-06T13:53:58.000Z</time>
      </trkpt>
      <trkpt lat="45.26891" lon="5.7627">
        <ele>1194.7</ele>
        <time>2020-09-06T13:53:59.000Z</time>
      </trkpt>
      <trkpt lat="45.26889" lon="5.76269">
        <ele>1194.3</ele>
        <time>2020-09-06T13:54:00.000Z</time>
      </trkpt>
      <trkpt lat="45.26885" lon="5.76269">
        <ele>1193.7</ele>
        <time>2020-09-06T13:54:01.000Z</time>
      </trkpt>
      <trkpt lat="45.26881" lon="5.76268">
        <ele>1193</ele>
        <time>2020-09-06T13:54:02.000Z</time>
      </trkpt>
      <trkpt lat="45.26875" lon="5.76269">
        <ele>1192.2</ele>
        <time>2020-09-06T13:54:03.000Z</time>
      </trkpt>
      <trkpt lat="45.26868" lon="5.76268">
        <ele>1191.1</ele>
        <time>2020-09-06T13:54:04.000Z</time>
      </trkpt>
      <trkpt lat="45.26864" lon="5.76267">
        <ele>1190.4</ele>
        <time>2020-09-06T13:54:05.000Z</time>
      </trkpt>
      <trkpt lat="45.26859" lon="5.76265">
        <ele>1189.6</ele>
        <time>2020-09-06T13:54:06.000Z</time>
      </trkpt>
      <trkpt lat="45.26853" lon="5.76263">
        <ele>1188.6</ele>
        <time>2020-09-06T13:54:07.000Z</time>
      </trkpt>
      <trkpt lat="45.26847" lon="5.76261">
        <ele>1187.6</ele>
        <time>2020-09-06T13:54:08.000Z</time>
      </trkpt>
      <trkpt lat="45.26844" lon="5.76257">
        <ele>1186.9</ele>
        <time>2020-09-06T13:54:09.000Z</time>
      </trkpt>
      <trkpt lat="45.26837" lon="5.76251">
        <ele>1185.6</ele>
        <time>2020-09-06T13:54:11.000Z</time>
      </trkpt>
      <trkpt lat="45.26834" lon="5.76248">
        <ele>1184.7</ele>
        <time>2020-09-06T13:54:12.000Z</time>
      </trkpt>
      <trkpt lat="45.26831" lon="5.76244">
        <ele>1183.3</ele>
        <time>2020-09-06T13:54:13.000Z</time>
      </trkpt>
      <trkpt lat="45.26819" lon="5.76234">
        <ele>1178.8</ele>
        <time>2020-09-06T13:54:15.000Z</time>
      </trkpt>
      <trkpt lat="45.26808" lon="5.76223">
        <ele>1174.7</ele>
        <time>2020-09-06T13:54:17.000Z</time>
      </trkpt>
      <trkpt lat="45.26804" lon="5.76219">
        <ele>1173.3</ele>
        <time>2020-09-06T13:54:18.000Z</time>
      </trkpt>
      <trkpt lat="45.268" lon="5.76215">
        <ele>1171.7</ele>
        <time>2020-09-06T13:54:19.000Z</time>
      </trkpt>
      <trkpt lat="45.26797" lon="5.76214">
        <ele>1170.9</ele>
        <time>2020-09-06T13:54:20.000Z</time>
      </trkpt>
      <trkpt lat="45.26795" lon="5.76214">
        <ele>1170.3</ele>
        <time>2020-09-06T13:54:21.000Z</time>
      </trkpt>
      <trkpt lat="45.26794" lon="5.76215">
        <ele>1170.4</ele>
        <time>2020-09-06T13:54:22.000Z</time>
      </trkpt>
      <trkpt lat="45.26793" lon="5.76218">
        <ele>1170.5</ele>
        <time>2020-09-06T13:54:23.000Z</time>
      </trkpt>
      <trkpt lat="45.26792" lon="5.76219">
        <ele>1170.3</ele>
        <time>2020-09-06T13:54:24.000Z</time>
      </trkpt>
      <trkpt lat="45.26791" lon="5.76222">
        <ele>1170.6</ele>
        <time>2020-09-06T13:54:25.000Z</time>
      </trkpt>
      <trkpt lat="45.26789" lon="5.76224">
        <ele>1170.3</ele>
        <time>2020-09-06T13:54:26.000Z</time>
      </trkpt>
      <trkpt lat="45.26785" lon="5.76227">
        <ele>1169.6</ele>
        <time>2020-09-06T13:54:27.000Z</time>
      </trkpt>
      <trkpt lat="45.26778" lon="5.76233">
        <ele>1168.5</ele>
        <time>2020-09-06T13:54:29.000Z</time>
      </trkpt>
      <trkpt lat="45.26774" lon="5.76236">
        <ele>1167.9</ele>
        <time>2020-09-06T13:54:30.000Z</time>
      </trkpt>
      <trkpt lat="45.2677" lon="5.76239">
        <ele>1167.3</ele>
        <time>2020-09-06T13:54:31.000Z</time>
      </trkpt>
      <trkpt lat="45.26763" lon="5.76242">
        <ele>1165.7</ele>
        <time>2020-09-06T13:54:32.000Z</time>
      </trkpt>
      <trkpt lat="45.26755" lon="5.76244">
        <ele>1164</ele>
        <time>2020-09-06T13:54:33.000Z</time>
      </trkpt>
      <trkpt lat="45.26749" lon="5.76245">
        <ele>1162.4</ele>
        <time>2020-09-06T13:54:34.000Z</time>
      </trkpt>
      <trkpt lat="45.26743" lon="5.76243">
        <ele>1161</ele>
        <time>2020-09-06T13:54:35.000Z</time>
      </trkpt>
      <trkpt lat="45.26736" lon="5.76239">
        <ele>1159.4</ele>
        <time>2020-09-06T13:54:36.000Z</time>
      </trkpt>
      <trkpt lat="45.26732" lon="5.76234">
        <ele>1158.1</ele>
        <time>2020-09-06T13:54:37.000Z</time>
      </trkpt>
      <trkpt lat="45.26726" lon="5.76228">
        <ele>1156.5</ele>
        <time>2020-09-06T13:54:38.000Z</time>
      </trkpt>
      <trkpt lat="45.26722" lon="5.76224">
        <ele>1155.5</ele>
        <time>2020-09-06T13:54:39.000Z</time>
      </trkpt>
      <trkpt lat="45.26719" lon="5.76221">
        <ele>1154.6</ele>
        <time>2020-09-06T13:54:40.000Z</time>
      </trkpt>
      <trkpt lat="45.26716" lon="5.76219">
        <ele>1153.8</ele>
        <time>2020-09-06T13:54:41.000Z</time>
      </trkpt>
      <trkpt lat="45.26711" lon="5.76218">
        <ele>1152.7</ele>
        <time>2020-09-06T13:54:42.000Z</time>
      </trkpt>
      <trkpt lat="45.26706" lon="5.76215">
        <ele>1151.5</ele>
        <time>2020-09-06T13:54:43.000Z</time>
      </trkpt>
      <trkpt lat="45.26695" lon="5.76211">
        <ele>1149</ele>
        <time>2020-09-06T13:54:45.000Z</time>
      </trkpt>
      <trkpt lat="45.2669" lon="5.76205">
        <ele>1147.5</ele>
        <time>2020-09-06T13:54:47.000Z</time>
      </trkpt>
      <trkpt lat="45.26688" lon="5.76202">
        <ele>1146.9</ele>
        <time>2020-09-06T13:54:48.000Z</time>
      </trkpt>
      <trkpt lat="45.26687" lon="5.76199">
        <ele>1146.6</ele>
        <time>2020-09-06T13:54:49.000Z</time>
      </trkpt>
      <trkpt lat="45.26688" lon="5.76194">
        <ele>1146.3</ele>
        <time>2020-09-06T13:54:51.000Z</time>
      </trkpt>
      <trkpt lat="45.26689" lon="5.76191">
        <ele>1146.3</ele>
        <time>2020-09-06T13:54:53.000Z</time>
      </trkpt>
      <trkpt lat="45.26687" lon="5.76179">
        <ele>1145</ele>
        <time>2020-09-06T13:54:56.000Z</time>
      </trkpt>
      <trkpt lat="45.26683" lon="5.76162">
        <ele>1143.2</ele>
        <time>2020-09-06T13:54:58.000Z</time>
      </trkpt>
      <trkpt lat="45.26684" lon="5.76154">
        <ele>1142.7</ele>
        <time>2020-09-06T13:55:00.000Z</time>
      </trkpt>
      <trkpt lat="45.26681" lon="5.76137">
        <ele>1141.1</ele>
        <time>2020-09-06T13:55:05.000Z</time>
      </trkpt>
      <trkpt lat="45.2668" lon="5.7613">
        <ele>1140.5</ele>
        <time>2020-09-06T13:55:08.000Z</time>
      </trkpt>
      <trkpt lat="45.26677" lon="5.76123">
        <ele>1139.7</ele>
        <time>2020-09-06T13:55:10.000Z</time>
      </trkpt>
      <trkpt lat="45.26673" lon="5.76118">
        <ele>1138.7</ele>
        <time>2020-09-06T13:55:12.000Z</time>
      </trkpt>
      <trkpt lat="45.26667" lon="5.76115">
        <ele>1137.5</ele>
        <time>2020-09-06T13:55:14.000Z</time>
      </trkpt>
      <trkpt lat="45.26664" lon="5.76112">
        <ele>1137.5</ele>
        <time>2020-09-06T13:55:15.000Z</time>
      </trkpt>
      <trkpt lat="45.26661" lon="5.76109">
        <ele>1137.4</ele>
        <time>2020-09-06T13:55:16.000Z</time>
      </trkpt>
      <trkpt lat="45.26653" lon="5.76102">
        <ele>1137.5</ele>
        <time>2020-09-06T13:55:18.000Z</time>
      </trkpt>
      <trkpt lat="45.26648" lon="5.76094">
        <ele>1137.6</ele>
        <time>2020-09-06T13:55:20.000Z</time>
      </trkpt>
      <trkpt lat="45.26647" lon="5.76091">
        <ele>1137.6</ele>
        <time>2020-09-06T13:55:21.000Z</time>
      </trkpt>
      <trkpt lat="45.26646" lon="5.76083">
        <ele>1137.4</ele>
        <time>2020-09-06T13:55:24.000Z</time>
      </trkpt>
      <trkpt lat="45.26648" lon="5.76071">
        <ele>1136.3</ele>
        <time>2020-09-06T13:55:30.000Z</time>
      </trkpt>
      <trkpt lat="45.26645" lon="5.76069">
        <ele>1136.3</ele>
        <time>2020-09-06T13:55:34.000Z</time>
      </trkpt>
      <trkpt lat="45.26634" lon="5.76068">
        <ele>1137</ele>
        <time>2020-09-06T13:55:41.000Z</time>
      </trkpt>
      <trkpt lat="45.26625" lon="5.76073">
        <ele>1138.1</ele>
        <time>2020-09-06T13:55:49.000Z</time>
      </trkpt>
      <trkpt lat="45.26621" lon="5.76074">
        <ele>1138.5</ele>
        <time>2020-09-06T13:55:55.000Z</time>
      </trkpt>
      <trkpt lat="45.26622" lon="5.76062">
        <ele>1137.3</ele>
        <time>2020-09-06T13:56:03.000Z</time>
      </trkpt>
      <trkpt lat="45.26622" lon="5.76058">
        <ele>1136.9</ele>
        <time>2020-09-06T13:56:11.000Z</time>
      </trkpt>
      <trkpt lat="45.26623" lon="5.7605">
        <ele>1136.1</ele>
        <time>2020-09-06T13:56:16.000Z</time>
      </trkpt>
      <trkpt lat="45.26627" lon="5.76043">
        <ele>1135.2</ele>
        <time>2020-09-06T13:56:21.000Z</time>
      </trkpt>
      <trkpt lat="45.26628" lon="5.76041">
        <ele>1135</ele>
        <time>2020-09-06T13:56:22.000Z</time>
      </trkpt>
      <trkpt lat="45.26632" lon="5.76037">
        <ele>1134.4</ele>
        <time>2020-09-06T13:56:26.000Z</time>
      </trkpt>
      <trkpt lat="45.26633" lon="5.76036">
        <ele>1134.2</ele>
        <time>2020-09-06T13:56:27.000Z</time>
      </trkpt>
      <trkpt lat="45.26644" lon="5.76032">
        <ele>1133.2</ele>
        <time>2020-09-06T13:56:33.000Z</time>
      </trkpt>
      <trkpt lat="45.26647" lon="5.76032">
        <ele>1132.9</ele>
        <time>2020-09-06T13:56:35.000Z</time>
      </trkpt>
      <trkpt lat="45.26649" lon="5.76029">
        <ele>1132.6</ele>
        <time>2020-09-06T13:56:38.000Z</time>
      </trkpt>
      <trkpt lat="45.26653" lon="5.76024">
        <ele>1131.9</ele>
        <time>2020-09-06T13:56:44.000Z</time>
      </trkpt>
      <trkpt lat="45.26657" lon="5.76023">
        <ele>1131.6</ele>
        <time>2020-09-06T13:56:50.000Z</time>
      </trkpt>
      <trkpt lat="45.26657" lon="5.76021">
        <ele>1131.4</ele>
        <time>2020-09-06T13:56:55.000Z</time>
      </trkpt>
      <trkpt lat="45.2665" lon="5.76025">
        <ele>1132.1</ele>
        <time>2020-09-06T13:56:58.000Z</time>
      </trkpt>
      <trkpt lat="45.26649" lon="5.76025">
        <ele>1132.2</ele>
        <time>2020-09-06T13:56:59.000Z</time>
      </trkpt>
      <trkpt lat="45.26647" lon="5.76024">
        <ele>1132.2</ele>
        <time>2020-09-06T13:57:00.000Z</time>
      </trkpt>
      <trkpt lat="45.26646" lon="5.7602">
        <ele>1132</ele>
        <time>2020-09-06T13:57:02.000Z</time>
      </trkpt>
      <trkpt lat="45.26646" lon="5.76018">
        <ele>1131.8</ele>
        <time>2020-09-06T13:57:03.000Z</time>
      </trkpt>
      <trkpt lat="45.26647" lon="5.76011">
        <ele>1131.1</ele>
        <time>2020-09-06T13:57:05.000Z</time>
      </trkpt>
      <trkpt lat="45.26648" lon="5.76002">
        <ele>1130.4</ele>
        <time>2020-09-06T13:57:07.000Z</time>
      </trkpt>
      <trkpt lat="45.2665" lon="5.75984">
        <ele>1127.2</ele>
        <time>2020-09-06T13:57:10.000Z</time>
      </trkpt>
      <trkpt lat="45.2665" lon="5.75978">
        <ele>1126.3</ele>
        <time>2020-09-06T13:57:11.000Z</time>
      </trkpt>
      <trkpt lat="45.26653" lon="5.75971">
        <ele>1125</ele>
        <time>2020-09-06T13:57:13.000Z</time>
      </trkpt>
      <trkpt lat="45.26656" lon="5.75967">
        <ele>1124.3</ele>
        <time>2020-09-06T13:57:15.000Z</time>
      </trkpt>
      <trkpt lat="45.26655" lon="5.75966">
        <ele>1124.1</ele>
        <time>2020-09-06T13:57:16.000Z</time>
      </trkpt>
      <trkpt lat="45.26653" lon="5.75962">
        <ele>1123.5</ele>
        <time>2020-09-06T13:57:18.000Z</time>
      </trkpt>
      <trkpt lat="45.26653" lon="5.75959">
        <ele>1123</ele>
        <time>2020-09-06T13:57:19.000Z</time>
      </trkpt>
      <trkpt lat="45.26652" lon="5.75953">
        <ele>1122</ele>
        <time>2020-09-06T13:57:20.000Z</time>
      </trkpt>
      <trkpt lat="45.26648" lon="5.75934">
        <ele>1118.8</ele>
        <time>2020-09-06T13:57:22.000Z</time>
      </trkpt>
      <trkpt lat="45.26648" lon="5.75929">
        <ele>1117.9</ele>
        <time>2020-09-06T13:57:23.000Z</time>
      </trkpt>
      <trkpt lat="45.26648" lon="5.75926">
        <ele>1117.4</ele>
        <time>2020-09-06T13:57:24.000Z</time>
      </trkpt>
      <trkpt lat="45.26649" lon="5.75924">
        <ele>1117</ele>
        <time>2020-09-06T13:57:25.000Z</time>
      </trkpt>
      <trkpt lat="45.26652" lon="5.75922">
        <ele>1116.7</ele>
        <time>2020-09-06T13:57:27.000Z</time>
      </trkpt>
      <trkpt lat="45.26661" lon="5.75912">
        <ele>1115</ele>
        <time>2020-09-06T13:57:30.000Z</time>
      </trkpt>
      <trkpt lat="45.26659" lon="5.75898">
        <ele>1111.7</ele>
        <time>2020-09-06T13:57:33.000Z</time>
      </trkpt>
      <trkpt lat="45.26659" lon="5.75896">
        <ele>1111.3</ele>
        <time>2020-09-06T13:57:34.000Z</time>
      </trkpt>
      <trkpt lat="45.26663" lon="5.75898">
        <ele>1111.8</ele>
        <time>2020-09-06T13:57:35.000Z</time>
      </trkpt>
      <trkpt lat="45.26666" lon="5.75898">
        <ele>1112</ele>
        <time>2020-09-06T13:57:36.000Z</time>
      </trkpt>
      <trkpt lat="45.26667" lon="5.759">
        <ele>1112.4</ele>
        <time>2020-09-06T13:57:37.000Z</time>
      </trkpt>
      <trkpt lat="45.26669" lon="5.75901">
        <ele>1112.3</ele>
        <time>2020-09-06T13:57:38.000Z</time>
      </trkpt>
      <trkpt lat="45.26675" lon="5.759">
        <ele>1111.3</ele>
        <time>2020-09-06T13:57:39.000Z</time>
      </trkpt>
      <trkpt lat="45.26676" lon="5.75898">
        <ele>1110.6</ele>
        <time>2020-09-06T13:57:40.000Z</time>
      </trkpt>
      <trkpt lat="45.26678" lon="5.75895">
        <ele>1109.9</ele>
        <time>2020-09-06T13:57:41.000Z</time>
      </trkpt>
      <trkpt lat="45.2668" lon="5.75892">
        <ele>1108.9</ele>
        <time>2020-09-06T13:57:42.000Z</time>
      </trkpt>
      <trkpt lat="45.26683" lon="5.75882">
        <ele>1106.2</ele>
        <time>2020-09-06T13:57:44.000Z</time>
      </trkpt>
      <trkpt lat="45.26687" lon="5.75877">
        <ele>1104.6</ele>
        <time>2020-09-06T13:57:46.000Z</time>
      </trkpt>
      <trkpt lat="45.26691" lon="5.75867">
        <ele>1101.9</ele>
        <time>2020-09-06T13:57:48.000Z</time>
      </trkpt>
      <trkpt lat="45.2669" lon="5.75859">
        <ele>1100.2</ele>
        <time>2020-09-06T13:57:50.000Z</time>
      </trkpt>
      <trkpt lat="45.2669" lon="5.75856">
        <ele>1099.7</ele>
        <time>2020-09-06T13:57:51.000Z</time>
      </trkpt>
      <trkpt lat="45.26693" lon="5.75851">
        <ele>1098.1</ele>
        <time>2020-09-06T13:57:54.000Z</time>
      </trkpt>
      <trkpt lat="45.26694" lon="5.7585">
        <ele>1097.7</ele>
        <time>2020-09-06T13:57:55.000Z</time>
      </trkpt>
      <trkpt lat="45.26694" lon="5.75846">
        <ele>1096.8</ele>
        <time>2020-09-06T13:57:56.000Z</time>
      </trkpt>
      <trkpt lat="45.26695" lon="5.75842">
        <ele>1095.9</ele>
        <time>2020-09-06T13:57:57.000Z</time>
      </trkpt>
      <trkpt lat="45.26695" lon="5.75839">
        <ele>1095.2</ele>
        <time>2020-09-06T13:57:58.000Z</time>
      </trkpt>
      <trkpt lat="45.26697" lon="5.75835">
        <ele>1094</ele>
        <time>2020-09-06T13:57:59.000Z</time>
      </trkpt>
      <trkpt lat="45.26696" lon="5.75829">
        <ele>1092.8</ele>
        <time>2020-09-06T13:58:01.000Z</time>
      </trkpt>
      <trkpt lat="45.26697" lon="5.75825">
        <ele>1091.8</ele>
        <time>2020-09-06T13:58:03.000Z</time>
      </trkpt>
      <trkpt lat="45.26697" lon="5.75821">
        <ele>1090.9</ele>
        <time>2020-09-06T13:58:04.000Z</time>
      </trkpt>
      <trkpt lat="45.26696" lon="5.75815">
        <ele>1089.6</ele>
        <time>2020-09-06T13:58:05.000Z</time>
      </trkpt>
      <trkpt lat="45.26695" lon="5.75807">
        <ele>1088.2</ele>
        <time>2020-09-06T13:58:06.000Z</time>
      </trkpt>
      <trkpt lat="45.26694" lon="5.75803">
        <ele>1087.4</ele>
        <time>2020-09-06T13:58:07.000Z</time>
      </trkpt>
      <trkpt lat="45.26693" lon="5.758">
        <ele>1086.8</ele>
        <time>2020-09-06T13:58:08.000Z</time>
      </trkpt>
      <trkpt lat="45.26694" lon="5.75791">
        <ele>1084.8</ele>
        <time>2020-09-06T13:58:10.000Z</time>
      </trkpt>
      <trkpt lat="45.26694" lon="5.75787">
        <ele>1083.9</ele>
        <time>2020-09-06T13:58:11.000Z</time>
      </trkpt>
      <trkpt lat="45.26695" lon="5.75784">
        <ele>1083</ele>
        <time>2020-09-06T13:58:12.000Z</time>
      </trkpt>
      <trkpt lat="45.26695" lon="5.7578">
        <ele>1082.1</ele>
        <time>2020-09-06T13:58:13.000Z</time>
      </trkpt>
      <trkpt lat="45.26696" lon="5.75776">
        <ele>1081.2</ele>
        <time>2020-09-06T13:58:15.000Z</time>
      </trkpt>
      <trkpt lat="45.26697" lon="5.75774">
        <ele>1080.6</ele>
        <time>2020-09-06T13:58:16.000Z</time>
      </trkpt>
      <trkpt lat="45.26697" lon="5.75772">
        <ele>1080.1</ele>
        <time>2020-09-06T13:58:17.000Z</time>
      </trkpt>
      <trkpt lat="45.26697" lon="5.75769">
        <ele>1079.5</ele>
        <time>2020-09-06T13:58:18.000Z</time>
      </trkpt>
      <trkpt lat="45.26695" lon="5.75762">
        <ele>1078.3</ele>
        <time>2020-09-06T13:58:20.000Z</time>
      </trkpt>
      <trkpt lat="45.26694" lon="5.75758">
        <ele>1077.5</ele>
        <time>2020-09-06T13:58:22.000Z</time>
      </trkpt>
      <trkpt lat="45.26694" lon="5.75757">
        <ele>1077.4</ele>
        <time>2020-09-06T13:58:23.000Z</time>
      </trkpt>
      <trkpt lat="45.26694" lon="5.75757">
        <ele>1077.2</ele>
        <time>2020-09-06T13:58:24.000Z</time>
      </trkpt>
      <trkpt lat="45.26694" lon="5.75756">
        <ele>1077</ele>
        <time>2020-09-06T13:58:25.000Z</time>
      </trkpt>
      <trkpt lat="45.26694" lon="5.75753">
        <ele>1076.5</ele>
        <time>2020-09-06T13:58:26.000Z</time>
      </trkpt>
      <trkpt lat="45.26694" lon="5.75747">
        <ele>1075</ele>
        <time>2020-09-06T13:58:28.000Z</time>
      </trkpt>
      <trkpt lat="45.26695" lon="5.75744">
        <ele>1074.1</ele>
        <time>2020-09-06T13:58:29.000Z</time>
      </trkpt>
      <trkpt lat="45.26695" lon="5.75741">
        <ele>1073.5</ele>
        <time>2020-09-06T13:58:30.000Z</time>
      </trkpt>
      <trkpt lat="45.26695" lon="5.75739">
        <ele>1073</ele>
        <time>2020-09-06T13:58:31.000Z</time>
      </trkpt>
      <trkpt lat="45.26695" lon="5.75733">
        <ele>1071.5</ele>
        <time>2020-09-06T13:58:33.000Z</time>
      </trkpt>
      <trkpt lat="45.26695" lon="5.75728">
        <ele>1070.2</ele>
        <time>2020-09-06T13:58:34.000Z</time>
      </trkpt>
      <trkpt lat="45.26696" lon="5.75724">
        <ele>1069.2</ele>
        <time>2020-09-06T13:58:35.000Z</time>
      </trkpt>
      <trkpt lat="45.26695" lon="5.7572">
        <ele>1068.2</ele>
        <time>2020-09-06T13:58:36.000Z</time>
      </trkpt>
      <trkpt lat="45.26695" lon="5.75715">
        <ele>1067.1</ele>
        <time>2020-09-06T13:58:37.000Z</time>
      </trkpt>
      <trkpt lat="45.26695" lon="5.7571">
        <ele>1065.8</ele>
        <time>2020-09-06T13:58:38.000Z</time>
      </trkpt>
      <trkpt lat="45.26696" lon="5.75704">
        <ele>1064.1</ele>
        <time>2020-09-06T13:58:39.000Z</time>
      </trkpt>
      <trkpt lat="45.26699" lon="5.75696">
        <ele>1061.6</ele>
        <time>2020-09-06T13:58:40.000Z</time>
      </trkpt>
      <trkpt lat="45.267" lon="5.75689">
        <ele>1059.7</ele>
        <time>2020-09-06T13:58:41.000Z</time>
      </trkpt>
      <trkpt lat="45.26701" lon="5.75684">
        <ele>1058.6</ele>
        <time>2020-09-06T13:58:42.000Z</time>
      </trkpt>
      <trkpt lat="45.26702" lon="5.75681">
        <ele>1057.7</ele>
        <time>2020-09-06T13:58:43.000Z</time>
      </trkpt>
      <trkpt lat="45.26702" lon="5.75678">
        <ele>1056.7</ele>
        <time>2020-09-06T13:58:44.000Z</time>
      </trkpt>
      <trkpt lat="45.26703" lon="5.75676">
        <ele>1056.2</ele>
        <time>2020-09-06T13:58:45.000Z</time>
      </trkpt>
      <trkpt lat="45.26704" lon="5.75676">
        <ele>1055.9</ele>
        <time>2020-09-06T13:58:46.000Z</time>
      </trkpt>
      <trkpt lat="45.26705" lon="5.75675">
        <ele>1055.6</ele>
        <time>2020-09-06T13:58:47.000Z</time>
      </trkpt>
      <trkpt lat="45.26706" lon="5.75675">
        <ele>1055.5</ele>
        <time>2020-09-06T13:58:48.000Z</time>
      </trkpt>
      <trkpt lat="45.2671" lon="5.75675">
        <ele>1054.9</ele>
        <time>2020-09-06T13:58:50.000Z</time>
      </trkpt>
      <trkpt lat="45.2671" lon="5.75676">
        <ele>1055.1</ele>
        <time>2020-09-06T13:58:51.000Z</time>
      </trkpt>
      <trkpt lat="45.2671" lon="5.75677">
        <ele>1055.3</ele>
        <time>2020-09-06T13:58:53.000Z</time>
      </trkpt>
      <trkpt lat="45.26714" lon="5.7568">
        <ele>1055.4</ele>
        <time>2020-09-06T13:59:02.000Z</time>
      </trkpt>
      <trkpt lat="45.26719" lon="5.75674">
        <ele>1053</ele>
        <time>2020-09-06T13:59:08.000Z</time>
      </trkpt>
      <trkpt lat="45.26725" lon="5.75668">
        <ele>1050.6</ele>
        <time>2020-09-06T13:59:11.000Z</time>
      </trkpt>
      <trkpt lat="45.26729" lon="5.75666">
        <ele>1049.4</ele>
        <time>2020-09-06T13:59:12.000Z</time>
      </trkpt>
      <trkpt lat="45.26733" lon="5.75664">
        <ele>1047.9</ele>
        <time>2020-09-06T13:59:13.000Z</time>
      </trkpt>
      <trkpt lat="45.26736" lon="5.75661">
        <ele>1046.3</ele>
        <time>2020-09-06T13:59:14.000Z</time>
      </trkpt>
      <trkpt lat="45.26737" lon="5.75658">
        <ele>1045.4</ele>
        <time>2020-09-06T13:59:15.000Z</time>
      </trkpt>
      <trkpt lat="45.26738" lon="5.75656">
        <ele>1044.6</ele>
        <time>2020-09-06T13:59:16.000Z</time>
      </trkpt>
      <trkpt lat="45.26743" lon="5.75644">
        <ele>1039.4</ele>
        <time>2020-09-06T13:59:20.000Z</time>
      </trkpt>
      <trkpt lat="45.26751" lon="5.75636">
        <ele>1034.8</ele>
        <time>2020-09-06T13:59:23.000Z</time>
      </trkpt>
      <trkpt lat="45.26753" lon="5.75634">
        <ele>1034.3</ele>
        <time>2020-09-06T13:59:24.000Z</time>
      </trkpt>
      <trkpt lat="45.26755" lon="5.7563">
        <ele>1032.8</ele>
        <time>2020-09-06T13:59:26.000Z</time>
      </trkpt>
      <trkpt lat="45.26762" lon="5.75621">
        <ele>1029.4</ele>
        <time>2020-09-06T13:59:32.000Z</time>
      </trkpt>
      <trkpt lat="45.26765" lon="5.75621">
        <ele>1029</ele>
        <time>2020-09-06T13:59:34.000Z</time>
      </trkpt>
      <trkpt lat="45.26768" lon="5.75622">
        <ele>1029.5</ele>
        <time>2020-09-06T13:59:36.000Z</time>
      </trkpt>
      <trkpt lat="45.26769" lon="5.75623">
        <ele>1029.8</ele>
        <time>2020-09-06T13:59:37.000Z</time>
      </trkpt>
      <trkpt lat="45.26781" lon="5.75623">
        <ele>1029.7</ele>
        <time>2020-09-06T13:59:42.000Z</time>
      </trkpt>
      <trkpt lat="45.26783" lon="5.75623">
        <ele>1029.3</ele>
        <time>2020-09-06T13:59:43.000Z</time>
      </trkpt>
      <trkpt lat="45.26785" lon="5.75621">
        <ele>1028.9</ele>
        <time>2020-09-06T13:59:44.000Z</time>
      </trkpt>
      <trkpt lat="45.2679" lon="5.75622">
        <ele>1028.9</ele>
        <time>2020-09-06T13:59:46.000Z</time>
      </trkpt>
      <trkpt lat="45.26792" lon="5.7562">
        <ele>1028.3</ele>
        <time>2020-09-06T13:59:47.000Z</time>
      </trkpt>
      <trkpt lat="45.26794" lon="5.75618">
        <ele>1027.5</ele>
        <time>2020-09-06T13:59:48.000Z</time>
      </trkpt>
      <trkpt lat="45.26801" lon="5.75616">
        <ele>1026.4</ele>
        <time>2020-09-06T13:59:50.000Z</time>
      </trkpt>
      <trkpt lat="45.26807" lon="5.75612">
        <ele>1024.9</ele>
        <time>2020-09-06T13:59:51.000Z</time>
      </trkpt>
      <trkpt lat="45.2681" lon="5.7561">
        <ele>1024</ele>
        <time>2020-09-06T13:59:52.000Z</time>
      </trkpt>
      <trkpt lat="45.26812" lon="5.75607">
        <ele>1023</ele>
        <time>2020-09-06T13:59:53.000Z</time>
      </trkpt>
      <trkpt lat="45.26812" lon="5.75604">
        <ele>1021.9</ele>
        <time>2020-09-06T13:59:55.000Z</time>
      </trkpt>
      <trkpt lat="45.26811" lon="5.75602">
        <ele>1021.2</ele>
        <time>2020-09-06T13:59:57.000Z</time>
      </trkpt>
      <trkpt lat="45.26813" lon="5.756">
        <ele>1020.4</ele>
        <time>2020-09-06T14:00:00.000Z</time>
      </trkpt>
      <trkpt lat="45.26813" lon="5.75594">
        <ele>1018.4</ele>
        <time>2020-09-06T14:00:02.000Z</time>
      </trkpt>
      <trkpt lat="45.26812" lon="5.75591">
        <ele>1017.1</ele>
        <time>2020-09-06T14:00:03.000Z</time>
      </trkpt>
      <trkpt lat="45.26812" lon="5.75593">
        <ele>1018</ele>
        <time>2020-09-06T14:00:04.000Z</time>
      </trkpt>
      <trkpt lat="45.26812" lon="5.75593">
        <ele>1018.2</ele>
        <time>2020-09-06T14:00:06.000Z</time>
      </trkpt>
      <trkpt lat="45.26817" lon="5.75591">
        <ele>1017</ele>
        <time>2020-09-06T14:00:12.000Z</time>
      </trkpt>
      <trkpt lat="45.26821" lon="5.75581">
        <ele>1013.5</ele>
        <time>2020-09-06T14:00:19.000Z</time>
      </trkpt>
      <trkpt lat="45.26822" lon="5.7558">
        <ele>1013.1</ele>
        <time>2020-09-06T14:00:20.000Z</time>
      </trkpt>
      <trkpt lat="45.26825" lon="5.75574">
        <ele>1011.2</ele>
        <time>2020-09-06T14:00:23.000Z</time>
      </trkpt>
      <trkpt lat="45.26827" lon="5.75573">
        <ele>1010.7</ele>
        <time>2020-09-06T14:00:25.000Z</time>
      </trkpt>
      <trkpt lat="45.26828" lon="5.75572">
        <ele>1010.4</ele>
        <time>2020-09-06T14:00:26.000Z</time>
      </trkpt>
      <trkpt lat="45.26834" lon="5.7557">
        <ele>1009.6</ele>
        <time>2020-09-06T14:00:29.000Z</time>
      </trkpt>
      <trkpt lat="45.26836" lon="5.75569">
        <ele>1009.2</ele>
        <time>2020-09-06T14:00:31.000Z</time>
      </trkpt>
      <trkpt lat="45.26838" lon="5.75567">
        <ele>1008.5</ele>
        <time>2020-09-06T14:00:33.000Z</time>
      </trkpt>
      <trkpt lat="45.26845" lon="5.75573">
        <ele>1010.1</ele>
        <time>2020-09-06T14:00:37.000Z</time>
      </trkpt>
      <trkpt lat="45.26846" lon="5.75574">
        <ele>1010.4</ele>
        <time>2020-09-06T14:00:38.000Z</time>
      </trkpt>
      <trkpt lat="45.26853" lon="5.75585">
        <ele>1013.3</ele>
        <time>2020-09-06T14:00:43.000Z</time>
      </trkpt>
      <trkpt lat="45.26865" lon="5.75591">
        <ele>1014.9</ele>
        <time>2020-09-06T14:00:49.000Z</time>
      </trkpt>
      <trkpt lat="45.26866" lon="5.75591">
        <ele>1014.9</ele>
        <time>2020-09-06T14:00:50.000Z</time>
      </trkpt>
      <trkpt lat="45.26869" lon="5.75589">
        <ele>1014</ele>
        <time>2020-09-06T14:00:54.000Z</time>
      </trkpt>
      <trkpt lat="45.2687" lon="5.75588">
        <ele>1013.6</ele>
        <time>2020-09-06T14:00:55.000Z</time>
      </trkpt>
      <trkpt lat="45.26875" lon="5.75583">
        <ele>1011.3</ele>
        <time>2020-09-06T14:00:57.000Z</time>
      </trkpt>
      <trkpt lat="45.26877" lon="5.75579">
        <ele>1010</ele>
        <time>2020-09-06T14:00:58.000Z</time>
      </trkpt>
      <trkpt lat="45.26879" lon="5.75575">
        <ele>1009</ele>
        <time>2020-09-06T14:00:59.000Z</time>
      </trkpt>
      <trkpt lat="45.26881" lon="5.75569">
        <ele>1007.2</ele>
        <time>2020-09-06T14:01:01.000Z</time>
      </trkpt>
      <trkpt lat="45.26885" lon="5.75564">
        <ele>1005.7</ele>
        <time>2020-09-06T14:01:03.000Z</time>
      </trkpt>
      <trkpt lat="45.26887" lon="5.75563">
        <ele>1005.3</ele>
        <time>2020-09-06T14:01:04.000Z</time>
      </trkpt>
      <trkpt lat="45.26891" lon="5.75565">
        <ele>1005.6</ele>
        <time>2020-09-06T14:01:06.000Z</time>
      </trkpt>
      <trkpt lat="45.26893" lon="5.75566">
        <ele>1005.9</ele>
        <time>2020-09-06T14:01:07.000Z</time>
      </trkpt>
      <trkpt lat="45.26898" lon="5.75566">
        <ele>1005.6</ele>
        <time>2020-09-06T14:01:09.000Z</time>
      </trkpt>
      <trkpt lat="45.269" lon="5.75567">
        <ele>1005.7</ele>
        <time>2020-09-06T14:01:10.000Z</time>
      </trkpt>
      <trkpt lat="45.26901" lon="5.75568">
        <ele>1006</ele>
        <time>2020-09-06T14:01:11.000Z</time>
      </trkpt>
      <trkpt lat="45.26908" lon="5.75571">
        <ele>1006.6</ele>
        <time>2020-09-06T14:01:14.000Z</time>
      </trkpt>
      <trkpt lat="45.2691" lon="5.75572">
        <ele>1006.6</ele>
        <time>2020-09-06T14:01:16.000Z</time>
      </trkpt>
      <trkpt lat="45.26911" lon="5.75572">
        <ele>1006.7</ele>
        <time>2020-09-06T14:01:18.000Z</time>
      </trkpt>
      <trkpt lat="45.26914" lon="5.75572">
        <ele>1006.3</ele>
        <time>2020-09-06T14:01:20.000Z</time>
      </trkpt>
      <trkpt lat="45.26915" lon="5.75569">
        <ele>1005.7</ele>
        <time>2020-09-06T14:01:21.000Z</time>
      </trkpt>
      <trkpt lat="45.26915" lon="5.75568">
        <ele>1005.3</ele>
        <time>2020-09-06T14:01:22.000Z</time>
      </trkpt>
      <trkpt lat="45.26926" lon="5.75556">
        <ele>1003.4</ele>
        <time>2020-09-06T14:01:24.000Z</time>
      </trkpt>
      <trkpt lat="45.26928" lon="5.75551">
        <ele>1002.5</ele>
        <time>2020-09-06T14:01:25.000Z</time>
      </trkpt>
      <trkpt lat="45.26928" lon="5.75547">
        <ele>1001.7</ele>
        <time>2020-09-06T14:01:26.000Z</time>
      </trkpt>
      <trkpt lat="45.26928" lon="5.75547">
        <ele>1001.7</ele>
      </trkpt>
      <trkpt lat="45.26939" lon="5.75545">
        <ele>1002.7</ele>
      </trkpt>
      <trkpt lat="45.26956" lon="5.75554">
        <ele>1006.2</ele>
      </trkpt>
      <trkpt lat="45.26975" lon="5.7555">
        <ele>1007.7</ele>
      </trkpt>
      <trkpt lat="45.26984" lon="5.75541">
        <ele>1007.9</ele>
      </trkpt>
      <trkpt lat="45.2699" lon="5.75485">
        <ele>1004.2</ele>
      </trkpt>
      <trkpt lat="45.26993" lon="5.75447">
        <ele>1003.3</ele>
      </trkpt>
      <trkpt lat="45.27006" lon="5.75432">
        <ele>1004.7</ele>
      </trkpt>
      <trkpt lat="45.27021" lon="5.75445">
        <ele>1006.5</ele>
      </trkpt>
      <trkpt lat="45.27048" lon="5.75478">
        <ele>1014.4</ele>
      </trkpt>
      <trkpt lat="45.27101" lon="5.75509">
        <ele>1028.6</ele>
      </trkpt>
      <trkpt lat="45.27159" lon="5.75511">
        <ele>1030.4</ele>
      </trkpt>
      <trkpt lat="45.27216" lon="5.75518">
        <ele>1034</ele>
      </trkpt>
      <trkpt lat="45.27264" lon="5.75534">
        <ele>1039.1</ele>
      </trkpt>
      <trkpt lat="45.2729" lon="5.75542">
        <ele>1042.4</ele>
      </trkpt>
      <trkpt lat="45.27331" lon="5.75564">
        <ele>1045.9</ele>
      </trkpt>
      <trkpt lat="45.27366" lon="5.75599">
        <ele>1050.7</ele>
      </trkpt>
      <trkpt lat="45.27389" lon="5.75654">
        <ele>1055.5</ele>
      </trkpt>
      <trkpt lat="45.27413" lon="5.7568">
        <ele>1056.5</ele>
      </trkpt>
      <trkpt lat="45.2745" lon="5.75716">
        <ele>1063.9</ele>
      </trkpt>
      <trkpt lat="45.27481" lon="5.75737">
        <ele>1064.9</ele>
      </trkpt>
      <trkpt lat="45.27469" lon="5.75746">
        <ele>1066.9</ele>
      </trkpt>
      <trkpt lat="45.27422" lon="5.75732">
        <ele>1068.3</ele>
      </trkpt>
      <trkpt lat="45.27394" lon="5.75717">
        <ele>1066.8</ele>
      </trkpt>
      <trkpt lat="45.27366" lon="5.75686">
        <ele>1062.8</ele>
      </trkpt>
      <trkpt lat="45.27345" lon="5.75667">
        <ele>1061.6</ele>
      </trkpt>
      <trkpt lat="45.27307" lon="5.75666">
        <ele>1062.8</ele>
      </trkpt>
      <trkpt lat="45.27274" lon="5.75684">
        <ele>1064.9</ele>
      </trkpt>
      <trkpt lat="45.27268" lon="5.75718">
        <ele>1068.3</ele>
      </trkpt>
      <trkpt lat="45.27274" lon="5.75758">
        <ele>1072.5</ele>
      </trkpt>
      <trkpt lat="45.27304" lon="5.75795">
        <ele>1078.4</ele>
      </trkpt>
      <trkpt lat="45.27342" lon="5.75838">
        <ele>1086.1</ele>
      </trkpt>
      <trkpt lat="45.27345" lon="5.75877">
        <ele>1088.6</ele>
      </trkpt>
      <trkpt lat="45.27383" lon="5.75936">
        <ele>1093.3</ele>
      </trkpt>
      <trkpt lat="45.27426" lon="5.75992">
        <ele>1102.6</ele>
      </trkpt>
      <trkpt lat="45.27469" lon="5.76027">
        <ele>1106.1</ele>
      </trkpt>
      <trkpt lat="45.27514" lon="5.76052">
        <ele>1111.2</ele>
      </trkpt>
      <trkpt lat="45.27553" lon="5.76068">
        <ele>1117.6</ele>
      </trkpt>
      <trkpt lat="45.27588" lon="5.76077">
        <ele>1122.4</ele>
      </trkpt>
      <trkpt lat="45.27599" lon="5.76097">
        <ele>1125.9</ele>
      </trkpt>
      <trkpt lat="45.27595" lon="5.76128">
        <ele>1127.8</ele>
      </trkpt>
      <trkpt lat="45.27562" lon="5.76145">
        <ele>1126.1</ele>
      </trkpt>
      <trkpt lat="45.27519" lon="5.76159">
        <ele>1125.7</ele>
      </trkpt>
      <trkpt lat="45.27471" lon="5.76198">
        <ele>1127.5</ele>
      </trkpt>
      <trkpt lat="45.27434" lon="5.76222">
        <ele>1127.4</ele>
      </trkpt>
      <trkpt lat="45.27403" lon="5.76243">
        <ele>1126.3</ele>
      </trkpt>
      <trkpt lat="45.27389" lon="5.76273">
        <ele>1128.5</ele>
      </trkpt>
      <trkpt lat="45.2739" lon="5.76321">
        <ele>1136</ele>
      </trkpt>
      <trkpt lat="45.27409" lon="5.76427">
        <ele>1149.4</ele>
      </trkpt>
      <trkpt lat="45.27412" lon="5.76512">
        <ele>1160.3</ele>
      </trkpt>
      <trkpt lat="45.27418" lon="5.76592">
        <ele>1175.2</ele>
      </trkpt>
      <trkpt lat="45.27407" lon="5.76613">
        <ele>1180.2</ele>
      </trkpt>
      <trkpt lat="45.27382" lon="5.76595">
        <ele>1177</ele>
      </trkpt>
      <trkpt lat="45.27358" lon="5.76567">
        <ele>1172.1</ele>
      </trkpt>
      <trkpt lat="45.27314" lon="5.7655">
        <ele>1169</ele>
      </trkpt>
      <trkpt lat="45.27301" lon="5.76544">
        <ele>1167.8</ele>
      </trkpt>
      <trkpt lat="45.27287" lon="5.7655">
        <ele>1167.7</ele>
      </trkpt>
      <trkpt lat="45.27299" lon="5.76558">
        <ele>1169.1</ele>
      </trkpt>
      <trkpt lat="45.27304" lon="5.76564">
        <ele>1170</ele>
      </trkpt>
      <trkpt lat="45.27304" lon="5.76564">
        <ele>1170</ele>
        <time>2020-09-06T13:46:58.000Z</time>
      </trkpt>
      <trkpt lat="45.27307" lon="5.76568">
        <ele>1170.7</ele>
        <time>2020-09-06T13:46:57.000Z</time>
      </trkpt>
      <trkpt lat="45.27311" lon="5.76583">
        <ele>1172.9</ele>
        <time>2020-09-06T13:46:55.000Z</time>
      </trkpt>
      <trkpt lat="45.27311" lon="5.76592">
        <ele>1174.9</ele>
        <time>2020-09-06T13:46:53.000Z</time>
      </trkpt>
      <trkpt lat="45.2731" lon="5.76598">
        <ele>1176.2</ele>
        <time>2020-09-06T13:46:52.000Z</time>
      </trkpt>
      <trkpt lat="45.2731" lon="5.76604">
        <ele>1177.6</ele>
        <time>2020-09-06T13:46:51.000Z</time>
      </trkpt>
      <trkpt lat="45.27308" lon="5.7661">
        <ele>1178.5</ele>
        <time>2020-09-06T13:46:50.000Z</time>
      </trkpt>
      <trkpt lat="45.27306" lon="5.76615">
        <ele>1179.3</ele>
        <time>2020-09-06T13:46:49.000Z</time>
      </trkpt>
      <trkpt lat="45.27306" lon="5.76621">
        <ele>1180.4</ele>
        <time>2020-09-06T13:46:48.000Z</time>
      </trkpt>
      <trkpt lat="45.27305" lon="5.76628">
        <ele>1181.8</ele>
        <time>2020-09-06T13:46:47.000Z</time>
      </trkpt>
      <trkpt lat="45.27303" lon="5.76632">
        <ele>1182.4</ele>
        <time>2020-09-06T13:46:46.000Z</time>
      </trkpt>
      <trkpt lat="45.27303" lon="5.76636">
        <ele>1183.2</ele>
        <time>2020-09-06T13:46:45.000Z</time>
      </trkpt>
      <trkpt lat="45.27305" lon="5.76642">
        <ele>1184.9</ele>
        <time>2020-09-06T13:46:44.000Z</time>
      </trkpt>
      <trkpt lat="45.27307" lon="5.7665">
        <ele>1187.1</ele>
        <time>2020-09-06T13:46:43.000Z</time>
      </trkpt>
      <trkpt lat="45.27311" lon="5.76657">
        <ele>1189.6</ele>
        <time>2020-09-06T13:46:42.000Z</time>
      </trkpt>
      <trkpt lat="45.27312" lon="5.76663">
        <ele>1191.3</ele>
        <time>2020-09-06T13:46:41.000Z</time>
      </trkpt>
      <trkpt lat="45.27314" lon="5.76669">
        <ele>1193.3</ele>
        <time>2020-09-06T13:46:40.000Z</time>
      </trkpt>
      <trkpt lat="45.27316" lon="5.76672">
        <ele>1194.6</ele>
        <time>2020-09-06T13:46:39.000Z</time>
      </trkpt>
      <trkpt lat="45.27319" lon="5.7668">
        <ele>1197.4</ele>
        <time>2020-09-06T13:46:38.000Z</time>
      </trkpt>
      <trkpt lat="45.27319" lon="5.76685">
        <ele>1198.7</ele>
        <time>2020-09-06T13:46:37.000Z</time>
      </trkpt>
      <trkpt lat="45.27319" lon="5.76691">
        <ele>1200.3</ele>
        <time>2020-09-06T13:46:36.000Z</time>
      </trkpt>
      <trkpt lat="45.2732" lon="5.76697">
        <ele>1201.9</ele>
        <time>2020-09-06T13:46:35.000Z</time>
      </trkpt>
      <trkpt lat="45.2732" lon="5.76702">
        <ele>1203.5</ele>
        <time>2020-09-06T13:46:34.000Z</time>
      </trkpt>
      <trkpt lat="45.27315" lon="5.76711">
        <ele>1204.4</ele>
        <time>2020-09-06T13:46:32.000Z</time>
      </trkpt>
      <trkpt lat="45.27314" lon="5.76715">
        <ele>1204.9</ele>
        <time>2020-09-06T13:46:31.000Z</time>
      </trkpt>
      <trkpt lat="45.27312" lon="5.7672">
        <ele>1205.8</ele>
        <time>2020-09-06T13:46:30.000Z</time>
      </trkpt>
      <trkpt lat="45.2731" lon="5.76724">
        <ele>1206.1</ele>
        <time>2020-09-06T13:46:29.000Z</time>
      </trkpt>
      <trkpt lat="45.2731" lon="5.76728">
        <ele>1207.1</ele>
        <time>2020-09-06T13:46:28.000Z</time>
      </trkpt>
      <trkpt lat="45.27308" lon="5.76732">
        <ele>1207.6</ele>
        <time>2020-09-06T13:46:27.000Z</time>
      </trkpt>
      <trkpt lat="45.27307" lon="5.76737">
        <ele>1208.5</ele>
        <time>2020-09-06T13:46:26.000Z</time>
      </trkpt>
      <trkpt lat="45.27301" lon="5.76742">
        <ele>1207.9</ele>
        <time>2020-09-06T13:46:24.000Z</time>
      </trkpt>
      <trkpt lat="45.27299" lon="5.76752">
        <ele>1209.7</ele>
        <time>2020-09-06T13:46:22.000Z</time>
      </trkpt>
      <trkpt lat="45.27297" lon="5.7676">
        <ele>1209.8</ele>
        <time>2020-09-06T13:46:20.000Z</time>
      </trkpt>
      <trkpt lat="45.27295" lon="5.76763">
        <ele>1209.7</ele>
        <time>2020-09-06T13:46:19.000Z</time>
      </trkpt>
      <trkpt lat="45.27295" lon="5.76766">
        <ele>1210</ele>
        <time>2020-09-06T13:46:18.000Z</time>
      </trkpt>
      <trkpt lat="45.27295" lon="5.76769">
        <ele>1210.3</ele>
        <time>2020-09-06T13:46:17.000Z</time>
      </trkpt>
      <trkpt lat="45.27295" lon="5.76772">
        <ele>1210.7</ele>
        <time>2020-09-06T13:46:16.000Z</time>
      </trkpt>
      <trkpt lat="45.27294" lon="5.76774">
        <ele>1210.9</ele>
        <time>2020-09-06T13:46:15.000Z</time>
      </trkpt>
      <trkpt lat="45.27295" lon="5.76776">
        <ele>1211.4</ele>
        <time>2020-09-06T13:46:14.000Z</time>
      </trkpt>
      <trkpt lat="45.27296" lon="5.76777">
        <ele>1211.8</ele>
        <time>2020-09-06T13:46:13.000Z</time>
      </trkpt>
      <trkpt lat="45.27296" lon="5.76779">
        <ele>1212</ele>
        <time>2020-09-06T13:46:12.000Z</time>
      </trkpt>
      <trkpt lat="45.27293" lon="5.76785">
        <ele>1211.9</ele>
        <time>2020-09-06T13:46:10.000Z</time>
      </trkpt>
      <trkpt lat="45.27293" lon="5.76794">
        <ele>1212.9</ele>
        <time>2020-09-06T13:46:08.000Z</time>
      </trkpt>
      <trkpt lat="45.27293" lon="5.768">
        <ele>1213.7</ele>
        <time>2020-09-06T13:46:06.000Z</time>
      </trkpt>
      <trkpt lat="45.27293" lon="5.76803">
        <ele>1214.3</ele>
        <time>2020-09-06T13:46:05.000Z</time>
      </trkpt>
      <trkpt lat="45.27293" lon="5.76809">
        <ele>1214.8</ele>
        <time>2020-09-06T13:46:02.000Z</time>
      </trkpt>
      <trkpt lat="45.27292" lon="5.76811">
        <ele>1214.8</ele>
        <time>2020-09-06T13:46:01.000Z</time>
      </trkpt>
      <trkpt lat="45.27285" lon="5.76825">
        <ele>1214</ele>
        <time>2020-09-06T13:45:55.000Z</time>
      </trkpt>
      <trkpt lat="45.27283" lon="5.76835">
        <ele>1214.2</ele>
        <time>2020-09-06T13:45:50.000Z</time>
      </trkpt>
      <trkpt lat="45.27282" lon="5.76837">
        <ele>1214</ele>
        <time>2020-09-06T13:45:49.000Z</time>
      </trkpt>
      <trkpt lat="45.2728" lon="5.76844">
        <ele>1213.5</ele>
        <time>2020-09-06T13:45:42.000Z</time>
      </trkpt>
      <trkpt lat="45.27279" lon="5.76845">
        <ele>1213.4</ele>
        <time>2020-09-06T13:45:41.000Z</time>
      </trkpt>
      <trkpt lat="45.27279" lon="5.7685">
        <ele>1213.4</ele>
        <time>2020-09-06T13:45:37.000Z</time>
      </trkpt>
      <trkpt lat="45.27279" lon="5.76851">
        <ele>1213.4</ele>
        <time>2020-09-06T13:45:36.000Z</time>
      </trkpt>
      <trkpt lat="45.27279" lon="5.76855">
        <ele>1213.7</ele>
        <time>2020-09-06T13:45:32.000Z</time>
      </trkpt>
      <trkpt lat="45.27278" lon="5.7686">
        <ele>1213.6</ele>
        <time>2020-09-06T13:45:28.000Z</time>
      </trkpt>
      <trkpt lat="45.27278" lon="5.76863">
        <ele>1213.6</ele>
        <time>2020-09-06T13:45:25.000Z</time>
      </trkpt>
      <trkpt lat="45.27278" lon="5.76867">
        <ele>1213.7</ele>
        <time>2020-09-06T13:45:21.000Z</time>
      </trkpt>
      <trkpt lat="45.27278" lon="5.76868">
        <ele>1213.7</ele>
        <time>2020-09-06T13:45:20.000Z</time>
      </trkpt>
      <trkpt lat="45.27277" lon="5.76874">
        <ele>1213.7</ele>
        <time>2020-09-06T13:45:14.000Z</time>
      </trkpt>
      <trkpt lat="45.27277" lon="5.76875">
        <ele>1213.7</ele>
        <time>2020-09-06T13:45:13.000Z</time>
      </trkpt>
      <trkpt lat="45.27276" lon="5.7688">
        <ele>1213.4</ele>
        <time>2020-09-06T13:45:08.000Z</time>
      </trkpt>
      <trkpt lat="45.27276" lon="5.76887">
        <ele>1213.7</ele>
        <time>2020-09-06T13:45:02.000Z</time>
      </trkpt>
      <trkpt lat="45.27275" lon="5.76888">
        <ele>1213.6</ele>
        <time>2020-09-06T13:45:01.000Z</time>
      </trkpt>
      <trkpt lat="45.27273" lon="5.76896">
        <ele>1212.9</ele>
        <time>2020-09-06T13:44:55.000Z</time>
      </trkpt>
      <trkpt lat="45.27272" lon="5.76897">
        <ele>1212.8</ele>
        <time>2020-09-06T13:44:54.000Z</time>
      </trkpt>
      <trkpt lat="45.27271" lon="5.76899">
        <ele>1212.3</ele>
        <time>2020-09-06T13:44:51.000Z</time>
      </trkpt>
      <trkpt lat="45.27269" lon="5.76902">
        <ele>1211.6</ele>
        <time>2020-09-06T13:44:48.000Z</time>
      </trkpt>
      <trkpt lat="45.27269" lon="5.76903">
        <ele>1211.7</ele>
        <time>2020-09-06T13:44:47.000Z</time>
      </trkpt>
      <trkpt lat="45.27266" lon="5.76911">
        <ele>1211</ele>
        <time>2020-09-06T13:44:40.000Z</time>
      </trkpt>
      <trkpt lat="45.27264" lon="5.76912">
        <ele>1210.2</ele>
        <time>2020-09-06T13:44:34.000Z</time>
      </trkpt>
      <trkpt lat="45.27263" lon="5.76913">
        <ele>1209.9</ele>
        <time>2020-09-06T13:44:33.000Z</time>
      </trkpt>
      <trkpt lat="45.27262" lon="5.76915">
        <ele>1209.5</ele>
        <time>2020-09-06T13:44:29.000Z</time>
      </trkpt>
      <trkpt lat="45.2726" lon="5.76917">
        <ele>1209</ele>
        <time>2020-09-06T13:44:24.000Z</time>
      </trkpt>
      <trkpt lat="45.27261" lon="5.76917">
        <ele>1209</ele>
        <time>2020-09-06T13:44:23.000Z</time>
      </trkpt>
      <trkpt lat="45.2726" lon="5.76919">
        <ele>1208.9</ele>
        <time>2020-09-06T13:44:17.000Z</time>
      </trkpt>
      <trkpt lat="45.2726" lon="5.7692">
        <ele>1208.7</ele>
        <time>2020-09-06T13:44:16.000Z</time>
      </trkpt>
      <trkpt lat="45.27256" lon="5.76921">
        <ele>1206.9</ele>
        <time>2020-09-06T13:44:10.000Z</time>
      </trkpt>
      <trkpt lat="45.27252" lon="5.76921">
        <ele>1205.5</ele>
        <time>2020-09-06T13:44:05.000Z</time>
      </trkpt>
      <trkpt lat="45.27252" lon="5.76923">
        <ele>1205.4</ele>
        <time>2020-09-06T13:44:04.000Z</time>
      </trkpt>
      <trkpt lat="45.2725" lon="5.76929">
        <ele>1204</ele>
        <time>2020-09-06T13:44:00.000Z</time>
      </trkpt>
      <trkpt lat="45.27249" lon="5.76935">
        <ele>1203</ele>
        <time>2020-09-06T13:43:57.000Z</time>
      </trkpt>
      <trkpt lat="45.27245" lon="5.7694">
        <ele>1201</ele>
        <time>2020-09-06T13:43:53.000Z</time>
      </trkpt>
      <trkpt lat="45.27243" lon="5.76943">
        <ele>1199.6</ele>
        <time>2020-09-06T13:43:50.000Z</time>
      </trkpt>
      <trkpt lat="45.27242" lon="5.76944">
        <ele>1199.3</ele>
        <time>2020-09-06T13:43:49.000Z</time>
      </trkpt>
      <trkpt lat="45.2724" lon="5.76951">
        <ele>1197.7</ele>
        <time>2020-09-06T13:43:45.000Z</time>
      </trkpt>
      <trkpt lat="45.27239" lon="5.76956">
        <ele>1196.9</ele>
        <time>2020-09-06T13:43:42.000Z</time>
      </trkpt>
      <trkpt lat="45.27239" lon="5.76957">
        <ele>1196.8</ele>
        <time>2020-09-06T13:43:41.000Z</time>
      </trkpt>
      <trkpt lat="45.27239" lon="5.76963">
        <ele>1196.8</ele>
        <time>2020-09-06T13:43:37.000Z</time>
      </trkpt>
      <trkpt lat="45.2724" lon="5.76967">
        <ele>1196.7</ele>
        <time>2020-09-06T13:43:35.000Z</time>
      </trkpt>
      <trkpt lat="45.2724" lon="5.7697">
        <ele>1196.4</ele>
        <time>2020-09-06T13:43:33.000Z</time>
      </trkpt>
      <trkpt lat="45.2724" lon="5.76976">
        <ele>1196.5</ele>
        <time>2020-09-06T13:43:29.000Z</time>
      </trkpt>
      <trkpt lat="45.2724" lon="5.76978">
        <ele>1196.3</ele>
        <time>2020-09-06T13:43:28.000Z</time>
      </trkpt>
      <trkpt lat="45.27242" lon="5.76992">
        <ele>1196</ele>
        <time>2020-09-06T13:43:20.000Z</time>
      </trkpt>
      <trkpt lat="45.27242" lon="5.76994">
        <ele>1195.8</ele>
        <time>2020-09-06T13:43:19.000Z</time>
      </trkpt>
      <trkpt lat="45.27241" lon="5.77">
        <ele>1195.2</ele>
        <time>2020-09-06T13:43:15.000Z</time>
      </trkpt>
      <trkpt lat="45.27241" lon="5.77007">
        <ele>1196</ele>
        <time>2020-09-06T13:43:11.000Z</time>
      </trkpt>
      <trkpt lat="45.27241" lon="5.77009">
        <ele>1196.2</ele>
        <time>2020-09-06T13:43:10.000Z</time>
      </trkpt>
      <trkpt lat="45.27241" lon="5.77011">
        <ele>1196.2</ele>
        <time>2020-09-06T13:43:09.000Z</time>
      </trkpt>
      <trkpt lat="45.27241" lon="5.77018">
        <ele>1197.1</ele>
        <time>2020-09-06T13:43:05.000Z</time>
      </trkpt>
      <trkpt lat="45.27242" lon="5.7703">
        <ele>1199</ele>
        <time>2020-09-06T13:43:00.000Z</time>
      </trkpt>
      <trkpt lat="45.27242" lon="5.77032">
        <ele>1199.6</ele>
        <time>2020-09-06T13:42:59.000Z</time>
      </trkpt>
      <trkpt lat="45.27242" lon="5.77034">
        <ele>1199.8</ele>
        <time>2020-09-06T13:42:58.000Z</time>
      </trkpt>
      <trkpt lat="45.2724" lon="5.77042">
        <ele>1199.7</ele>
        <time>2020-09-06T13:42:54.000Z</time>
      </trkpt>
      <trkpt lat="45.27238" lon="5.77047">
        <ele>1199.7</ele>
        <time>2020-09-06T13:42:52.000Z</time>
      </trkpt>
      <trkpt lat="45.27231" lon="5.77053">
        <ele>1197.5</ele>
        <time>2020-09-06T13:42:46.000Z</time>
      </trkpt>
      <trkpt lat="45.2723" lon="5.77054">
        <ele>1197</ele>
        <time>2020-09-06T13:42:45.000Z</time>
      </trkpt>
      <trkpt lat="45.27223" lon="5.77062">
        <ele>1195.4</ele>
        <time>2020-09-06T13:42:39.000Z</time>
      </trkpt>
      <trkpt lat="45.27222" lon="5.77063">
        <ele>1195</ele>
        <time>2020-09-06T13:42:38.000Z</time>
      </trkpt>
      <trkpt lat="45.2722" lon="5.77064">
        <ele>1194.1</ele>
        <time>2020-09-06T13:42:36.000Z</time>
      </trkpt>
      <trkpt lat="45.27218" lon="5.77065">
        <ele>1193.7</ele>
        <time>2020-09-06T13:42:35.000Z</time>
      </trkpt>
      <trkpt lat="45.27217" lon="5.77068">
        <ele>1193.5</ele>
        <time>2020-09-06T13:42:32.000Z</time>
      </trkpt>
      <trkpt lat="45.27217" lon="5.77073">
        <ele>1194.1</ele>
        <time>2020-09-06T13:42:30.000Z</time>
      </trkpt>
      <trkpt lat="45.27213" lon="5.77078">
        <ele>1193.1</ele>
        <time>2020-09-06T13:42:26.000Z</time>
      </trkpt>
      <trkpt lat="45.27211" lon="5.77079">
        <ele>1192.6</ele>
        <time>2020-09-06T13:42:25.000Z</time>
      </trkpt>
      <trkpt lat="45.27203" lon="5.77083">
        <ele>1189.7</ele>
        <time>2020-09-06T13:42:19.000Z</time>
      </trkpt>
      <trkpt lat="45.27202" lon="5.77084">
        <ele>1189.5</ele>
        <time>2020-09-06T13:42:18.000Z</time>
      </trkpt>
      <trkpt lat="45.27199" lon="5.77085">
        <ele>1188.9</ele>
        <time>2020-09-06T13:42:17.000Z</time>
      </trkpt>
      <trkpt lat="45.27194" lon="5.77086">
        <ele>1187.1</ele>
        <time>2020-09-06T13:42:13.000Z</time>
      </trkpt>
      <trkpt lat="45.27188" lon="5.77088">
        <ele>1185.4</ele>
        <time>2020-09-06T13:42:08.000Z</time>
      </trkpt>
      <trkpt lat="45.27184" lon="5.77089">
        <ele>1183.8</ele>
        <time>2020-09-06T13:42:05.000Z</time>
      </trkpt>
      <trkpt lat="45.27177" lon="5.77089">
        <ele>1181.2</ele>
        <time>2020-09-06T13:42:02.000Z</time>
      </trkpt>
      <trkpt lat="45.27171" lon="5.77087">
        <ele>1177.8</ele>
        <time>2020-09-06T13:41:59.000Z</time>
      </trkpt>
      <trkpt lat="45.27168" lon="5.77085">
        <ele>1176.1</ele>
        <time>2020-09-06T13:41:57.000Z</time>
      </trkpt>
      <trkpt lat="45.2716" lon="5.77083">
        <ele>1173.3</ele>
        <time>2020-09-06T13:41:53.000Z</time>
      </trkpt>
      <trkpt lat="45.27158" lon="5.7708">
        <ele>1172.3</ele>
        <time>2020-09-06T13:41:51.000Z</time>
      </trkpt>
      <trkpt lat="45.27152" lon="5.7708">
        <ele>1170.8</ele>
        <time>2020-09-06T13:41:48.000Z</time>
      </trkpt>
      <trkpt lat="45.27149" lon="5.7708">
        <ele>1170.2</ele>
        <time>2020-09-06T13:41:47.000Z</time>
      </trkpt>
      <trkpt lat="45.27143" lon="5.77093">
        <ele>1172.2</ele>
        <time>2020-09-06T13:41:45.000Z</time>
      </trkpt>
      <trkpt lat="45.27141" lon="5.77098">
        <ele>1173.4</ele>
        <time>2020-09-06T13:41:44.000Z</time>
      </trkpt>
      <trkpt lat="45.27139" lon="5.77103">
        <ele>1174.6</ele>
        <time>2020-09-06T13:41:43.000Z</time>
      </trkpt>
      <trkpt lat="45.27136" lon="5.77108">
        <ele>1175.4</ele>
        <time>2020-09-06T13:41:42.000Z</time>
      </trkpt>
      <trkpt lat="45.27134" lon="5.77113">
        <ele>1176.5</ele>
        <time>2020-09-06T13:41:41.000Z</time>
      </trkpt>
      <trkpt lat="45.27133" lon="5.77123">
        <ele>1179.4</ele>
        <time>2020-09-06T13:41:40.000Z</time>
      </trkpt>
      <trkpt lat="45.27131" lon="5.77144">
        <ele>1185.6</ele>
        <time>2020-09-06T13:41:39.000Z</time>
      </trkpt>
      <trkpt lat="45.27128" lon="5.77154">
        <ele>1188</ele>
        <time>2020-09-06T13:41:38.000Z</time>
      </trkpt>
      <trkpt lat="45.27125" lon="5.77162">
        <ele>1189.3</ele>
        <time>2020-09-06T13:41:37.000Z</time>
      </trkpt>
      <trkpt lat="45.27122" lon="5.7717">
        <ele>1190.9</ele>
        <time>2020-09-06T13:41:36.000Z</time>
      </trkpt>
      <trkpt lat="45.27119" lon="5.77178">
        <ele>1192.8</ele>
        <time>2020-09-06T13:41:35.000Z</time>
      </trkpt>
      <trkpt lat="45.27116" lon="5.77188">
        <ele>1194.9</ele>
        <time>2020-09-06T13:41:34.000Z</time>
      </trkpt>
      <trkpt lat="45.27112" lon="5.77197">
        <ele>1196.7</ele>
        <time>2020-09-06T13:41:33.000Z</time>
      </trkpt>
      <trkpt lat="45.27108" lon="5.77205">
        <ele>1198.1</ele>
        <time>2020-09-06T13:41:32.000Z</time>
      </trkpt>
      <trkpt lat="45.27105" lon="5.77212">
        <ele>1199.5</ele>
        <time>2020-09-06T13:41:31.000Z</time>
      </trkpt>
      <trkpt lat="45.27102" lon="5.77218">
        <ele>1200.4</ele>
        <time>2020-09-06T13:41:30.000Z</time>
      </trkpt>
      <trkpt lat="45.27093" lon="5.77231">
        <ele>1202.1</ele>
        <time>2020-09-06T13:41:28.000Z</time>
      </trkpt>
      <trkpt lat="45.27088" lon="5.7724">
        <ele>1203.1</ele>
        <time>2020-09-06T13:41:27.000Z</time>
      </trkpt>
      <trkpt lat="45.27082" lon="5.77248">
        <ele>1204.1</ele>
        <time>2020-09-06T13:41:26.000Z</time>
      </trkpt>
      <trkpt lat="45.27078" lon="5.77255">
        <ele>1206.2</ele>
        <time>2020-09-06T13:41:25.000Z</time>
      </trkpt>
      <trkpt lat="45.27074" lon="5.77263">
        <ele>1208.4</ele>
        <time>2020-09-06T13:41:24.000Z</time>
      </trkpt>
      <trkpt lat="45.2707" lon="5.77271">
        <ele>1210.6</ele>
        <time>2020-09-06T13:41:23.000Z</time>
      </trkpt>
      <trkpt lat="45.27066" lon="5.7728">
        <ele>1212.9</ele>
        <time>2020-09-06T13:41:22.000Z</time>
      </trkpt>
      <trkpt lat="45.27061" lon="5.77285">
        <ele>1213.8</ele>
        <time>2020-09-06T13:41:21.000Z</time>
      </trkpt>
      <trkpt lat="45.27056" lon="5.77291">
        <ele>1214.9</ele>
        <time>2020-09-06T13:41:20.000Z</time>
      </trkpt>
      <trkpt lat="45.27053" lon="5.77296">
        <ele>1215.7</ele>
        <time>2020-09-06T13:41:19.000Z</time>
      </trkpt>
      <trkpt lat="45.2705" lon="5.77301">
        <ele>1217.1</ele>
        <time>2020-09-06T13:41:18.000Z</time>
      </trkpt>
      <trkpt lat="45.27048" lon="5.77307">
        <ele>1218.3</ele>
        <time>2020-09-06T13:41:17.000Z</time>
      </trkpt>
      <trkpt lat="45.27045" lon="5.77311">
        <ele>1219.1</ele>
        <time>2020-09-06T13:41:16.000Z</time>
      </trkpt>
      <trkpt lat="45.27042" lon="5.77315">
        <ele>1219.5</ele>
        <time>2020-09-06T13:41:15.000Z</time>
      </trkpt>
      <trkpt lat="45.27034" lon="5.77319">
        <ele>1218.8</ele>
        <time>2020-09-06T13:41:13.000Z</time>
      </trkpt>
      <trkpt lat="45.2703" lon="5.77321">
        <ele>1218.2</ele>
        <time>2020-09-06T13:41:12.000Z</time>
      </trkpt>
      <trkpt lat="45.27019" lon="5.77326">
        <ele>1217.2</ele>
        <time>2020-09-06T13:41:09.000Z</time>
      </trkpt>
      <trkpt lat="45.27016" lon="5.7733">
        <ele>1217.5</ele>
        <time>2020-09-06T13:41:08.000Z</time>
      </trkpt>
      <trkpt lat="45.27014" lon="5.77335">
        <ele>1218.1</ele>
        <time>2020-09-06T13:41:07.000Z</time>
      </trkpt>
      <trkpt lat="45.27002" lon="5.77349">
        <ele>1216.8</ele>
        <time>2020-09-06T13:41:02.000Z</time>
      </trkpt>
      <trkpt lat="45.26998" lon="5.77368">
        <ele>1217.6</ele>
        <time>2020-09-06T13:40:56.000Z</time>
      </trkpt>
      <trkpt lat="45.26998" lon="5.77389">
        <ele>1220.4</ele>
        <time>2020-09-06T13:40:51.000Z</time>
      </trkpt>
      <trkpt lat="45.27" lon="5.77419">
        <ele>1225.3</ele>
        <time>2020-09-06T13:40:45.000Z</time>
      </trkpt>
      <trkpt lat="45.27002" lon="5.77441">
        <ele>1226.8</ele>
        <time>2020-09-06T13:40:40.000Z</time>
      </trkpt>
      <trkpt lat="45.27001" lon="5.77456">
        <ele>1226.8</ele>
        <time>2020-09-06T13:40:37.000Z</time>
      </trkpt>
      <trkpt lat="45.27" lon="5.77471">
        <ele>1227</ele>
        <time>2020-09-06T13:40:34.000Z</time>
      </trkpt>
      <trkpt lat="45.26999" lon="5.77478">
        <ele>1226.6</ele>
        <time>2020-09-06T13:40:32.000Z</time>
      </trkpt>
      <trkpt lat="45.26994" lon="5.77489">
        <ele>1225</ele>
        <time>2020-09-06T13:40:27.000Z</time>
      </trkpt>
      <trkpt lat="45.26988" lon="5.77504">
        <ele>1222.6</ele>
        <time>2020-09-06T13:40:21.000Z</time>
      </trkpt>
      <trkpt lat="45.26987" lon="5.77511">
        <ele>1222.8</ele>
        <time>2020-09-06T13:40:18.000Z</time>
      </trkpt>
      <trkpt lat="45.26986" lon="5.77517">
        <ele>1222.5</ele>
        <time>2020-09-06T13:40:15.000Z</time>
      </trkpt>
      <trkpt lat="45.26985" lon="5.77522">
        <ele>1222.3</ele>
        <time>2020-09-06T13:40:13.000Z</time>
      </trkpt>
      <trkpt lat="45.26984" lon="5.77524">
        <ele>1222</ele>
        <time>2020-09-06T13:40:12.000Z</time>
      </trkpt>
      <trkpt lat="45.26983" lon="5.77527">
        <ele>1221.7</ele>
        <time>2020-09-06T13:40:10.000Z</time>
      </trkpt>
      <trkpt lat="45.26983" lon="5.77529">
        <ele>1221.6</ele>
        <time>2020-09-06T13:40:09.000Z</time>
      </trkpt>
      <trkpt lat="45.26981" lon="5.77538">
        <ele>1221.1</ele>
        <time>2020-09-06T13:40:05.000Z</time>
      </trkpt>
      <trkpt lat="45.26979" lon="5.77545">
        <ele>1220.4</ele>
        <time>2020-09-06T13:40:02.000Z</time>
      </trkpt>
      <trkpt lat="45.26978" lon="5.77548">
        <ele>1220.1</ele>
        <time>2020-09-06T13:40:01.000Z</time>
      </trkpt>
      <trkpt lat="45.26976" lon="5.77557">
        <ele>1219.5</ele>
        <time>2020-09-06T13:39:58.000Z</time>
      </trkpt>
      <trkpt lat="45.26974" lon="5.77559">
        <ele>1219</ele>
        <time>2020-09-06T13:39:57.000Z</time>
      </trkpt>
      <trkpt lat="45.26973" lon="5.7756">
        <ele>1218.5</ele>
        <time>2020-09-06T13:39:56.000Z</time>
      </trkpt>
      <trkpt lat="45.26972" lon="5.77562">
        <ele>1217.9</ele>
        <time>2020-09-06T13:39:55.000Z</time>
      </trkpt>
      <trkpt lat="45.26968" lon="5.77573">
        <ele>1216.4</ele>
        <time>2020-09-06T13:39:49.000Z</time>
      </trkpt>
      <trkpt lat="45.26967" lon="5.77576">
        <ele>1216</ele>
        <time>2020-09-06T13:39:47.000Z</time>
      </trkpt>
      <trkpt lat="45.26965" lon="5.77586">
        <ele>1215.7</ele>
        <time>2020-09-06T13:39:43.000Z</time>
      </trkpt>
      <trkpt lat="45.26962" lon="5.77604">
        <ele>1215.8</ele>
        <time>2020-09-06T13:39:37.000Z</time>
      </trkpt>
      <trkpt lat="45.26955" lon="5.7762">
        <ele>1214.5</ele>
        <time>2020-09-06T13:39:31.000Z</time>
      </trkpt>
      <trkpt lat="45.26951" lon="5.77634">
        <ele>1214.1</ele>
        <time>2020-09-06T13:39:27.000Z</time>
      </trkpt>
      <trkpt lat="45.26948" lon="5.77643">
        <ele>1214.1</ele>
        <time>2020-09-06T13:39:24.000Z</time>
      </trkpt>
      <trkpt lat="45.26947" lon="5.77646">
        <ele>1214.1</ele>
        <time>2020-09-06T13:39:23.000Z</time>
      </trkpt>
      <trkpt lat="45.26942" lon="5.77653">
        <ele>1212.6</ele>
        <time>2020-09-06T13:39:20.000Z</time>
      </trkpt>
      <trkpt lat="45.26937" lon="5.7766">
        <ele>1211.6</ele>
        <time>2020-09-06T13:39:17.000Z</time>
      </trkpt>
      <trkpt lat="45.26935" lon="5.77666">
        <ele>1211.3</ele>
        <time>2020-09-06T13:39:15.000Z</time>
      </trkpt>
      <trkpt lat="45.26927" lon="5.77677">
        <ele>1210.4</ele>
        <time>2020-09-06T13:39:11.000Z</time>
      </trkpt>
      <trkpt lat="45.26921" lon="5.77681">
        <ele>1208.8</ele>
        <time>2020-09-06T13:39:09.000Z</time>
      </trkpt>
      <trkpt lat="45.26911" lon="5.77689">
        <ele>1207</ele>
        <time>2020-09-06T13:39:05.000Z</time>
      </trkpt>
      <trkpt lat="45.26907" lon="5.77691">
        <ele>1206.2</ele>
        <time>2020-09-06T13:39:04.000Z</time>
      </trkpt>
      <trkpt lat="45.26904" lon="5.77693">
        <ele>1205.6</ele>
        <time>2020-09-06T13:39:03.000Z</time>
      </trkpt>
      <trkpt lat="45.26892" lon="5.777">
        <ele>1203.5</ele>
        <time>2020-09-06T13:38:59.000Z</time>
      </trkpt>
      <trkpt lat="45.26883" lon="5.77703">
        <ele>1200.9</ele>
        <time>2020-09-06T13:38:56.000Z</time>
      </trkpt>
      <trkpt lat="45.26881" lon="5.77704">
        <ele>1200.6</ele>
        <time>2020-09-06T13:38:55.000Z</time>
      </trkpt>
      <trkpt lat="45.26876" lon="5.7771">
        <ele>1200.2</ele>
        <time>2020-09-06T13:38:52.000Z</time>
      </trkpt>
      <trkpt lat="45.26875" lon="5.77712">
        <ele>1200.2</ele>
        <time>2020-09-06T13:38:51.000Z</time>
      </trkpt>
      <trkpt lat="45.26862" lon="5.77724">
        <ele>1198.2</ele>
        <time>2020-09-06T13:38:45.000Z</time>
      </trkpt>
      <trkpt lat="45.26857" lon="5.77728">
        <ele>1197.2</ele>
        <time>2020-09-06T13:38:43.000Z</time>
      </trkpt>
      <trkpt lat="45.26855" lon="5.77733">
        <ele>1197.5</ele>
        <time>2020-09-06T13:38:41.000Z</time>
      </trkpt>
      <trkpt lat="45.26847" lon="5.77748">
        <ele>1197.4</ele>
        <time>2020-09-06T13:38:35.000Z</time>
      </trkpt>
      <trkpt lat="45.26839" lon="5.7776">
        <ele>1196.2</ele>
        <time>2020-09-06T13:38:27.000Z</time>
      </trkpt>
      <trkpt lat="45.26835" lon="5.77771">
        <ele>1196</ele>
        <time>2020-09-06T13:38:21.000Z</time>
      </trkpt>
      <trkpt lat="45.26832" lon="5.77777">
        <ele>1195.3</ele>
        <time>2020-09-06T13:38:17.000Z</time>
      </trkpt>
      <trkpt lat="45.26831" lon="5.77778">
        <ele>1195.1</ele>
        <time>2020-09-06T13:38:16.000Z</time>
      </trkpt>
      <trkpt lat="45.26827" lon="5.7779">
        <ele>1194.5</ele>
        <time>2020-09-06T13:38:10.000Z</time>
      </trkpt>
      <trkpt lat="45.26825" lon="5.77798">
        <ele>1194.3</ele>
        <time>2020-09-06T13:38:06.000Z</time>
      </trkpt>
      <trkpt lat="45.26824" lon="5.77804">
        <ele>1194</ele>
        <time>2020-09-06T13:38:03.000Z</time>
      </trkpt>
      <trkpt lat="45.26822" lon="5.77811">
        <ele>1193.8</ele>
        <time>2020-09-06T13:37:59.000Z</time>
      </trkpt>
      <trkpt lat="45.26822" lon="5.77813">
        <ele>1193.6</ele>
        <time>2020-09-06T13:37:58.000Z</time>
      </trkpt>
      <trkpt lat="45.26821" lon="5.77814">
        <ele>1193.4</ele>
        <time>2020-09-06T13:37:57.000Z</time>
      </trkpt>
      <trkpt lat="45.2682" lon="5.77818">
        <ele>1192.9</ele>
        <time>2020-09-06T13:37:55.000Z</time>
      </trkpt>
      <trkpt lat="45.26818" lon="5.77822">
        <ele>1192.4</ele>
        <time>2020-09-06T13:37:52.000Z</time>
      </trkpt>
      <trkpt lat="45.26817" lon="5.77825">
        <ele>1192</ele>
        <time>2020-09-06T13:37:50.000Z</time>
      </trkpt>
      <trkpt lat="45.26815" lon="5.77827">
        <ele>1191.4</ele>
        <time>2020-09-06T13:37:48.000Z</time>
      </trkpt>
      <trkpt lat="45.26814" lon="5.77836">
        <ele>1191</ele>
        <time>2020-09-06T13:37:44.000Z</time>
      </trkpt>
      <trkpt lat="45.26813" lon="5.77842">
        <ele>1190.1</ele>
        <time>2020-09-06T13:37:42.000Z</time>
      </trkpt>
      <trkpt lat="45.26812" lon="5.77845">
        <ele>1189.6</ele>
        <time>2020-09-06T13:37:40.000Z</time>
      </trkpt>
      <trkpt lat="45.2681" lon="5.77857">
        <ele>1187.7</ele>
        <time>2020-09-06T13:37:34.000Z</time>
      </trkpt>
      <trkpt lat="45.26809" lon="5.7787">
        <ele>1186.6</ele>
        <time>2020-09-06T13:37:27.000Z</time>
      </trkpt>
      <trkpt lat="45.26809" lon="5.77873">
        <ele>1186.6</ele>
        <time>2020-09-06T13:37:25.000Z</time>
      </trkpt>
      <trkpt lat="45.26807" lon="5.77879">
        <ele>1185.5</ele>
        <time>2020-09-06T13:37:21.000Z</time>
      </trkpt>
      <trkpt lat="45.26806" lon="5.77884">
        <ele>1184.6</ele>
        <time>2020-09-06T13:37:18.000Z</time>
      </trkpt>
      <trkpt lat="45.26805" lon="5.77888">
        <ele>1183.9</ele>
        <time>2020-09-06T13:37:15.000Z</time>
      </trkpt>
      <trkpt lat="45.26805" lon="5.77892">
        <ele>1183.6</ele>
        <time>2020-09-06T13:37:12.000Z</time>
      </trkpt>
      <trkpt lat="45.26804" lon="5.77894">
        <ele>1183.4</ele>
        <time>2020-09-06T13:37:11.000Z</time>
      </trkpt>
      <trkpt lat="45.26803" lon="5.77899">
        <ele>1182.8</ele>
        <time>2020-09-06T13:37:08.000Z</time>
      </trkpt>
      <trkpt lat="45.26804" lon="5.77908">
        <ele>1183</ele>
        <time>2020-09-06T13:37:03.000Z</time>
      </trkpt>
      <trkpt lat="45.26805" lon="5.7791">
        <ele>1183</ele>
        <time>2020-09-06T13:37:02.000Z</time>
      </trkpt>
      <trkpt lat="45.26805" lon="5.77914">
        <ele>1183.1</ele>
        <time>2020-09-06T13:37:00.000Z</time>
      </trkpt>
      <trkpt lat="45.26805" lon="5.77924">
        <ele>1180.9</ele>
        <time>2020-09-06T13:36:55.000Z</time>
      </trkpt>
      <trkpt lat="45.26806" lon="5.77929">
        <ele>1179.9</ele>
        <time>2020-09-06T13:36:52.000Z</time>
      </trkpt>
      <trkpt lat="45.26807" lon="5.77932">
        <ele>1179.4</ele>
        <time>2020-09-06T13:36:50.000Z</time>
      </trkpt>
      <trkpt lat="45.26808" lon="5.77938">
        <ele>1178.1</ele>
        <time>2020-09-06T13:36:46.000Z</time>
      </trkpt>
      <trkpt lat="45.26808" lon="5.7794">
        <ele>1177.6</ele>
        <time>2020-09-06T13:36:44.000Z</time>
      </trkpt>
      <trkpt lat="45.26811" lon="5.77945">
        <ele>1177.2</ele>
        <time>2020-09-06T13:36:41.000Z</time>
      </trkpt>
      <trkpt lat="45.26814" lon="5.77951">
        <ele>1176.8</ele>
        <time>2020-09-06T13:36:37.000Z</time>
      </trkpt>
      <trkpt lat="45.26818" lon="5.7796">
        <ele>1175.8</ele>
        <time>2020-09-06T13:36:31.000Z</time>
      </trkpt>
      <trkpt lat="45.26819" lon="5.77963">
        <ele>1175.1</ele>
        <time>2020-09-06T13:36:29.000Z</time>
      </trkpt>
      <trkpt lat="45.26819" lon="5.77965">
        <ele>1174.6</ele>
        <time>2020-09-06T13:36:28.000Z</time>
      </trkpt>
      <trkpt lat="45.26824" lon="5.77975">
        <ele>1173.3</ele>
        <time>2020-09-06T13:36:21.000Z</time>
      </trkpt>
      <trkpt lat="45.26826" lon="5.77981">
        <ele>1171.9</ele>
        <time>2020-09-06T13:36:17.000Z</time>
      </trkpt>
      <trkpt lat="45.26828" lon="5.77988">
        <ele>1170.2</ele>
        <time>2020-09-06T13:36:13.000Z</time>
      </trkpt>
      <trkpt lat="45.26829" lon="5.77992">
        <ele>1169.4</ele>
        <time>2020-09-06T13:36:11.000Z</time>
      </trkpt>
      <trkpt lat="45.26834" lon="5.78001">
        <ele>1167.7</ele>
        <time>2020-09-06T13:36:05.000Z</time>
      </trkpt>
      <trkpt lat="45.26839" lon="5.78006">
        <ele>1166.9</ele>
        <time>2020-09-06T13:36:00.000Z</time>
      </trkpt>
      <trkpt lat="45.26839" lon="5.78007">
        <ele>1166.9</ele>
        <time>2020-09-06T13:35:59.000Z</time>
      </trkpt>
      <trkpt lat="45.26842" lon="5.78008">
        <ele>1166.8</ele>
        <time>2020-09-06T13:35:56.000Z</time>
      </trkpt>
      <trkpt lat="45.26846" lon="5.78009">
        <ele>1167.1</ele>
        <time>2020-09-06T13:35:52.000Z</time>
      </trkpt>
      <trkpt lat="45.2685" lon="5.78009">
        <ele>1167.5</ele>
        <time>2020-09-06T13:35:48.000Z</time>
      </trkpt>
      <trkpt lat="45.26853" lon="5.78008">
        <ele>1168.1</ele>
        <time>2020-09-06T13:35:45.000Z</time>
      </trkpt>
      <trkpt lat="45.26854" lon="5.7801">
        <ele>1167.8</ele>
        <time>2020-09-06T13:35:43.000Z</time>
      </trkpt>
      <trkpt lat="45.26854" lon="5.78009">
        <ele>1167.9</ele>
        <time>2020-09-06T13:35:42.000Z</time>
      </trkpt>
      <trkpt lat="45.26858" lon="5.78007">
        <ele>1169</ele>
        <time>2020-09-06T13:35:39.000Z</time>
      </trkpt>
      <trkpt lat="45.26859" lon="5.78008">
        <ele>1169</ele>
        <time>2020-09-06T13:35:38.000Z</time>
      </trkpt>
      <trkpt lat="45.26861" lon="5.78009">
        <ele>1169</ele>
        <time>2020-09-06T13:35:35.000Z</time>
      </trkpt>
      <trkpt lat="45.26863" lon="5.78007">
        <ele>1169.8</ele>
        <time>2020-09-06T13:35:31.000Z</time>
      </trkpt>
      <trkpt lat="45.26863" lon="5.78007">
        <ele>1169.7</ele>
        <time>2020-09-06T13:35:30.000Z</time>
      </trkpt>
      <trkpt lat="45.26869" lon="5.78005">
        <ele>1170.9</ele>
        <time>2020-09-06T13:35:23.000Z</time>
      </trkpt>
      <trkpt lat="45.26873" lon="5.78009">
        <ele>1170.5</ele>
        <time>2020-09-06T13:35:18.000Z</time>
      </trkpt>
      <trkpt lat="45.26873" lon="5.78012">
        <ele>1169.6</ele>
        <time>2020-09-06T13:35:16.000Z</time>
      </trkpt>
      <trkpt lat="45.26876" lon="5.78015">
        <ele>1169.1</ele>
        <time>2020-09-06T13:35:13.000Z</time>
      </trkpt>
      <trkpt lat="45.26879" lon="5.7802">
        <ele>1168.4</ele>
        <time>2020-09-06T13:35:08.000Z</time>
      </trkpt>
      <trkpt lat="45.26879" lon="5.78021">
        <ele>1168.2</ele>
        <time>2020-09-06T13:35:07.000Z</time>
      </trkpt>
      <trkpt lat="45.26882" lon="5.78024">
        <ele>1167.8</ele>
        <time>2020-09-06T13:35:02.000Z</time>
      </trkpt>
      <trkpt lat="45.26883" lon="5.78024">
        <ele>1167.8</ele>
        <time>2020-09-06T13:35:01.000Z</time>
      </trkpt>
      <trkpt lat="45.26885" lon="5.78026">
        <ele>1167.8</ele>
        <time>2020-09-06T13:34:58.000Z</time>
      </trkpt>
      <trkpt lat="45.26887" lon="5.78028">
        <ele>1167.5</ele>
        <time>2020-09-06T13:34:53.000Z</time>
      </trkpt>
      <trkpt lat="45.26888" lon="5.78029">
        <ele>1167.3</ele>
        <time>2020-09-06T13:34:52.000Z</time>
      </trkpt>
      <trkpt lat="45.26893" lon="5.78028">
        <ele>1168.2</ele>
        <time>2020-09-06T13:34:45.000Z</time>
      </trkpt>
      <trkpt lat="45.26894" lon="5.7803">
        <ele>1167.9</ele>
        <time>2020-09-06T13:34:40.000Z</time>
      </trkpt>
      <trkpt lat="45.26896" lon="5.7803">
        <ele>1168.1</ele>
        <time>2020-09-06T13:34:37.000Z</time>
      </trkpt>
      <trkpt lat="45.26897" lon="5.78036">
        <ele>1166.8</ele>
        <time>2020-09-06T13:34:32.000Z</time>
      </trkpt>
      <trkpt lat="45.26897" lon="5.7804">
        <ele>1166</ele>
        <time>2020-09-06T13:34:29.000Z</time>
      </trkpt>
      <trkpt lat="45.26897" lon="5.78042">
        <ele>1165.4</ele>
        <time>2020-09-06T13:34:26.000Z</time>
      </trkpt>
      <trkpt lat="45.26896" lon="5.78049">
        <ele>1163.7</ele>
        <time>2020-09-06T13:34:20.000Z</time>
      </trkpt>
      <trkpt lat="45.26897" lon="5.78058">
        <ele>1161.8</ele>
        <time>2020-09-06T13:34:15.000Z</time>
      </trkpt>
      <trkpt lat="45.26896" lon="5.7806">
        <ele>1161</ele>
        <time>2020-09-06T13:34:13.000Z</time>
      </trkpt>
      <trkpt lat="45.26895" lon="5.78066">
        <ele>1159.2</ele>
        <time>2020-09-06T13:34:08.000Z</time>
      </trkpt>
      <trkpt lat="45.26895" lon="5.78067">
        <ele>1159</ele>
        <time>2020-09-06T13:34:07.000Z</time>
      </trkpt>
      <trkpt lat="45.26894" lon="5.78073">
        <ele>1157.5</ele>
        <time>2020-09-06T13:34:02.000Z</time>
      </trkpt>
      <trkpt lat="45.26893" lon="5.78074">
        <ele>1156.9</ele>
        <time>2020-09-06T13:34:00.000Z</time>
      </trkpt>
      <trkpt lat="45.26888" lon="5.78079">
        <ele>1155</ele>
        <time>2020-09-06T13:33:54.000Z</time>
      </trkpt>
      <trkpt lat="45.26886" lon="5.78084">
        <ele>1153.4</ele>
        <time>2020-09-06T13:33:48.000Z</time>
      </trkpt>
      <trkpt lat="45.26885" lon="5.78087">
        <ele>1152.9</ele>
        <time>2020-09-06T13:33:46.000Z</time>
      </trkpt>
      <trkpt lat="45.26883" lon="5.78094">
        <ele>1151.7</ele>
        <time>2020-09-06T13:33:40.000Z</time>
      </trkpt>
      <trkpt lat="45.26883" lon="5.78095">
        <ele>1151.6</ele>
        <time>2020-09-06T13:33:39.000Z</time>
      </trkpt>
      <trkpt lat="45.26883" lon="5.78101">
        <ele>1150.9</ele>
        <time>2020-09-06T13:33:35.000Z</time>
      </trkpt>
      <trkpt lat="45.26881" lon="5.78104">
        <ele>1150.2</ele>
        <time>2020-09-06T13:33:31.000Z</time>
      </trkpt>
      <trkpt lat="45.26881" lon="5.78105">
        <ele>1150</ele>
        <time>2020-09-06T13:33:30.000Z</time>
      </trkpt>
      <trkpt lat="45.26879" lon="5.78111">
        <ele>1148.8</ele>
        <time>2020-09-06T13:33:25.000Z</time>
      </trkpt>
      <trkpt lat="45.26878" lon="5.78113">
        <ele>1148.3</ele>
        <time>2020-09-06T13:33:22.000Z</time>
      </trkpt>
      <trkpt lat="45.26877" lon="5.78115">
        <ele>1148</ele>
        <time>2020-09-06T13:33:20.000Z</time>
      </trkpt>
      <trkpt lat="45.26875" lon="5.7812">
        <ele>1146.9</ele>
        <time>2020-09-06T13:33:15.000Z</time>
      </trkpt>
      <trkpt lat="45.26875" lon="5.7812">
        <ele>1146.7</ele>
        <time>2020-09-06T13:33:14.000Z</time>
      </trkpt>
      <trkpt lat="45.26872" lon="5.78127">
        <ele>1145.3</ele>
        <time>2020-09-06T13:33:06.000Z</time>
      </trkpt>
      <trkpt lat="45.26873" lon="5.78132">
        <ele>1145</ele>
        <time>2020-09-06T13:33:01.000Z</time>
      </trkpt>
      <trkpt lat="45.26873" lon="5.78137">
        <ele>1144.4</ele>
        <time>2020-09-06T13:32:54.000Z</time>
      </trkpt>
      <trkpt lat="45.26872" lon="5.78137">
        <ele>1144</ele>
        <time>2020-09-06T13:32:49.000Z</time>
      </trkpt>
      <trkpt lat="45.2687" lon="5.78139">
        <ele>1143.2</ele>
        <time>2020-09-06T13:32:46.000Z</time>
      </trkpt>
      <trkpt lat="45.26867" lon="5.78139">
        <ele>1142.5</ele>
        <time>2020-09-06T13:32:43.000Z</time>
      </trkpt>
      <trkpt lat="45.26862" lon="5.78139">
        <ele>1141.3</ele>
        <time>2020-09-06T13:32:39.000Z</time>
      </trkpt>
      <trkpt lat="45.26862" lon="5.78139">
        <ele>1141.1</ele>
        <time>2020-09-06T13:32:38.000Z</time>
      </trkpt>
      <trkpt lat="45.26856" lon="5.78141">
        <ele>1139.4</ele>
        <time>2020-09-06T13:32:31.000Z</time>
      </trkpt>
      <trkpt lat="45.26853" lon="5.78141">
        <ele>1138.5</ele>
        <time>2020-09-06T13:32:28.000Z</time>
      </trkpt>
      <trkpt lat="45.26849" lon="5.78144">
        <ele>1137.1</ele>
        <time>2020-09-06T13:32:24.000Z</time>
      </trkpt>
      <trkpt lat="45.26847" lon="5.78145">
        <ele>1136.6</ele>
        <time>2020-09-06T13:32:23.000Z</time>
      </trkpt>
      <trkpt lat="45.26844" lon="5.78147">
        <ele>1135.3</ele>
        <time>2020-09-06T13:32:20.000Z</time>
      </trkpt>
      <trkpt lat="45.26842" lon="5.78149">
        <ele>1134.4</ele>
        <time>2020-09-06T13:32:17.000Z</time>
      </trkpt>
      <trkpt lat="45.26841" lon="5.78149">
        <ele>1134.2</ele>
        <time>2020-09-06T13:32:16.000Z</time>
      </trkpt>
      <trkpt lat="45.26837" lon="5.78151">
        <ele>1132.7</ele>
        <time>2020-09-06T13:32:11.000Z</time>
      </trkpt>
      <trkpt lat="45.26835" lon="5.78153">
        <ele>1131.9</ele>
        <time>2020-09-06T13:32:09.000Z</time>
      </trkpt>
      <trkpt lat="45.26832" lon="5.78156">
        <ele>1130.5</ele>
        <time>2020-09-06T13:32:06.000Z</time>
      </trkpt>
      <trkpt lat="45.26825" lon="5.7816">
        <ele>1128.1</ele>
        <time>2020-09-06T13:32:00.000Z</time>
      </trkpt>
      <trkpt lat="45.26824" lon="5.78161">
        <ele>1127.7</ele>
        <time>2020-09-06T13:31:59.000Z</time>
      </trkpt>
      <trkpt lat="45.26818" lon="5.78164">
        <ele>1125.8</ele>
        <time>2020-09-06T13:31:54.000Z</time>
      </trkpt>
      <trkpt lat="45.26815" lon="5.78166">
        <ele>1124.8</ele>
        <time>2020-09-06T13:31:51.000Z</time>
      </trkpt>
      <trkpt lat="45.26814" lon="5.78167">
        <ele>1124.4</ele>
        <time>2020-09-06T13:31:50.000Z</time>
      </trkpt>
      <trkpt lat="45.26811" lon="5.78168">
        <ele>1123.5</ele>
        <time>2020-09-06T13:31:47.000Z</time>
      </trkpt>
      <trkpt lat="45.26807" lon="5.7817">
        <ele>1122.5</ele>
        <time>2020-09-06T13:31:44.000Z</time>
      </trkpt>
      <trkpt lat="45.26803" lon="5.78171">
        <ele>1121.5</ele>
        <time>2020-09-06T13:31:41.000Z</time>
      </trkpt>
      <trkpt lat="45.26798" lon="5.78174">
        <ele>1120.4</ele>
        <time>2020-09-06T13:31:37.000Z</time>
      </trkpt>
      <trkpt lat="45.26796" lon="5.78174">
        <ele>1119.8</ele>
        <time>2020-09-06T13:31:35.000Z</time>
      </trkpt>
      <trkpt lat="45.26791" lon="5.78173">
        <ele>1118.7</ele>
        <time>2020-09-06T13:31:31.000Z</time>
      </trkpt>
      <trkpt lat="45.26789" lon="5.78172">
        <ele>1118.1</ele>
        <time>2020-09-06T13:31:29.000Z</time>
      </trkpt>
      <trkpt lat="45.26784" lon="5.78172">
        <ele>1116.9</ele>
        <time>2020-09-06T13:31:25.000Z</time>
      </trkpt>
      <trkpt lat="45.26779" lon="5.78172">
        <ele>1115.8</ele>
        <time>2020-09-06T13:31:22.000Z</time>
      </trkpt>
      <trkpt lat="45.26774" lon="5.78177">
        <ele>1114.6</ele>
        <time>2020-09-06T13:31:18.000Z</time>
      </trkpt>
      <trkpt lat="45.26771" lon="5.7818">
        <ele>1113.7</ele>
        <time>2020-09-06T13:31:15.000Z</time>
      </trkpt>
      <trkpt lat="45.26767" lon="5.78183">
        <ele>1112.8</ele>
        <time>2020-09-06T13:31:12.000Z</time>
      </trkpt>
      <trkpt lat="45.26762" lon="5.78187">
        <ele>1111.5</ele>
        <time>2020-09-06T13:31:08.000Z</time>
      </trkpt>
      <trkpt lat="45.2676" lon="5.78188">
        <ele>1111.2</ele>
        <time>2020-09-06T13:31:07.000Z</time>
      </trkpt>
      <trkpt lat="45.26753" lon="5.78192">
        <ele>1109.3</ele>
        <time>2020-09-06T13:31:02.000Z</time>
      </trkpt>
      <trkpt lat="45.2675" lon="5.78194">
        <ele>1108.8</ele>
        <time>2020-09-06T13:31:00.000Z</time>
      </trkpt>
      <trkpt lat="45.26745" lon="5.78196">
        <ele>1107.7</ele>
        <time>2020-09-06T13:30:55.000Z</time>
      </trkpt>
      <trkpt lat="45.26744" lon="5.78197">
        <ele>1107.4</ele>
        <time>2020-09-06T13:30:54.000Z</time>
      </trkpt>
      <trkpt lat="45.26739" lon="5.78205">
        <ele>1106.4</ele>
        <time>2020-09-06T13:30:50.000Z</time>
      </trkpt>
      <trkpt lat="45.26737" lon="5.78207">
        <ele>1106.2</ele>
        <time>2020-09-06T13:30:49.000Z</time>
      </trkpt>
      <trkpt lat="45.26739" lon="5.78219">
        <ele>1106.4</ele>
        <time>2020-09-06T13:30:44.000Z</time>
      </trkpt>
      <trkpt lat="45.26742" lon="5.78239">
        <ele>1106.8</ele>
        <time>2020-09-06T13:30:36.000Z</time>
      </trkpt>
      <trkpt lat="45.26741" lon="5.78247">
        <ele>1106.5</ele>
        <time>2020-09-06T13:30:33.000Z</time>
      </trkpt>
      <trkpt lat="45.26738" lon="5.78254">
        <ele>1105.9</ele>
        <time>2020-09-06T13:30:30.000Z</time>
      </trkpt>
      <trkpt lat="45.26732" lon="5.78265">
        <ele>1104.9</ele>
        <time>2020-09-06T13:30:24.000Z</time>
      </trkpt>
      <trkpt lat="45.26731" lon="5.78269">
        <ele>1104.7</ele>
        <time>2020-09-06T13:30:22.000Z</time>
      </trkpt>
      <trkpt lat="45.26724" lon="5.78283">
        <ele>1103.5</ele>
        <time>2020-09-06T13:30:15.000Z</time>
      </trkpt>
      <trkpt lat="45.26723" lon="5.78286">
        <ele>1103.4</ele>
        <time>2020-09-06T13:30:13.000Z</time>
      </trkpt>
      <trkpt lat="45.2672" lon="5.78292">
        <ele>1102.9</ele>
        <time>2020-09-06T13:30:09.000Z</time>
      </trkpt>
      <trkpt lat="45.26716" lon="5.78295">
        <ele>1102.3</ele>
        <time>2020-09-06T13:30:06.000Z</time>
      </trkpt>
      <trkpt lat="45.26715" lon="5.78296">
        <ele>1102.1</ele>
        <time>2020-09-06T13:30:05.000Z</time>
      </trkpt>
      <trkpt lat="45.26707" lon="5.78297">
        <ele>1100.8</ele>
        <time>2020-09-06T13:30:00.000Z</time>
      </trkpt>
      <trkpt lat="45.26705" lon="5.78297">
        <ele>1100.6</ele>
        <time>2020-09-06T13:29:59.000Z</time>
      </trkpt>
      <trkpt lat="45.267" lon="5.78294">
        <ele>1099.7</ele>
        <time>2020-09-06T13:29:56.000Z</time>
      </trkpt>
      <trkpt lat="45.26692" lon="5.78292">
        <ele>1098.3</ele>
        <time>2020-09-06T13:29:51.000Z</time>
      </trkpt>
      <trkpt lat="45.26691" lon="5.78292">
        <ele>1098</ele>
        <time>2020-09-06T13:29:50.000Z</time>
      </trkpt>
      <trkpt lat="45.26684" lon="5.78303">
        <ele>1097.1</ele>
        <time>2020-09-06T13:29:44.000Z</time>
      </trkpt>
      <trkpt lat="45.26682" lon="5.78305">
        <ele>1096.9</ele>
        <time>2020-09-06T13:29:43.000Z</time>
      </trkpt>
      <trkpt lat="45.26671" lon="5.78322">
        <ele>1095.4</ele>
        <time>2020-09-06T13:29:35.000Z</time>
      </trkpt>
      <trkpt lat="45.26661" lon="5.78327">
        <ele>1094.6</ele>
        <time>2020-09-06T13:29:29.000Z</time>
      </trkpt>
      <trkpt lat="45.26659" lon="5.78327">
        <ele>1094.5</ele>
        <time>2020-09-06T13:29:27.000Z</time>
      </trkpt>
      <trkpt lat="45.26656" lon="5.78328">
        <ele>1094.4</ele>
        <time>2020-09-06T13:29:25.000Z</time>
      </trkpt>
      <trkpt lat="45.26654" lon="5.78328">
        <ele>1094.3</ele>
        <time>2020-09-06T13:29:24.000Z</time>
      </trkpt>
      <trkpt lat="45.26648" lon="5.78329">
        <ele>1094.1</ele>
        <time>2020-09-06T13:29:22.000Z</time>
      </trkpt>
      <trkpt lat="45.26645" lon="5.78341">
        <ele>1095.9</ele>
        <time>2020-09-06T13:29:20.000Z</time>
      </trkpt>
      <trkpt lat="45.26646" lon="5.78348">
        <ele>1097.6</ele>
        <time>2020-09-06T13:29:19.000Z</time>
      </trkpt>
      <trkpt lat="45.26648" lon="5.78355">
        <ele>1099.1</ele>
        <time>2020-09-06T13:29:18.000Z</time>
      </trkpt>
      <trkpt lat="45.26656" lon="5.78367">
        <ele>1101.4</ele>
        <time>2020-09-06T13:29:16.000Z</time>
      </trkpt>
      <trkpt lat="45.26669" lon="5.78377">
        <ele>1103.1</ele>
        <time>2020-09-06T13:29:13.000Z</time>
      </trkpt>
      <trkpt lat="45.26673" lon="5.78379">
        <ele>1103.7</ele>
        <time>2020-09-06T13:29:12.000Z</time>
      </trkpt>
      <trkpt lat="45.26679" lon="5.78382">
        <ele>1104.7</ele>
        <time>2020-09-06T13:29:10.000Z</time>
      </trkpt>
      <trkpt lat="45.26686" lon="5.78384">
        <ele>1105.7</ele>
        <time>2020-09-06T13:29:07.000Z</time>
      </trkpt>
      <trkpt lat="45.26689" lon="5.78385">
        <ele>1106.2</ele>
        <time>2020-09-06T13:29:06.000Z</time>
      </trkpt>
      <trkpt lat="45.26697" lon="5.78386">
        <ele>1106.9</ele>
        <time>2020-09-06T13:29:04.000Z</time>
      </trkpt>
      <trkpt lat="45.26704" lon="5.78388">
        <ele>1107.7</ele>
        <time>2020-09-06T13:29:03.000Z</time>
      </trkpt>
      <trkpt lat="45.26712" lon="5.78391">
        <ele>1108.7</ele>
        <time>2020-09-06T13:29:02.000Z</time>
      </trkpt>
      <trkpt lat="45.26727" lon="5.78396">
        <ele>1110.2</ele>
        <time>2020-09-06T13:29:00.000Z</time>
      </trkpt>
      <trkpt lat="45.26733" lon="5.78398">
        <ele>1110.8</ele>
        <time>2020-09-06T13:28:59.000Z</time>
      </trkpt>
      <trkpt lat="45.26743" lon="5.78405">
        <ele>1112</ele>
        <time>2020-09-06T13:28:57.000Z</time>
      </trkpt>
      <trkpt lat="45.26749" lon="5.78415">
        <ele>1112.9</ele>
        <time>2020-09-06T13:28:55.000Z</time>
      </trkpt>
      <trkpt lat="45.26751" lon="5.78423">
        <ele>1114.1</ele>
        <time>2020-09-06T13:28:54.000Z</time>
      </trkpt>
      <trkpt lat="45.26752" lon="5.78432">
        <ele>1115.6</ele>
        <time>2020-09-06T13:28:53.000Z</time>
      </trkpt>
      <trkpt lat="45.26751" lon="5.78441">
        <ele>1116.9</ele>
        <time>2020-09-06T13:28:52.000Z</time>
      </trkpt>
      <trkpt lat="45.26746" lon="5.78448">
        <ele>1118.1</ele>
        <time>2020-09-06T13:28:51.000Z</time>
      </trkpt>
      <trkpt lat="45.26732" lon="5.78464">
        <ele>1121.5</ele>
        <time>2020-09-06T13:28:49.000Z</time>
      </trkpt>
      <trkpt lat="45.26718" lon="5.78472">
        <ele>1124.2</ele>
        <time>2020-09-06T13:28:48.000Z</time>
      </trkpt>
      <trkpt lat="45.26699" lon="5.78477">
        <ele>1127.3</ele>
        <time>2020-09-06T13:28:46.000Z</time>
      </trkpt>
      <trkpt lat="45.26689" lon="5.78479">
        <ele>1128.8</ele>
        <time>2020-09-06T13:28:45.000Z</time>
      </trkpt>
      <trkpt lat="45.26679" lon="5.7848">
        <ele>1130.1</ele>
        <time>2020-09-06T13:28:44.000Z</time>
      </trkpt>
      <trkpt lat="45.26667" lon="5.7848">
        <ele>1131.1</ele>
        <time>2020-09-06T13:28:43.000Z</time>
      </trkpt>
      <trkpt lat="45.26658" lon="5.7848">
        <ele>1131.6</ele>
        <time>2020-09-06T13:28:42.000Z</time>
      </trkpt>
      <trkpt lat="45.26649" lon="5.78481">
        <ele>1132.1</ele>
        <time>2020-09-06T13:28:41.000Z</time>
      </trkpt>
      <trkpt lat="45.26639" lon="5.7848">
        <ele>1132.4</ele>
        <time>2020-09-06T13:28:40.000Z</time>
      </trkpt>
      <trkpt lat="45.2663" lon="5.78479">
        <ele>1132.5</ele>
        <time>2020-09-06T13:28:39.000Z</time>
      </trkpt>
      <trkpt lat="45.26621" lon="5.78478">
        <ele>1132.4</ele>
        <time>2020-09-06T13:28:38.000Z</time>
      </trkpt>
      <trkpt lat="45.26614" lon="5.78476">
        <ele>1132.2</ele>
        <time>2020-09-06T13:28:37.000Z</time>
      </trkpt>
      <trkpt lat="45.26607" lon="5.78472">
        <ele>1131.8</ele>
        <time>2020-09-06T13:28:36.000Z</time>
      </trkpt>
      <trkpt lat="45.26593" lon="5.78468">
        <ele>1131.7</ele>
        <time>2020-09-06T13:28:34.000Z</time>
      </trkpt>
      <trkpt lat="45.26584" lon="5.78465">
        <ele>1131.6</ele>
        <time>2020-09-06T13:28:33.000Z</time>
      </trkpt>
      <trkpt lat="45.26576" lon="5.78463">
        <ele>1130.7</ele>
        <time>2020-09-06T13:28:32.000Z</time>
      </trkpt>
      <trkpt lat="45.26569" lon="5.78462">
        <ele>1130.1</ele>
        <time>2020-09-06T13:28:31.000Z</time>
      </trkpt>
      <trkpt lat="45.26564" lon="5.78461">
        <ele>1129.6</ele>
        <time>2020-09-06T13:28:30.000Z</time>
      </trkpt>
      <trkpt lat="45.26561" lon="5.78464">
        <ele>1129.8</ele>
        <time>2020-09-06T13:28:29.000Z</time>
      </trkpt>
      <trkpt lat="45.26557" lon="5.78468">
        <ele>1130</ele>
        <time>2020-09-06T13:28:28.000Z</time>
      </trkpt>
      <trkpt lat="45.26553" lon="5.78474">
        <ele>1130.4</ele>
        <time>2020-09-06T13:28:27.000Z</time>
      </trkpt>
      <trkpt lat="45.26549" lon="5.7848">
        <ele>1130.9</ele>
        <time>2020-09-06T13:28:26.000Z</time>
      </trkpt>
      <trkpt lat="45.26546" lon="5.78487">
        <ele>1131.4</ele>
        <time>2020-09-06T13:28:25.000Z</time>
      </trkpt>
      <trkpt lat="45.26543" lon="5.78494">
        <ele>1132</ele>
        <time>2020-09-06T13:28:24.000Z</time>
      </trkpt>
      <trkpt lat="45.26542" lon="5.78502">
        <ele>1132.7</ele>
        <time>2020-09-06T13:28:23.000Z</time>
      </trkpt>
      <trkpt lat="45.26541" lon="5.78523">
        <ele>1134</ele>
        <time>2020-09-06T13:28:21.000Z</time>
      </trkpt>
      <trkpt lat="45.2654" lon="5.78549">
        <ele>1135.6</ele>
        <time>2020-09-06T13:28:19.000Z</time>
      </trkpt>
      <trkpt lat="45.26539" lon="5.78576">
        <ele>1137.5</ele>
        <time>2020-09-06T13:28:17.000Z</time>
      </trkpt>
      <trkpt lat="45.2654" lon="5.7859">
        <ele>1138.6</ele>
        <time>2020-09-06T13:28:16.000Z</time>
      </trkpt>
      <trkpt lat="45.26543" lon="5.78604">
        <ele>1139.7</ele>
        <time>2020-09-06T13:28:15.000Z</time>
      </trkpt>
      <trkpt lat="45.2655" lon="5.78629">
        <ele>1142.4</ele>
        <time>2020-09-06T13:28:13.000Z</time>
      </trkpt>
      <trkpt lat="45.26554" lon="5.78641">
        <ele>1143.9</ele>
        <time>2020-09-06T13:28:12.000Z</time>
      </trkpt>
      <trkpt lat="45.26558" lon="5.78654">
        <ele>1145.3</ele>
        <time>2020-09-06T13:28:11.000Z</time>
      </trkpt>
      <trkpt lat="45.26562" lon="5.78667">
        <ele>1146.6</ele>
        <time>2020-09-06T13:28:10.000Z</time>
      </trkpt>
      <trkpt lat="45.26565" lon="5.78679">
        <ele>1147.1</ele>
        <time>2020-09-06T13:28:09.000Z</time>
      </trkpt>
      <trkpt lat="45.26575" lon="5.78704">
        <ele>1148.7</ele>
        <time>2020-09-06T13:28:07.000Z</time>
      </trkpt>
      <trkpt lat="45.26579" lon="5.78717">
        <ele>1149.5</ele>
        <time>2020-09-06T13:28:06.000Z</time>
      </trkpt>
      <trkpt lat="45.26584" lon="5.78729">
        <ele>1150.3</ele>
        <time>2020-09-06T13:28:05.000Z</time>
      </trkpt>
      <trkpt lat="45.26589" lon="5.78741">
        <ele>1150.7</ele>
        <time>2020-09-06T13:28:04.000Z</time>
      </trkpt>
      <trkpt lat="45.26599" lon="5.78763">
        <ele>1151.2</ele>
        <time>2020-09-06T13:28:02.000Z</time>
      </trkpt>
      <trkpt lat="45.26609" lon="5.78782">
        <ele>1152</ele>
        <time>2020-09-06T13:28:00.000Z</time>
      </trkpt>
      <trkpt lat="45.26618" lon="5.78798">
        <ele>1153.3</ele>
        <time>2020-09-06T13:27:58.000Z</time>
      </trkpt>
      <trkpt lat="45.26623" lon="5.78816">
        <ele>1154.2</ele>
        <time>2020-09-06T13:27:56.000Z</time>
      </trkpt>
      <trkpt lat="45.26628" lon="5.78833">
        <ele>1155.3</ele>
        <time>2020-09-06T13:27:54.000Z</time>
      </trkpt>
      <trkpt lat="45.26632" lon="5.78841">
        <ele>1156.2</ele>
        <time>2020-09-06T13:27:53.000Z</time>
      </trkpt>
      <trkpt lat="45.26635" lon="5.78848">
        <ele>1157.2</ele>
        <time>2020-09-06T13:27:52.000Z</time>
      </trkpt>
      <trkpt lat="45.2664" lon="5.78862">
        <ele>1158.6</ele>
        <time>2020-09-06T13:27:50.000Z</time>
      </trkpt>
      <trkpt lat="45.26641" lon="5.78869">
        <ele>1159.2</ele>
        <time>2020-09-06T13:27:49.000Z</time>
      </trkpt>
      <trkpt lat="45.26645" lon="5.78887">
        <ele>1160.4</ele>
        <time>2020-09-06T13:27:45.000Z</time>
      </trkpt>
      <trkpt lat="45.26646" lon="5.78891">
        <ele>1160.7</ele>
        <time>2020-09-06T13:27:44.000Z</time>
      </trkpt>
      <trkpt lat="45.26647" lon="5.78896">
        <ele>1161</ele>
        <time>2020-09-06T13:27:43.000Z</time>
      </trkpt>
      <trkpt lat="45.26648" lon="5.78902">
        <ele>1161.4</ele>
        <time>2020-09-06T13:27:42.000Z</time>
      </trkpt>
      <trkpt lat="45.26655" lon="5.78922">
        <ele>1163.2</ele>
        <time>2020-09-06T13:27:39.000Z</time>
      </trkpt>
      <trkpt lat="45.2666" lon="5.78932">
        <ele>1164.5</ele>
        <time>2020-09-06T13:27:37.000Z</time>
      </trkpt>
      <trkpt lat="45.26662" lon="5.78943">
        <ele>1165.4</ele>
        <time>2020-09-06T13:27:35.000Z</time>
      </trkpt>
      <trkpt lat="45.26669" lon="5.7896">
        <ele>1167.5</ele>
        <time>2020-09-06T13:27:32.000Z</time>
      </trkpt>
      <trkpt lat="45.26676" lon="5.78978">
        <ele>1169.6</ele>
        <time>2020-09-06T13:27:30.000Z</time>
      </trkpt>
      <trkpt lat="45.26683" lon="5.79">
        <ele>1171.9</ele>
        <time>2020-09-06T13:27:28.000Z</time>
      </trkpt>
      <trkpt lat="45.26687" lon="5.79011">
        <ele>1173.2</ele>
        <time>2020-09-06T13:27:27.000Z</time>
      </trkpt>
      <trkpt lat="45.2669" lon="5.79023">
        <ele>1174.5</ele>
        <time>2020-09-06T13:27:26.000Z</time>
      </trkpt>
      <trkpt lat="45.26693" lon="5.79034">
        <ele>1175.8</ele>
        <time>2020-09-06T13:27:25.000Z</time>
      </trkpt>
      <trkpt lat="45.26695" lon="5.79044">
        <ele>1177</ele>
        <time>2020-09-06T13:27:24.000Z</time>
      </trkpt>
      <trkpt lat="45.26703" lon="5.79063">
        <ele>1180.4</ele>
        <time>2020-09-06T13:27:22.000Z</time>
      </trkpt>
      <trkpt lat="45.26709" lon="5.79081">
        <ele>1183.6</ele>
        <time>2020-09-06T13:27:20.000Z</time>
      </trkpt>
      <trkpt lat="45.26711" lon="5.7909">
        <ele>1184</ele>
        <time>2020-09-06T13:27:19.000Z</time>
      </trkpt>
      <trkpt lat="45.26714" lon="5.79097">
        <ele>1184.5</ele>
        <time>2020-09-06T13:27:18.000Z</time>
      </trkpt>
      <trkpt lat="45.26719" lon="5.79113">
        <ele>1185</ele>
        <time>2020-09-06T13:27:16.000Z</time>
      </trkpt>
      <trkpt lat="45.26723" lon="5.79128">
        <ele>1185.3</ele>
        <time>2020-09-06T13:27:14.000Z</time>
      </trkpt>
      <trkpt lat="45.26732" lon="5.79148">
        <ele>1187.1</ele>
        <time>2020-09-06T13:27:11.000Z</time>
      </trkpt>
      <trkpt lat="45.26738" lon="5.7916">
        <ele>1188.4</ele>
        <time>2020-09-06T13:27:09.000Z</time>
      </trkpt>
      <trkpt lat="45.26747" lon="5.79187">
        <ele>1189</ele>
        <time>2020-09-06T13:27:05.000Z</time>
      </trkpt>
      <trkpt lat="45.2675" lon="5.79195">
        <ele>1189.2</ele>
        <time>2020-09-06T13:27:04.000Z</time>
      </trkpt>
      <trkpt lat="45.26756" lon="5.79212">
        <ele>1189.9</ele>
        <time>2020-09-06T13:27:02.000Z</time>
      </trkpt>
      <trkpt lat="45.26758" lon="5.79221">
        <ele>1190</ele>
        <time>2020-09-06T13:27:01.000Z</time>
      </trkpt>
      <trkpt lat="45.26762" lon="5.79231">
        <ele>1190.6</ele>
        <time>2020-09-06T13:27:00.000Z</time>
      </trkpt>
      <trkpt lat="45.26769" lon="5.79251">
        <ele>1191.3</ele>
        <time>2020-09-06T13:26:58.000Z</time>
      </trkpt>
      <trkpt lat="45.26774" lon="5.7926">
        <ele>1190.6</ele>
        <time>2020-09-06T13:26:57.000Z</time>
      </trkpt>
      <trkpt lat="45.26779" lon="5.7927">
        <ele>1190.2</ele>
        <time>2020-09-06T13:26:56.000Z</time>
      </trkpt>
      <trkpt lat="45.26783" lon="5.79282">
        <ele>1189.3</ele>
        <time>2020-09-06T13:26:55.000Z</time>
      </trkpt>
      <trkpt lat="45.26788" lon="5.7929">
        <ele>1189.3</ele>
        <time>2020-09-06T13:26:54.000Z</time>
      </trkpt>
      <trkpt lat="45.26793" lon="5.79298">
        <ele>1189.9</ele>
        <time>2020-09-06T13:26:53.000Z</time>
      </trkpt>
      <trkpt lat="45.26799" lon="5.79305">
        <ele>1190.8</ele>
        <time>2020-09-06T13:26:52.000Z</time>
      </trkpt>
      <trkpt lat="45.26811" lon="5.7932">
        <ele>1192.9</ele>
        <time>2020-09-06T13:26:50.000Z</time>
      </trkpt>
      <trkpt lat="45.26822" lon="5.79334">
        <ele>1195.7</ele>
        <time>2020-09-06T13:26:48.000Z</time>
      </trkpt>
      <trkpt lat="45.26844" lon="5.79353">
        <ele>1197.8</ele>
        <time>2020-09-06T13:26:44.000Z</time>
      </trkpt>
      <trkpt lat="45.26867" lon="5.79363">
        <ele>1199.1</ele>
        <time>2020-09-06T13:26:39.000Z</time>
      </trkpt>
      <trkpt lat="45.26867" lon="5.79363">
        <ele>1199.1</ele>
      </trkpt>
      <trkpt lat="45.26871" lon="5.79368">
        <ele>1198.8</ele>
      </trkpt>
      <trkpt lat="45.26862" lon="5.79366">
        <ele>1197.6</ele>
      </trkpt>
      <trkpt lat="45.26862" lon="5.79366">
        <ele>1197.6</ele>
        <time>2020-09-06T11:52:49.000Z</time>
      </trkpt>
      <trkpt lat="45.2686" lon="5.79366">
        <ele>1197.1</ele>
        <time>2020-09-06T11:52:50.000Z</time>
      </trkpt>
      <trkpt lat="45.26856" lon="5.79368">
        <ele>1196.1</ele>
        <time>2020-09-06T11:52:53.000Z</time>
      </trkpt>
      <trkpt lat="45.26854" lon="5.79369">
        <ele>1195.7</ele>
        <time>2020-09-06T11:52:55.000Z</time>
      </trkpt>
      <trkpt lat="45.26854" lon="5.7937">
        <ele>1195.2</ele>
        <time>2020-09-06T11:52:57.000Z</time>
      </trkpt>
      <trkpt lat="45.26855" lon="5.79374">
        <ele>1194.6</ele>
        <time>2020-09-06T11:52:59.000Z</time>
      </trkpt>
      <trkpt lat="45.26856" lon="5.79375">
        <ele>1194.7</ele>
        <time>2020-09-06T11:53:01.000Z</time>
      </trkpt>
      <trkpt lat="45.26858" lon="5.79374">
        <ele>1195</ele>
        <time>2020-09-06T11:53:03.000Z</time>
      </trkpt>
      <trkpt lat="45.26858" lon="5.79374">
        <ele>1195.3</ele>
        <time>2020-09-06T11:53:12.000Z</time>
      </trkpt>
      <trkpt lat="45.26859" lon="5.79376">
        <ele>1194.9</ele>
        <time>2020-09-06T11:53:14.000Z</time>
      </trkpt>
      <trkpt lat="45.26859" lon="5.7938">
        <ele>1194.1</ele>
        <time>2020-09-06T11:53:18.000Z</time>
      </trkpt>
      <trkpt lat="45.26858" lon="5.79379">
        <ele>1194</ele>
        <time>2020-09-06T11:53:24.000Z</time>
      </trkpt>
      <trkpt lat="45.2686" lon="5.79377">
        <ele>1194.8</ele>
        <time>2020-09-06T11:53:29.000Z</time>
      </trkpt>
      <trkpt lat="45.26865" lon="5.79382">
        <ele>1194.7</ele>
        <time>2020-09-06T11:53:34.000Z</time>
      </trkpt>
      <trkpt lat="45.26866" lon="5.79385">
        <ele>1194.2</ele>
        <time>2020-09-06T11:53:37.000Z</time>
      </trkpt>
      <trkpt lat="45.26866" lon="5.79387">
        <ele>1193.7</ele>
        <time>2020-09-06T11:53:39.000Z</time>
      </trkpt>
      <trkpt lat="45.26866" lon="5.79388">
        <ele>1193.5</ele>
        <time>2020-09-06T11:53:40.000Z</time>
      </trkpt>
      <trkpt lat="45.26866" lon="5.79389">
        <ele>1193.5</ele>
        <time>2020-09-06T11:53:41.000Z</time>
      </trkpt>
      <trkpt lat="45.26869" lon="5.79389">
        <ele>1194</ele>
        <time>2020-09-06T11:53:45.000Z</time>
      </trkpt>
      <trkpt lat="45.26871" lon="5.79383">
        <ele>1195.6</ele>
        <time>2020-09-06T11:53:49.000Z</time>
      </trkpt>
      <trkpt lat="45.26874" lon="5.79383">
        <ele>1196.2</ele>
        <time>2020-09-06T11:53:51.000Z</time>
      </trkpt>
      <trkpt lat="45.26876" lon="5.79383">
        <ele>1196.5</ele>
        <time>2020-09-06T11:53:53.000Z</time>
      </trkpt>
      <trkpt lat="45.2688" lon="5.79386">
        <ele>1196.8</ele>
        <time>2020-09-06T11:53:57.000Z</time>
      </trkpt>
      <trkpt lat="45.26881" lon="5.79387">
        <ele>1196.8</ele>
        <time>2020-09-06T11:53:58.000Z</time>
      </trkpt>
      <trkpt lat="45.26883" lon="5.79389">
        <ele>1196.7</ele>
        <time>2020-09-06T11:54:00.000Z</time>
      </trkpt>
      <trkpt lat="45.26886" lon="5.79392">
        <ele>1196.7</ele>
        <time>2020-09-06T11:54:03.000Z</time>
      </trkpt>
      <trkpt lat="45.26888" lon="5.79394">
        <ele>1196.8</ele>
        <time>2020-09-06T11:54:05.000Z</time>
      </trkpt>
      <trkpt lat="45.26889" lon="5.79396">
        <ele>1196.6</ele>
        <time>2020-09-06T11:54:08.000Z</time>
      </trkpt>
      <trkpt lat="45.26888" lon="5.79401">
        <ele>1195.5</ele>
        <time>2020-09-06T11:54:11.000Z</time>
      </trkpt>
      <trkpt lat="45.26887" lon="5.79407">
        <ele>1194.1</ele>
        <time>2020-09-06T11:54:14.000Z</time>
      </trkpt>
      <trkpt lat="45.26887" lon="5.79412">
        <ele>1193.2</ele>
        <time>2020-09-06T11:54:16.000Z</time>
      </trkpt>
      <trkpt lat="45.26887" lon="5.79417">
        <ele>1192.3</ele>
        <time>2020-09-06T11:54:18.000Z</time>
      </trkpt>
      <trkpt lat="45.26887" lon="5.79423">
        <ele>1191.1</ele>
        <time>2020-09-06T11:54:21.000Z</time>
      </trkpt>
      <trkpt lat="45.26886" lon="5.79425">
        <ele>1190.6</ele>
        <time>2020-09-06T11:54:23.000Z</time>
      </trkpt>
      <trkpt lat="45.26886" lon="5.79432">
        <ele>1189.4</ele>
        <time>2020-09-06T11:54:26.000Z</time>
      </trkpt>
      <trkpt lat="45.26887" lon="5.79432">
        <ele>1189.6</ele>
        <time>2020-09-06T11:54:29.000Z</time>
      </trkpt>
      <trkpt lat="45.26887" lon="5.79433">
        <ele>1189.6</ele>
        <time>2020-09-06T11:54:31.000Z</time>
      </trkpt>
      <trkpt lat="45.26888" lon="5.79439">
        <ele>1188.8</ele>
        <time>2020-09-06T11:54:39.000Z</time>
      </trkpt>
      <trkpt lat="45.26887" lon="5.79438">
        <ele>1188.6</ele>
        <time>2020-09-06T11:54:44.000Z</time>
      </trkpt>
      <trkpt lat="45.26885" lon="5.7944">
        <ele>1188</ele>
        <time>2020-09-06T11:54:46.000Z</time>
      </trkpt>
      <trkpt lat="45.26882" lon="5.79439">
        <ele>1187.3</ele>
        <time>2020-09-06T11:54:48.000Z</time>
      </trkpt>
      <trkpt lat="45.2688" lon="5.79438">
        <ele>1187</ele>
        <time>2020-09-06T11:54:49.000Z</time>
      </trkpt>
      <trkpt lat="45.26875" lon="5.79432">
        <ele>1186.8</ele>
        <time>2020-09-06T11:54:52.000Z</time>
      </trkpt>
      <trkpt lat="45.26872" lon="5.79424">
        <ele>1187.4</ele>
        <time>2020-09-06T11:54:54.000Z</time>
      </trkpt>
      <trkpt lat="45.2687" lon="5.79423">
        <ele>1187.3</ele>
        <time>2020-09-06T11:54:55.000Z</time>
      </trkpt>
      <trkpt lat="45.26867" lon="5.79418">
        <ele>1187.4</ele>
        <time>2020-09-06T11:54:57.000Z</time>
      </trkpt>
      <trkpt lat="45.26865" lon="5.79415">
        <ele>1187.6</ele>
        <time>2020-09-06T11:54:58.000Z</time>
      </trkpt>
      <trkpt lat="45.26864" lon="5.79408">
        <ele>1188.9</ele>
        <time>2020-09-06T11:55:01.000Z</time>
      </trkpt>
      <trkpt lat="45.26864" lon="5.79407">
        <ele>1189.1</ele>
        <time>2020-09-06T11:55:02.000Z</time>
      </trkpt>
      <trkpt lat="45.2686" lon="5.79394">
        <ele>1191.2</ele>
        <time>2020-09-06T11:55:07.000Z</time>
      </trkpt>
      <trkpt lat="45.26854" lon="5.79389">
        <ele>1191.1</ele>
        <time>2020-09-06T11:55:09.000Z</time>
      </trkpt>
      <trkpt lat="45.26854" lon="5.79385">
        <ele>1191.9</ele>
        <time>2020-09-06T11:55:12.000Z</time>
      </trkpt>
      <trkpt lat="45.26855" lon="5.79383">
        <ele>1192.5</ele>
        <time>2020-09-06T11:55:13.000Z</time>
      </trkpt>
      <trkpt lat="45.26853" lon="5.7938">
        <ele>1193.1</ele>
        <time>2020-09-06T11:55:16.000Z</time>
      </trkpt>
      <trkpt lat="45.26854" lon="5.79377">
        <ele>1193.7</ele>
        <time>2020-09-06T11:55:18.000Z</time>
      </trkpt>
      <trkpt lat="45.26854" lon="5.79377">
        <ele>1193.9</ele>
        <time>2020-09-06T11:55:19.000Z</time>
      </trkpt>
      <trkpt lat="45.26859" lon="5.79377">
        <ele>1194.8</ele>
        <time>2020-09-06T11:55:23.000Z</time>
      </trkpt>
      <trkpt lat="45.26861" lon="5.79379">
        <ele>1194.7</ele>
        <time>2020-09-06T11:55:26.000Z</time>
      </trkpt>
      <trkpt lat="45.26864" lon="5.7938">
        <ele>1195.1</ele>
        <time>2020-09-06T11:55:32.000Z</time>
      </trkpt>
      <trkpt lat="45.26868" lon="5.79384">
        <ele>1194.7</ele>
        <time>2020-09-06T11:55:36.000Z</time>
      </trkpt>
      <trkpt lat="45.26868" lon="5.79386">
        <ele>1194.4</ele>
        <time>2020-09-06T11:55:38.000Z</time>
      </trkpt>
      <trkpt lat="45.26872" lon="5.79393">
        <ele>1193.6</ele>
        <time>2020-09-06T11:55:41.000Z</time>
      </trkpt>
      <trkpt lat="45.26874" lon="5.79392">
        <ele>1194.3</ele>
        <time>2020-09-06T11:55:43.000Z</time>
      </trkpt>
      <trkpt lat="45.26875" lon="5.7939">
        <ele>1194.9</ele>
        <time>2020-09-06T11:55:44.000Z</time>
      </trkpt>
      <trkpt lat="45.26875" lon="5.79385">
        <ele>1196.1</ele>
        <time>2020-09-06T11:55:47.000Z</time>
      </trkpt>
      <trkpt lat="45.26876" lon="5.79384">
        <ele>1196.3</ele>
        <time>2020-09-06T11:55:48.000Z</time>
      </trkpt>
      <trkpt lat="45.26877" lon="5.79383">
        <ele>1196.7</ele>
        <time>2020-09-06T11:55:50.000Z</time>
      </trkpt>
      <trkpt lat="45.26881" lon="5.79384">
        <ele>1197.2</ele>
        <time>2020-09-06T11:55:52.000Z</time>
      </trkpt>
      <trkpt lat="45.26888" lon="5.79389">
        <ele>1197.7</ele>
        <time>2020-09-06T11:55:57.000Z</time>
      </trkpt>
      <trkpt lat="45.26889" lon="5.79391">
        <ele>1197.6</ele>
        <time>2020-09-06T11:55:58.000Z</time>
      </trkpt>
      <trkpt lat="45.26888" lon="5.794">
        <ele>1195.6</ele>
        <time>2020-09-06T11:56:02.000Z</time>
      </trkpt>
      <trkpt lat="45.26887" lon="5.79404">
        <ele>1194.5</ele>
        <time>2020-09-06T11:56:04.000Z</time>
      </trkpt>
      <trkpt lat="45.26888" lon="5.79406">
        <ele>1194.4</ele>
        <time>2020-09-06T11:56:05.000Z</time>
      </trkpt>
      <trkpt lat="45.26888" lon="5.79409">
        <ele>1194.1</ele>
        <time>2020-09-06T11:56:06.000Z</time>
      </trkpt>
      <trkpt lat="45.26889" lon="5.79412">
        <ele>1193.5</ele>
        <time>2020-09-06T11:56:07.000Z</time>
      </trkpt>
      <trkpt lat="45.26888" lon="5.79423">
        <ele>1191.6</ele>
        <time>2020-09-06T11:56:10.000Z</time>
      </trkpt>
      <trkpt lat="45.26885" lon="5.7943">
        <ele>1189.5</ele>
        <time>2020-09-06T11:56:12.000Z</time>
      </trkpt>
      <trkpt lat="45.26879" lon="5.79432">
        <ele>1187.7</ele>
        <time>2020-09-06T11:56:14.000Z</time>
      </trkpt>
      <trkpt lat="45.26873" lon="5.79426">
        <ele>1187.3</ele>
        <time>2020-09-06T11:56:16.000Z</time>
      </trkpt>
      <trkpt lat="45.26871" lon="5.79423">
        <ele>1187.3</ele>
        <time>2020-09-06T11:56:17.000Z</time>
      </trkpt>
      <trkpt lat="45.26862" lon="5.79413">
        <ele>1187.2</ele>
        <time>2020-09-06T11:56:21.000Z</time>
      </trkpt>
      <trkpt lat="45.26859" lon="5.79403">
        <ele>1188.7</ele>
        <time>2020-09-06T11:56:24.000Z</time>
      </trkpt>
      <trkpt lat="45.26858" lon="5.79401">
        <ele>1189</ele>
        <time>2020-09-06T11:56:25.000Z</time>
      </trkpt>
      <trkpt lat="45.26854" lon="5.79393">
        <ele>1190.2</ele>
        <time>2020-09-06T11:56:28.000Z</time>
      </trkpt>
      <trkpt lat="45.26847" lon="5.79385">
        <ele>1190.7</ele>
        <time>2020-09-06T11:56:30.000Z</time>
      </trkpt>
      <trkpt lat="45.26843" lon="5.79383">
        <ele>1190.3</ele>
        <time>2020-09-06T11:56:31.000Z</time>
      </trkpt>
      <trkpt lat="45.2684" lon="5.79382">
        <ele>1190.1</ele>
        <time>2020-09-06T11:56:32.000Z</time>
      </trkpt>
      <trkpt lat="45.26838" lon="5.7938">
        <ele>1190.2</ele>
        <time>2020-09-06T11:56:33.000Z</time>
      </trkpt>
      <trkpt lat="45.26836" lon="5.79375">
        <ele>1191</ele>
        <time>2020-09-06T11:56:34.000Z</time>
      </trkpt>
      <trkpt lat="45.26834" lon="5.7937">
        <ele>1191.7</ele>
        <time>2020-09-06T11:56:35.000Z</time>
      </trkpt>
      <trkpt lat="45.26829" lon="5.79368">
        <ele>1190.3</ele>
        <time>2020-09-06T11:56:36.000Z</time>
      </trkpt>
      <trkpt lat="45.26813" lon="5.7936">
        <ele>1184.5</ele>
        <time>2020-09-06T11:56:40.000Z</time>
      </trkpt>
      <trkpt lat="45.26805" lon="5.7935">
        <ele>1183.3</ele>
        <time>2020-09-06T11:56:43.000Z</time>
      </trkpt>
      <trkpt lat="45.26802" lon="5.79346">
        <ele>1182.5</ele>
        <time>2020-09-06T11:56:45.000Z</time>
      </trkpt>
      <trkpt lat="45.26795" lon="5.79346">
        <ele>1179.4</ele>
        <time>2020-09-06T11:56:46.000Z</time>
      </trkpt>
      <trkpt lat="45.26796" lon="5.79349">
        <ele>1179</ele>
        <time>2020-09-06T11:56:48.000Z</time>
      </trkpt>
      <trkpt lat="45.26796" lon="5.79351">
        <ele>1178.6</ele>
        <time>2020-09-06T11:56:49.000Z</time>
      </trkpt>
      <trkpt lat="45.26797" lon="5.79353">
        <ele>1178.6</ele>
        <time>2020-09-06T11:56:51.000Z</time>
      </trkpt>
      <trkpt lat="45.26799" lon="5.79355">
        <ele>1178.7</ele>
        <time>2020-09-06T11:56:52.000Z</time>
      </trkpt>
      <trkpt lat="45.26801" lon="5.79365">
        <ele>1177.1</ele>
        <time>2020-09-06T11:56:56.000Z</time>
      </trkpt>
      <trkpt lat="45.26802" lon="5.79372">
        <ele>1176</ele>
        <time>2020-09-06T11:56:58.000Z</time>
      </trkpt>
      <trkpt lat="45.26805" lon="5.79382">
        <ele>1175.1</ele>
        <time>2020-09-06T11:57:01.000Z</time>
      </trkpt>
      <trkpt lat="45.26805" lon="5.79384">
        <ele>1174.3</ele>
        <time>2020-09-06T11:57:03.000Z</time>
      </trkpt>
      <trkpt lat="45.26804" lon="5.79388">
        <ele>1173.2</ele>
        <time>2020-09-06T11:57:05.000Z</time>
      </trkpt>
      <trkpt lat="45.26807" lon="5.79394">
        <ele>1173.1</ele>
        <time>2020-09-06T11:57:07.000Z</time>
      </trkpt>
      <trkpt lat="45.26809" lon="5.79397">
        <ele>1173</ele>
        <time>2020-09-06T11:57:09.000Z</time>
      </trkpt>
      <trkpt lat="45.2681" lon="5.79405">
        <ele>1171.3</ele>
        <time>2020-09-06T11:57:11.000Z</time>
      </trkpt>
      <trkpt lat="45.2681" lon="5.7941">
        <ele>1170.4</ele>
        <time>2020-09-06T11:57:12.000Z</time>
      </trkpt>
      <trkpt lat="45.26813" lon="5.79417">
        <ele>1169.8</ele>
        <time>2020-09-06T11:57:14.000Z</time>
      </trkpt>
      <trkpt lat="45.26816" lon="5.79423">
        <ele>1169.8</ele>
        <time>2020-09-06T11:57:16.000Z</time>
      </trkpt>
      <trkpt lat="45.26819" lon="5.79425">
        <ele>1171.1</ele>
        <time>2020-09-06T11:57:17.000Z</time>
      </trkpt>
      <trkpt lat="45.26826" lon="5.79433">
        <ele>1172.4</ele>
        <time>2020-09-06T11:57:20.000Z</time>
      </trkpt>
      <trkpt lat="45.26828" lon="5.79436">
        <ele>1172.7</ele>
        <time>2020-09-06T11:57:21.000Z</time>
      </trkpt>
      <trkpt lat="45.2683" lon="5.79442">
        <ele>1172.4</ele>
        <time>2020-09-06T11:57:24.000Z</time>
      </trkpt>
      <trkpt lat="45.26831" lon="5.79446">
        <ele>1172</ele>
        <time>2020-09-06T11:57:25.000Z</time>
      </trkpt>
      <trkpt lat="45.26832" lon="5.79449">
        <ele>1171.7</ele>
        <time>2020-09-06T11:57:26.000Z</time>
      </trkpt>
      <trkpt lat="45.26834" lon="5.79451">
        <ele>1171.8</ele>
        <time>2020-09-06T11:57:27.000Z</time>
      </trkpt>
      <trkpt lat="45.26835" lon="5.79454">
        <ele>1171.5</ele>
        <time>2020-09-06T11:57:28.000Z</time>
      </trkpt>
      <trkpt lat="45.26835" lon="5.79455">
        <ele>1171.3</ele>
        <time>2020-09-06T11:57:29.000Z</time>
      </trkpt>
      <trkpt lat="45.26836" lon="5.7946">
        <ele>1170.3</ele>
        <time>2020-09-06T11:57:30.000Z</time>
      </trkpt>
      <trkpt lat="45.2684" lon="5.79473">
        <ele>1168.5</ele>
        <time>2020-09-06T11:57:33.000Z</time>
      </trkpt>
      <trkpt lat="45.26843" lon="5.7949">
        <ele>1165.9</ele>
        <time>2020-09-06T11:57:36.000Z</time>
      </trkpt>
      <trkpt lat="45.26843" lon="5.79493">
        <ele>1165</ele>
        <time>2020-09-06T11:57:37.000Z</time>
      </trkpt>
      <trkpt lat="45.26842" lon="5.79496">
        <ele>1164.1</ele>
        <time>2020-09-06T11:57:38.000Z</time>
      </trkpt>
      <trkpt lat="45.26839" lon="5.79499">
        <ele>1162.2</ele>
        <time>2020-09-06T11:57:40.000Z</time>
      </trkpt>
      <trkpt lat="45.26837" lon="5.79498">
        <ele>1161.6</ele>
        <time>2020-09-06T11:57:41.000Z</time>
      </trkpt>
      <trkpt lat="45.26834" lon="5.79496">
        <ele>1161.2</ele>
        <time>2020-09-06T11:57:42.000Z</time>
      </trkpt>
      <trkpt lat="45.26832" lon="5.79495">
        <ele>1160.8</ele>
        <time>2020-09-06T11:57:43.000Z</time>
      </trkpt>
      <trkpt lat="45.26827" lon="5.79492">
        <ele>1158.8</ele>
        <time>2020-09-06T11:57:46.000Z</time>
      </trkpt>
      <trkpt lat="45.26825" lon="5.79492">
        <ele>1158</ele>
        <time>2020-09-06T11:57:47.000Z</time>
      </trkpt>
      <trkpt lat="45.26823" lon="5.79492">
        <ele>1157</ele>
        <time>2020-09-06T11:57:48.000Z</time>
      </trkpt>
      <trkpt lat="45.2682" lon="5.79489">
        <ele>1156.7</ele>
        <time>2020-09-06T11:57:49.000Z</time>
      </trkpt>
      <trkpt lat="45.26819" lon="5.79487">
        <ele>1156.3</ele>
        <time>2020-09-06T11:57:50.000Z</time>
      </trkpt>
      <trkpt lat="45.26817" lon="5.79486">
        <ele>1155.7</ele>
        <time>2020-09-06T11:57:51.000Z</time>
      </trkpt>
      <trkpt lat="45.26815" lon="5.79486">
        <ele>1155.1</ele>
        <time>2020-09-06T11:57:52.000Z</time>
      </trkpt>
      <trkpt lat="45.26816" lon="5.79487">
        <ele>1155.1</ele>
        <time>2020-09-06T11:57:53.000Z</time>
      </trkpt>
      <trkpt lat="45.26817" lon="5.7949">
        <ele>1155.1</ele>
        <time>2020-09-06T11:57:54.000Z</time>
      </trkpt>
      <trkpt lat="45.26817" lon="5.79492">
        <ele>1154.6</ele>
        <time>2020-09-06T11:57:55.000Z</time>
      </trkpt>
      <trkpt lat="45.26819" lon="5.79498">
        <ele>1153.9</ele>
        <time>2020-09-06T11:57:57.000Z</time>
      </trkpt>
      <trkpt lat="45.26821" lon="5.79499">
        <ele>1154.4</ele>
        <time>2020-09-06T11:57:58.000Z</time>
      </trkpt>
      <trkpt lat="45.26822" lon="5.795">
        <ele>1154.9</ele>
        <time>2020-09-06T11:57:59.000Z</time>
      </trkpt>
      <trkpt lat="45.26822" lon="5.79503">
        <ele>1153.7</ele>
        <time>2020-09-06T11:58:00.000Z</time>
      </trkpt>
      <trkpt lat="45.26822" lon="5.79505">
        <ele>1152.7</ele>
        <time>2020-09-06T11:58:01.000Z</time>
      </trkpt>
      <trkpt lat="45.26821" lon="5.79508">
        <ele>1151.4</ele>
        <time>2020-09-06T11:58:02.000Z</time>
      </trkpt>
      <trkpt lat="45.26821" lon="5.79508">
        <ele>1150.8</ele>
        <time>2020-09-06T11:58:03.000Z</time>
      </trkpt>
      <trkpt lat="45.2682" lon="5.79508">
        <ele>1150.6</ele>
        <time>2020-09-06T11:58:04.000Z</time>
      </trkpt>
      <trkpt lat="45.26819" lon="5.79509">
        <ele>1149.8</ele>
        <time>2020-09-06T11:58:05.000Z</time>
      </trkpt>
      <trkpt lat="45.26817" lon="5.7951">
        <ele>1148.8</ele>
        <time>2020-09-06T11:58:06.000Z</time>
      </trkpt>
      <trkpt lat="45.26816" lon="5.7951">
        <ele>1148.2</ele>
        <time>2020-09-06T11:58:07.000Z</time>
      </trkpt>
      <trkpt lat="45.26813" lon="5.79509">
        <ele>1147.3</ele>
        <time>2020-09-06T11:58:09.000Z</time>
      </trkpt>
      <trkpt lat="45.26811" lon="5.79508">
        <ele>1147.1</ele>
        <time>2020-09-06T11:58:10.000Z</time>
      </trkpt>
      <trkpt lat="45.2681" lon="5.79506">
        <ele>1146.8</ele>
        <time>2020-09-06T11:58:11.000Z</time>
      </trkpt>
      <trkpt lat="45.26808" lon="5.79505">
        <ele>1146.5</ele>
        <time>2020-09-06T11:58:12.000Z</time>
      </trkpt>
      <trkpt lat="45.26803" lon="5.79502">
        <ele>1145.6</ele>
        <time>2020-09-06T11:58:14.000Z</time>
      </trkpt>
      <trkpt lat="45.268" lon="5.79499">
        <ele>1145.1</ele>
        <time>2020-09-06T11:58:15.000Z</time>
      </trkpt>
      <trkpt lat="45.26799" lon="5.79498">
        <ele>1144.7</ele>
        <time>2020-09-06T11:58:16.000Z</time>
      </trkpt>
      <trkpt lat="45.26797" lon="5.79497">
        <ele>1144</ele>
        <time>2020-09-06T11:58:17.000Z</time>
      </trkpt>
      <trkpt lat="45.26794" lon="5.79498">
        <ele>1142.4</ele>
        <time>2020-09-06T11:58:19.000Z</time>
      </trkpt>
      <trkpt lat="45.26794" lon="5.79502">
        <ele>1141</ele>
        <time>2020-09-06T11:58:20.000Z</time>
      </trkpt>
      <trkpt lat="45.26794" lon="5.79509">
        <ele>1138.9</ele>
        <time>2020-09-06T11:58:22.000Z</time>
      </trkpt>
      <trkpt lat="45.26796" lon="5.79518">
        <ele>1136.7</ele>
        <time>2020-09-06T11:58:24.000Z</time>
      </trkpt>
      <trkpt lat="45.26798" lon="5.79524">
        <ele>1135.6</ele>
        <time>2020-09-06T11:58:26.000Z</time>
      </trkpt>
      <trkpt lat="45.26798" lon="5.79527">
        <ele>1134.8</ele>
        <time>2020-09-06T11:58:27.000Z</time>
      </trkpt>
      <trkpt lat="45.26797" lon="5.79529">
        <ele>1133.6</ele>
        <time>2020-09-06T11:58:28.000Z</time>
      </trkpt>
      <trkpt lat="45.26795" lon="5.79528">
        <ele>1133.3</ele>
        <time>2020-09-06T11:58:29.000Z</time>
      </trkpt>
      <trkpt lat="45.26792" lon="5.79527">
        <ele>1132.6</ele>
        <time>2020-09-06T11:58:30.000Z</time>
      </trkpt>
      <trkpt lat="45.26787" lon="5.7952">
        <ele>1132.6</ele>
        <time>2020-09-06T11:58:32.000Z</time>
      </trkpt>
      <trkpt lat="45.26786" lon="5.79519">
        <ele>1132.5</ele>
        <time>2020-09-06T11:58:33.000Z</time>
      </trkpt>
      <trkpt lat="45.26785" lon="5.79518">
        <ele>1132.7</ele>
        <time>2020-09-06T11:58:34.000Z</time>
      </trkpt>
      <trkpt lat="45.26785" lon="5.79519">
        <ele>1132.3</ele>
        <time>2020-09-06T11:58:35.000Z</time>
      </trkpt>
      <trkpt lat="45.26785" lon="5.79521">
        <ele>1131.8</ele>
        <time>2020-09-06T11:58:37.000Z</time>
      </trkpt>
      <trkpt lat="45.26784" lon="5.79523">
        <ele>1130.8</ele>
        <time>2020-09-06T11:58:38.000Z</time>
      </trkpt>
      <trkpt lat="45.26783" lon="5.79524">
        <ele>1129.7</ele>
        <time>2020-09-06T11:58:39.000Z</time>
      </trkpt>
      <trkpt lat="45.26781" lon="5.79525">
        <ele>1128.9</ele>
        <time>2020-09-06T11:58:40.000Z</time>
      </trkpt>
      <trkpt lat="45.26778" lon="5.79524">
        <ele>1128</ele>
        <time>2020-09-06T11:58:41.000Z</time>
      </trkpt>
      <trkpt lat="45.26776" lon="5.79523">
        <ele>1127.5</ele>
        <time>2020-09-06T11:58:42.000Z</time>
      </trkpt>
      <trkpt lat="45.26775" lon="5.79523">
        <ele>1126.8</ele>
        <time>2020-09-06T11:58:43.000Z</time>
      </trkpt>
      <trkpt lat="45.26772" lon="5.79521">
        <ele>1126.2</ele>
        <time>2020-09-06T11:58:45.000Z</time>
      </trkpt>
      <trkpt lat="45.26769" lon="5.79522">
        <ele>1125</ele>
        <time>2020-09-06T11:58:47.000Z</time>
      </trkpt>
      <trkpt lat="45.26769" lon="5.79524">
        <ele>1124.4</ele>
        <time>2020-09-06T11:58:48.000Z</time>
      </trkpt>
      <trkpt lat="45.2677" lon="5.79526">
        <ele>1124</ele>
        <time>2020-09-06T11:58:49.000Z</time>
      </trkpt>
      <trkpt lat="45.2677" lon="5.79528">
        <ele>1123.6</ele>
        <time>2020-09-06T11:58:50.000Z</time>
      </trkpt>
      <trkpt lat="45.2677" lon="5.79533">
        <ele>1122.5</ele>
        <time>2020-09-06T11:58:52.000Z</time>
      </trkpt>
      <trkpt lat="45.26771" lon="5.79536">
        <ele>1122.1</ele>
        <time>2020-09-06T11:58:54.000Z</time>
      </trkpt>
      <trkpt lat="45.26773" lon="5.79542">
        <ele>1120.8</ele>
        <time>2020-09-06T11:58:56.000Z</time>
      </trkpt>
      <trkpt lat="45.26775" lon="5.79547">
        <ele>1120.2</ele>
        <time>2020-09-06T11:58:58.000Z</time>
      </trkpt>
      <trkpt lat="45.26774" lon="5.79548">
        <ele>1119.6</ele>
        <time>2020-09-06T11:58:59.000Z</time>
      </trkpt>
      <trkpt lat="45.26774" lon="5.79548">
        <ele>1119.3</ele>
        <time>2020-09-06T11:59:00.000Z</time>
      </trkpt>
      <trkpt lat="45.26773" lon="5.7955">
        <ele>1118.7</ele>
        <time>2020-09-06T11:59:01.000Z</time>
      </trkpt>
      <trkpt lat="45.26771" lon="5.7955">
        <ele>1117.9</ele>
        <time>2020-09-06T11:59:03.000Z</time>
      </trkpt>
      <trkpt lat="45.26766" lon="5.79547">
        <ele>1117.3</ele>
        <time>2020-09-06T11:59:05.000Z</time>
      </trkpt>
      <trkpt lat="45.26765" lon="5.79544">
        <ele>1117.5</ele>
        <time>2020-09-06T11:59:06.000Z</time>
      </trkpt>
      <trkpt lat="45.26763" lon="5.79542">
        <ele>1117.6</ele>
        <time>2020-09-06T11:59:07.000Z</time>
      </trkpt>
      <trkpt lat="45.26762" lon="5.7954">
        <ele>1117.5</ele>
        <time>2020-09-06T11:59:08.000Z</time>
      </trkpt>
      <trkpt lat="45.26759" lon="5.79537">
        <ele>1117.3</ele>
        <time>2020-09-06T11:59:11.000Z</time>
      </trkpt>
      <trkpt lat="45.26759" lon="5.79538">
        <ele>1116.9</ele>
        <time>2020-09-06T11:59:12.000Z</time>
      </trkpt>
      <trkpt lat="45.26756" lon="5.79537">
        <ele>1116.2</ele>
        <time>2020-09-06T11:59:13.000Z</time>
      </trkpt>
      <trkpt lat="45.26753" lon="5.79535">
        <ele>1115.6</ele>
        <time>2020-09-06T11:59:15.000Z</time>
      </trkpt>
      <trkpt lat="45.26751" lon="5.79534">
        <ele>1115.1</ele>
        <time>2020-09-06T11:59:16.000Z</time>
      </trkpt>
      <trkpt lat="45.26747" lon="5.79536">
        <ele>1113.7</ele>
        <time>2020-09-06T11:59:18.000Z</time>
      </trkpt>
      <trkpt lat="45.26746" lon="5.79536">
        <ele>1113.4</ele>
        <time>2020-09-06T11:59:19.000Z</time>
      </trkpt>
      <trkpt lat="45.26743" lon="5.79535">
        <ele>1112.9</ele>
        <time>2020-09-06T11:59:20.000Z</time>
      </trkpt>
      <trkpt lat="45.2674" lon="5.79536">
        <ele>1112.1</ele>
        <time>2020-09-06T11:59:22.000Z</time>
      </trkpt>
      <trkpt lat="45.26737" lon="5.79536">
        <ele>1111.4</ele>
        <time>2020-09-06T11:59:24.000Z</time>
      </trkpt>
      <trkpt lat="45.26736" lon="5.79536">
        <ele>1111.2</ele>
        <time>2020-09-06T11:59:25.000Z</time>
      </trkpt>
      <trkpt lat="45.2673" lon="5.79534">
        <ele>1110.1</ele>
        <time>2020-09-06T11:59:28.000Z</time>
      </trkpt>
      <trkpt lat="45.26728" lon="5.79534">
        <ele>1109.7</ele>
        <time>2020-09-06T11:59:29.000Z</time>
      </trkpt>
      <trkpt lat="45.26726" lon="5.79534">
        <ele>1109.1</ele>
        <time>2020-09-06T11:59:30.000Z</time>
      </trkpt>
      <trkpt lat="45.26721" lon="5.79536">
        <ele>1107.9</ele>
        <time>2020-09-06T11:59:32.000Z</time>
      </trkpt>
      <trkpt lat="45.26719" lon="5.79537">
        <ele>1107.5</ele>
        <time>2020-09-06T11:59:33.000Z</time>
      </trkpt>
      <trkpt lat="45.26715" lon="5.79538">
        <ele>1106.5</ele>
        <time>2020-09-06T11:59:35.000Z</time>
      </trkpt>
      <trkpt lat="45.26713" lon="5.79537">
        <ele>1106.1</ele>
        <time>2020-09-06T11:59:36.000Z</time>
      </trkpt>
      <trkpt lat="45.26709" lon="5.79537">
        <ele>1105.2</ele>
        <time>2020-09-06T11:59:39.000Z</time>
      </trkpt>
      <trkpt lat="45.26707" lon="5.79536">
        <ele>1104.7</ele>
        <time>2020-09-06T11:59:40.000Z</time>
      </trkpt>
      <trkpt lat="45.26701" lon="5.79531">
        <ele>1103.3</ele>
        <time>2020-09-06T11:59:43.000Z</time>
      </trkpt>
      <trkpt lat="45.267" lon="5.79531">
        <ele>1103.1</ele>
        <time>2020-09-06T11:59:44.000Z</time>
      </trkpt>
      <trkpt lat="45.26698" lon="5.79529">
        <ele>1102.4</ele>
        <time>2020-09-06T11:59:46.000Z</time>
      </trkpt>
      <trkpt lat="45.26695" lon="5.79525">
        <ele>1101.6</ele>
        <time>2020-09-06T11:59:48.000Z</time>
      </trkpt>
      <trkpt lat="45.26694" lon="5.79523">
        <ele>1101.1</ele>
        <time>2020-09-06T11:59:49.000Z</time>
      </trkpt>
      <trkpt lat="45.26692" lon="5.7952">
        <ele>1100.5</ele>
        <time>2020-09-06T11:59:51.000Z</time>
      </trkpt>
      <trkpt lat="45.2669" lon="5.7952">
        <ele>1099.7</ele>
        <time>2020-09-06T11:59:54.000Z</time>
      </trkpt>
      <trkpt lat="45.26687" lon="5.79521">
        <ele>1099.1</ele>
        <time>2020-09-06T12:00:01.000Z</time>
      </trkpt>
      <trkpt lat="45.26682" lon="5.79513">
        <ele>1096.7</ele>
        <time>2020-09-06T12:00:08.000Z</time>
      </trkpt>
      <trkpt lat="45.26678" lon="5.79511">
        <ele>1095.1</ele>
        <time>2020-09-06T12:00:12.000Z</time>
      </trkpt>
      <trkpt lat="45.26676" lon="5.79511">
        <ele>1094.1</ele>
        <time>2020-09-06T12:00:14.000Z</time>
      </trkpt>
      <trkpt lat="45.26674" lon="5.79509">
        <ele>1093.1</ele>
        <time>2020-09-06T12:00:15.000Z</time>
      </trkpt>
      <trkpt lat="45.26671" lon="5.79506">
        <ele>1091.9</ele>
        <time>2020-09-06T12:00:16.000Z</time>
      </trkpt>
      <trkpt lat="45.26669" lon="5.79504">
        <ele>1090.6</ele>
        <time>2020-09-06T12:00:17.000Z</time>
      </trkpt>
      <trkpt lat="45.26665" lon="5.79497">
        <ele>1089.6</ele>
        <time>2020-09-06T12:00:19.000Z</time>
      </trkpt>
      <trkpt lat="45.26664" lon="5.79494">
        <ele>1089.9</ele>
        <time>2020-09-06T12:00:20.000Z</time>
      </trkpt>
      <trkpt lat="45.26665" lon="5.79493">
        <ele>1089.8</ele>
        <time>2020-09-06T12:00:21.000Z</time>
      </trkpt>
      <trkpt lat="45.26667" lon="5.79493">
        <ele>1089.6</ele>
        <time>2020-09-06T12:00:22.000Z</time>
      </trkpt>
      <trkpt lat="45.26667" lon="5.79492">
        <ele>1089.7</ele>
        <time>2020-09-06T12:00:23.000Z</time>
      </trkpt>
      <trkpt lat="45.26666" lon="5.79496">
        <ele>1089.4</ele>
        <time>2020-09-06T12:00:27.000Z</time>
      </trkpt>
      <trkpt lat="45.26668" lon="5.79496">
        <ele>1090.1</ele>
        <time>2020-09-06T12:00:30.000Z</time>
      </trkpt>
      <trkpt lat="45.26669" lon="5.79496">
        <ele>1090.4</ele>
        <time>2020-09-06T12:00:31.000Z</time>
      </trkpt>
      <trkpt lat="45.2667" lon="5.795">
        <ele>1090.4</ele>
        <time>2020-09-06T12:00:34.000Z</time>
      </trkpt>
      <trkpt lat="45.2667" lon="5.79501">
        <ele>1090.7</ele>
        <time>2020-09-06T12:00:35.000Z</time>
      </trkpt>
      <trkpt lat="45.26675" lon="5.79506">
        <ele>1093.2</ele>
        <time>2020-09-06T12:00:40.000Z</time>
      </trkpt>
      <trkpt lat="45.26679" lon="5.79513">
        <ele>1095.7</ele>
        <time>2020-09-06T12:00:45.000Z</time>
      </trkpt>
      <trkpt lat="45.26681" lon="5.79514">
        <ele>1096.4</ele>
        <time>2020-09-06T12:00:47.000Z</time>
      </trkpt>
      <trkpt lat="45.26685" lon="5.79517">
        <ele>1098</ele>
        <time>2020-09-06T12:00:50.000Z</time>
      </trkpt>
      <trkpt lat="45.26688" lon="5.79521">
        <ele>1099.2</ele>
        <time>2020-09-06T12:00:54.000Z</time>
      </trkpt>
      <trkpt lat="45.26694" lon="5.79527">
        <ele>1101.3</ele>
        <time>2020-09-06T12:00:59.000Z</time>
      </trkpt>
      <trkpt lat="45.26695" lon="5.7953">
        <ele>1101.9</ele>
        <time>2020-09-06T12:01:01.000Z</time>
      </trkpt>
      <trkpt lat="45.26696" lon="5.79534">
        <ele>1102.3</ele>
        <time>2020-09-06T12:01:04.000Z</time>
      </trkpt>
      <trkpt lat="45.26697" lon="5.79535">
        <ele>1102.6</ele>
        <time>2020-09-06T12:01:05.000Z</time>
      </trkpt>
      <trkpt lat="45.26698" lon="5.79537">
        <ele>1102.9</ele>
        <time>2020-09-06T12:01:06.000Z</time>
      </trkpt>
      <trkpt lat="45.26699" lon="5.79538">
        <ele>1103.1</ele>
        <time>2020-09-06T12:01:07.000Z</time>
      </trkpt>
      <trkpt lat="45.26701" lon="5.79542">
        <ele>1103.7</ele>
        <time>2020-09-06T12:01:11.000Z</time>
      </trkpt>
      <trkpt lat="45.26702" lon="5.79546">
        <ele>1103.8</ele>
        <time>2020-09-06T12:01:13.000Z</time>
      </trkpt>
      <trkpt lat="45.26707" lon="5.79549">
        <ele>1104.7</ele>
        <time>2020-09-06T12:01:16.000Z</time>
      </trkpt>
      <trkpt lat="45.2671" lon="5.7955">
        <ele>1105.2</ele>
        <time>2020-09-06T12:01:18.000Z</time>
      </trkpt>
      <trkpt lat="45.26716" lon="5.79554">
        <ele>1105.9</ele>
        <time>2020-09-06T12:01:23.000Z</time>
      </trkpt>
      <trkpt lat="45.26727" lon="5.79556">
        <ele>1107</ele>
        <time>2020-09-06T12:01:30.000Z</time>
      </trkpt>
      <trkpt lat="45.26731" lon="5.79557">
        <ele>1107.5</ele>
        <time>2020-09-06T12:01:34.000Z</time>
      </trkpt>
      <trkpt lat="45.26733" lon="5.79557">
        <ele>1107.8</ele>
        <time>2020-09-06T12:01:36.000Z</time>
      </trkpt>
      <trkpt lat="45.26736" lon="5.79556">
        <ele>1108.1</ele>
        <time>2020-09-06T12:01:38.000Z</time>
      </trkpt>
      <trkpt lat="45.2674" lon="5.79559">
        <ele>1108.2</ele>
        <time>2020-09-06T12:01:41.000Z</time>
      </trkpt>
      <trkpt lat="45.2674" lon="5.79559">
        <ele>1108.1</ele>
        <time>2020-09-06T12:01:42.000Z</time>
      </trkpt>
      <trkpt lat="45.26743" lon="5.79562">
        <ele>1108</ele>
        <time>2020-09-06T12:01:44.000Z</time>
      </trkpt>
      <trkpt lat="45.26746" lon="5.79561">
        <ele>1108.5</ele>
        <time>2020-09-06T12:01:46.000Z</time>
      </trkpt>
      <trkpt lat="45.26748" lon="5.79561">
        <ele>1108.6</ele>
        <time>2020-09-06T12:01:47.000Z</time>
      </trkpt>
      <trkpt lat="45.26755" lon="5.79567">
        <ele>1109.1</ele>
        <time>2020-09-06T12:01:52.000Z</time>
      </trkpt>
      <trkpt lat="45.26758" lon="5.79568">
        <ele>1109.5</ele>
        <time>2020-09-06T12:01:54.000Z</time>
      </trkpt>
      <trkpt lat="45.26767" lon="5.79574">
        <ele>1110.4</ele>
        <time>2020-09-06T12:02:01.000Z</time>
      </trkpt>
      <trkpt lat="45.26778" lon="5.79578">
        <ele>1112.2</ele>
        <time>2020-09-06T12:02:08.000Z</time>
      </trkpt>
      <trkpt lat="45.26786" lon="5.79587">
        <ele>1112.5</ele>
        <time>2020-09-06T12:02:13.000Z</time>
      </trkpt>
      <trkpt lat="45.26789" lon="5.79587">
        <ele>1113.3</ele>
        <time>2020-09-06T12:02:15.000Z</time>
      </trkpt>
      <trkpt lat="45.26795" lon="5.79589">
        <ele>1114.5</ele>
        <time>2020-09-06T12:02:18.000Z</time>
      </trkpt>
      <trkpt lat="45.26797" lon="5.79589">
        <ele>1114.9</ele>
        <time>2020-09-06T12:02:19.000Z</time>
      </trkpt>
      <trkpt lat="45.26806" lon="5.79591">
        <ele>1116.6</ele>
        <time>2020-09-06T12:02:24.000Z</time>
      </trkpt>
      <trkpt lat="45.26813" lon="5.79597">
        <ele>1117.3</ele>
        <time>2020-09-06T12:02:29.000Z</time>
      </trkpt>
      <trkpt lat="45.26814" lon="5.79599">
        <ele>1117.4</ele>
        <time>2020-09-06T12:02:30.000Z</time>
      </trkpt>
      <trkpt lat="45.26822" lon="5.79604">
        <ele>1118.1</ele>
        <time>2020-09-06T12:02:35.000Z</time>
      </trkpt>
      <trkpt lat="45.26829" lon="5.7961">
        <ele>1118.2</ele>
        <time>2020-09-06T12:02:39.000Z</time>
      </trkpt>
      <trkpt lat="45.26838" lon="5.79619">
        <ele>1118.4</ele>
        <time>2020-09-06T12:02:45.000Z</time>
      </trkpt>
      <trkpt lat="45.2684" lon="5.79619">
        <ele>1118.6</ele>
        <time>2020-09-06T12:02:46.000Z</time>
      </trkpt>
      <trkpt lat="45.26844" lon="5.79629">
        <ele>1117.7</ele>
        <time>2020-09-06T12:02:50.000Z</time>
      </trkpt>
      <trkpt lat="45.26849" lon="5.79641">
        <ele>1116.1</ele>
        <time>2020-09-06T12:02:54.000Z</time>
      </trkpt>
      <trkpt lat="45.2685" lon="5.79643">
        <ele>1115.8</ele>
        <time>2020-09-06T12:02:55.000Z</time>
      </trkpt>
      <trkpt lat="45.26856" lon="5.79658">
        <ele>1113.7</ele>
        <time>2020-09-06T12:03:01.000Z</time>
      </trkpt>
      <trkpt lat="45.26862" lon="5.79672">
        <ele>1113</ele>
        <time>2020-09-06T12:03:08.000Z</time>
      </trkpt>
      <trkpt lat="45.26863" lon="5.79675">
        <ele>1113.4</ele>
        <time>2020-09-06T12:03:09.000Z</time>
      </trkpt>
      <trkpt lat="45.26867" lon="5.79685">
        <ele>1114.7</ele>
        <time>2020-09-06T12:03:13.000Z</time>
      </trkpt>
      <trkpt lat="45.26872" lon="5.79695">
        <ele>1115.8</ele>
        <time>2020-09-06T12:03:18.000Z</time>
      </trkpt>
      <trkpt lat="45.2688" lon="5.79705">
        <ele>1116.7</ele>
        <time>2020-09-06T12:03:24.000Z</time>
      </trkpt>
      <trkpt lat="45.26882" lon="5.79708">
        <ele>1116.9</ele>
        <time>2020-09-06T12:03:26.000Z</time>
      </trkpt>
      <trkpt lat="45.26892" lon="5.79713">
        <ele>1117</ele>
        <time>2020-09-06T12:03:31.000Z</time>
      </trkpt>
      <trkpt lat="45.26897" lon="5.79718">
        <ele>1117</ele>
        <time>2020-09-06T12:03:35.000Z</time>
      </trkpt>
      <trkpt lat="45.26898" lon="5.79722">
        <ele>1116.9</ele>
        <time>2020-09-06T12:03:37.000Z</time>
      </trkpt>
      <trkpt lat="45.26898" lon="5.79724">
        <ele>1116.8</ele>
        <time>2020-09-06T12:03:38.000Z</time>
      </trkpt>
      <trkpt lat="45.26897" lon="5.79726">
        <ele>1116.8</ele>
        <time>2020-09-06T12:03:40.000Z</time>
      </trkpt>
      <trkpt lat="45.26897" lon="5.79729">
        <ele>1116.7</ele>
        <time>2020-09-06T12:03:42.000Z</time>
      </trkpt>
      <trkpt lat="45.26902" lon="5.79737">
        <ele>1116.2</ele>
        <time>2020-09-06T12:03:47.000Z</time>
      </trkpt>
      <trkpt lat="45.26902" lon="5.79739">
        <ele>1116.1</ele>
        <time>2020-09-06T12:03:48.000Z</time>
      </trkpt>
      <trkpt lat="45.26906" lon="5.79748">
        <ele>1115.4</ele>
        <time>2020-09-06T12:03:51.000Z</time>
      </trkpt>
      <trkpt lat="45.26908" lon="5.79753">
        <ele>1115.6</ele>
        <time>2020-09-06T12:03:52.000Z</time>
      </trkpt>
      <trkpt lat="45.26912" lon="5.7976">
        <ele>1116.4</ele>
        <time>2020-09-06T12:03:54.000Z</time>
      </trkpt>
      <trkpt lat="45.2692" lon="5.79763">
        <ele>1116.9</ele>
        <time>2020-09-06T12:03:57.000Z</time>
      </trkpt>
      <trkpt lat="45.26928" lon="5.7976">
        <ele>1118.7</ele>
        <time>2020-09-06T12:04:03.000Z</time>
      </trkpt>
      <trkpt lat="45.2693" lon="5.79764">
        <ele>1119.8</ele>
        <time>2020-09-06T12:04:05.000Z</time>
      </trkpt>
      <trkpt lat="45.26931" lon="5.79769">
        <ele>1120.5</ele>
        <time>2020-09-06T12:04:07.000Z</time>
      </trkpt>
      <trkpt lat="45.26931" lon="5.79773">
        <ele>1121</ele>
        <time>2020-09-06T12:04:08.000Z</time>
      </trkpt>
      <trkpt lat="45.26933" lon="5.79782">
        <ele>1122.3</ele>
        <time>2020-09-06T12:04:12.000Z</time>
      </trkpt>
      <trkpt lat="45.26934" lon="5.79784">
        <ele>1122.7</ele>
        <time>2020-09-06T12:04:13.000Z</time>
      </trkpt>
      <trkpt lat="45.26935" lon="5.79786">
        <ele>1123</ele>
        <time>2020-09-06T12:04:14.000Z</time>
      </trkpt>
      <trkpt lat="45.26937" lon="5.79788">
        <ele>1123.5</ele>
        <time>2020-09-06T12:04:16.000Z</time>
      </trkpt>
      <trkpt lat="45.26938" lon="5.79788">
        <ele>1123.7</ele>
        <time>2020-09-06T12:04:17.000Z</time>
      </trkpt>
      <trkpt lat="45.26939" lon="5.79788">
        <ele>1123.9</ele>
        <time>2020-09-06T12:04:18.000Z</time>
      </trkpt>
      <trkpt lat="45.26944" lon="5.79789">
        <ele>1124.6</ele>
        <time>2020-09-06T12:04:20.000Z</time>
      </trkpt>
      <trkpt lat="45.26945" lon="5.79792">
        <ele>1125</ele>
        <time>2020-09-06T12:04:22.000Z</time>
      </trkpt>
      <trkpt lat="45.26946" lon="5.798">
        <ele>1125.5</ele>
        <time>2020-09-06T12:04:26.000Z</time>
      </trkpt>
      <trkpt lat="45.26946" lon="5.79801">
        <ele>1125.5</ele>
        <time>2020-09-06T12:04:27.000Z</time>
      </trkpt>
      <trkpt lat="45.26947" lon="5.79802">
        <ele>1125.6</ele>
        <time>2020-09-06T12:04:28.000Z</time>
      </trkpt>
      <trkpt lat="45.26954" lon="5.79804">
        <ele>1126.3</ele>
        <time>2020-09-06T12:04:34.000Z</time>
      </trkpt>
      <trkpt lat="45.26959" lon="5.79804">
        <ele>1126.7</ele>
        <time>2020-09-06T12:04:39.000Z</time>
      </trkpt>
      <trkpt lat="45.26961" lon="5.79802">
        <ele>1127</ele>
        <time>2020-09-06T12:04:41.000Z</time>
      </trkpt>
      <trkpt lat="45.26963" lon="5.79802">
        <ele>1127.1</ele>
        <time>2020-09-06T12:04:42.000Z</time>
      </trkpt>
      <trkpt lat="45.2697" lon="5.79799">
        <ele>1128</ele>
        <time>2020-09-06T12:04:44.000Z</time>
      </trkpt>
      <trkpt lat="45.26975" lon="5.79804">
        <ele>1128.1</ele>
        <time>2020-09-06T12:04:47.000Z</time>
      </trkpt>
      <trkpt lat="45.26977" lon="5.79807">
        <ele>1128.1</ele>
        <time>2020-09-06T12:04:49.000Z</time>
      </trkpt>
      <trkpt lat="45.26981" lon="5.79816">
        <ele>1127.4</ele>
        <time>2020-09-06T12:04:53.000Z</time>
      </trkpt>
      <trkpt lat="45.26985" lon="5.79823">
        <ele>1126.7</ele>
        <time>2020-09-06T12:04:57.000Z</time>
      </trkpt>
      <trkpt lat="45.26987" lon="5.79827">
        <ele>1126.3</ele>
        <time>2020-09-06T12:04:59.000Z</time>
      </trkpt>
      <trkpt lat="45.26988" lon="5.79828">
        <ele>1126.1</ele>
        <time>2020-09-06T12:05:00.000Z</time>
      </trkpt>
      <trkpt lat="45.26991" lon="5.79833">
        <ele>1125.3</ele>
        <time>2020-09-06T12:05:03.000Z</time>
      </trkpt>
      <trkpt lat="45.26994" lon="5.79836">
        <ele>1125.5</ele>
        <time>2020-09-06T12:05:06.000Z</time>
      </trkpt>
      <trkpt lat="45.26996" lon="5.79839">
        <ele>1125.6</ele>
        <time>2020-09-06T12:05:08.000Z</time>
      </trkpt>
      <trkpt lat="45.26997" lon="5.79841">
        <ele>1125.7</ele>
        <time>2020-09-06T12:05:09.000Z</time>
      </trkpt>
      <trkpt lat="45.26998" lon="5.79841">
        <ele>1125.7</ele>
        <time>2020-09-06T12:05:10.000Z</time>
      </trkpt>
      <trkpt lat="45.27002" lon="5.7984">
        <ele>1126.1</ele>
        <time>2020-09-06T12:05:12.000Z</time>
      </trkpt>
      <trkpt lat="45.27003" lon="5.7984">
        <ele>1126.3</ele>
        <time>2020-09-06T12:05:13.000Z</time>
      </trkpt>
      <trkpt lat="45.27008" lon="5.79838">
        <ele>1127.8</ele>
        <time>2020-09-06T12:05:20.000Z</time>
      </trkpt>
      <trkpt lat="45.2701" lon="5.7984">
        <ele>1128.6</ele>
        <time>2020-09-06T12:05:24.000Z</time>
      </trkpt>
      <trkpt lat="45.2701" lon="5.79841">
        <ele>1128.5</ele>
        <time>2020-09-06T12:05:26.000Z</time>
      </trkpt>
      <trkpt lat="45.27013" lon="5.79843">
        <ele>1129.5</ele>
        <time>2020-09-06T12:05:30.000Z</time>
      </trkpt>
      <trkpt lat="45.27014" lon="5.79844">
        <ele>1129.9</ele>
        <time>2020-09-06T12:05:31.000Z</time>
      </trkpt>
      <trkpt lat="45.2702" lon="5.79845">
        <ele>1131.6</ele>
        <time>2020-09-06T12:05:35.000Z</time>
      </trkpt>
      <trkpt lat="45.27023" lon="5.79847">
        <ele>1132.5</ele>
        <time>2020-09-06T12:05:37.000Z</time>
      </trkpt>
      <trkpt lat="45.27025" lon="5.79849">
        <ele>1132.9</ele>
        <time>2020-09-06T12:05:38.000Z</time>
      </trkpt>
      <trkpt lat="45.27027" lon="5.7985">
        <ele>1133.4</ele>
        <time>2020-09-06T12:05:40.000Z</time>
      </trkpt>
      <trkpt lat="45.2703" lon="5.79853">
        <ele>1134</ele>
        <time>2020-09-06T12:05:43.000Z</time>
      </trkpt>
      <trkpt lat="45.27031" lon="5.79854">
        <ele>1134.2</ele>
        <time>2020-09-06T12:05:44.000Z</time>
      </trkpt>
      <trkpt lat="45.27038" lon="5.79859">
        <ele>1135.7</ele>
        <time>2020-09-06T12:05:50.000Z</time>
      </trkpt>
      <trkpt lat="45.27043" lon="5.79861">
        <ele>1136.7</ele>
        <time>2020-09-06T12:05:54.000Z</time>
      </trkpt>
      <trkpt lat="45.27044" lon="5.79863">
        <ele>1137</ele>
        <time>2020-09-06T12:05:56.000Z</time>
      </trkpt>
      <trkpt lat="45.27045" lon="5.79864">
        <ele>1137.1</ele>
        <time>2020-09-06T12:05:57.000Z</time>
      </trkpt>
      <trkpt lat="45.27051" lon="5.7987">
        <ele>1137.7</ele>
        <time>2020-09-06T12:06:02.000Z</time>
      </trkpt>
      <trkpt lat="45.27056" lon="5.79872">
        <ele>1138.3</ele>
        <time>2020-09-06T12:06:05.000Z</time>
      </trkpt>
      <trkpt lat="45.27058" lon="5.79878">
        <ele>1138.1</ele>
        <time>2020-09-06T12:06:08.000Z</time>
      </trkpt>
      <trkpt lat="45.27061" lon="5.79882">
        <ele>1138.1</ele>
        <time>2020-09-06T12:06:12.000Z</time>
      </trkpt>
      <trkpt lat="45.27062" lon="5.79882">
        <ele>1138.1</ele>
        <time>2020-09-06T12:06:13.000Z</time>
      </trkpt>
      <trkpt lat="45.27063" lon="5.79882">
        <ele>1138.5</ele>
        <time>2020-09-06T12:06:14.000Z</time>
      </trkpt>
      <trkpt lat="45.27066" lon="5.79882">
        <ele>1138.8</ele>
        <time>2020-09-06T12:06:16.000Z</time>
      </trkpt>
      <trkpt lat="45.27074" lon="5.79884">
        <ele>1139.7</ele>
        <time>2020-09-06T12:06:20.000Z</time>
      </trkpt>
      <trkpt lat="45.27078" lon="5.79886">
        <ele>1139.9</ele>
        <time>2020-09-06T12:06:23.000Z</time>
      </trkpt>
      <trkpt lat="45.27083" lon="5.7989">
        <ele>1139.6</ele>
        <time>2020-09-06T12:06:26.000Z</time>
      </trkpt>
      <trkpt lat="45.27088" lon="5.79898">
        <ele>1139.4</ele>
        <time>2020-09-06T12:06:30.000Z</time>
      </trkpt>
      <trkpt lat="45.27089" lon="5.799">
        <ele>1139.4</ele>
        <time>2020-09-06T12:06:31.000Z</time>
      </trkpt>
      <trkpt lat="45.27095" lon="5.79913">
        <ele>1138.3</ele>
        <time>2020-09-06T12:06:37.000Z</time>
      </trkpt>
      <trkpt lat="45.27102" lon="5.79923">
        <ele>1139.4</ele>
        <time>2020-09-06T12:06:45.000Z</time>
      </trkpt>
      <trkpt lat="45.27109" lon="5.79937">
        <ele>1141</ele>
        <time>2020-09-06T12:06:52.000Z</time>
      </trkpt>
      <trkpt lat="45.27108" lon="5.79939">
        <ele>1140.9</ele>
        <time>2020-09-06T12:06:57.000Z</time>
      </trkpt>
      <trkpt lat="45.27103" lon="5.79941">
        <ele>1139.7</ele>
        <time>2020-09-06T12:07:02.000Z</time>
      </trkpt>
      <trkpt lat="45.27099" lon="5.79941">
        <ele>1138.9</ele>
        <time>2020-09-06T12:07:04.000Z</time>
      </trkpt>
      <trkpt lat="45.27097" lon="5.79939">
        <ele>1138.3</ele>
        <time>2020-09-06T12:07:05.000Z</time>
      </trkpt>
      <trkpt lat="45.27093" lon="5.79936">
        <ele>1137.5</ele>
        <time>2020-09-06T12:07:06.000Z</time>
      </trkpt>
      <trkpt lat="45.27089" lon="5.79934">
        <ele>1136.3</ele>
        <time>2020-09-06T12:07:08.000Z</time>
      </trkpt>
      <trkpt lat="45.27086" lon="5.79936">
        <ele>1135.9</ele>
        <time>2020-09-06T12:07:09.000Z</time>
      </trkpt>
      <trkpt lat="45.27084" lon="5.79939">
        <ele>1135.5</ele>
        <time>2020-09-06T12:07:10.000Z</time>
      </trkpt>
      <trkpt lat="45.27082" lon="5.79938">
        <ele>1135.4</ele>
        <time>2020-09-06T12:07:11.000Z</time>
      </trkpt>
      <trkpt lat="45.2708" lon="5.79937">
        <ele>1135.3</ele>
        <time>2020-09-06T12:07:12.000Z</time>
      </trkpt>
      <trkpt lat="45.27078" lon="5.79933">
        <ele>1135.1</ele>
        <time>2020-09-06T12:07:13.000Z</time>
      </trkpt>
      <trkpt lat="45.27078" lon="5.79929">
        <ele>1134.8</ele>
        <time>2020-09-06T12:07:14.000Z</time>
      </trkpt>
      <trkpt lat="45.2708" lon="5.79924">
        <ele>1134.4</ele>
        <time>2020-09-06T12:07:16.000Z</time>
      </trkpt>
      <trkpt lat="45.27079" lon="5.79924">
        <ele>1134.4</ele>
        <time>2020-09-06T12:07:17.000Z</time>
      </trkpt>
      <trkpt lat="45.27075" lon="5.79928">
        <ele>1134.7</ele>
        <time>2020-09-06T12:07:19.000Z</time>
      </trkpt>
      <trkpt lat="45.27073" lon="5.79932">
        <ele>1135.1</ele>
        <time>2020-09-06T12:07:20.000Z</time>
      </trkpt>
      <trkpt lat="45.27067" lon="5.7994">
        <ele>1136.1</ele>
        <time>2020-09-06T12:07:23.000Z</time>
      </trkpt>
      <trkpt lat="45.27063" lon="5.79933">
        <ele>1135.3</ele>
        <time>2020-09-06T12:07:25.000Z</time>
      </trkpt>
      <trkpt lat="45.27061" lon="5.79929">
        <ele>1134.8</ele>
        <time>2020-09-06T12:07:26.000Z</time>
      </trkpt>
      <trkpt lat="45.27059" lon="5.79923">
        <ele>1134.1</ele>
        <time>2020-09-06T12:07:27.000Z</time>
      </trkpt>
      <trkpt lat="45.27054" lon="5.7991">
        <ele>1133.7</ele>
        <time>2020-09-06T12:07:31.000Z</time>
      </trkpt>
      <trkpt lat="45.27054" lon="5.79904">
        <ele>1134.4</ele>
        <time>2020-09-06T12:07:33.000Z</time>
      </trkpt>
      <trkpt lat="45.27052" lon="5.799">
        <ele>1134.7</ele>
        <time>2020-09-06T12:07:34.000Z</time>
      </trkpt>
      <trkpt lat="45.2705" lon="5.79897">
        <ele>1134.8</ele>
        <time>2020-09-06T12:07:35.000Z</time>
      </trkpt>
      <trkpt lat="45.27046" lon="5.79892">
        <ele>1134.8</ele>
        <time>2020-09-06T12:07:36.000Z</time>
      </trkpt>
      <trkpt lat="45.27041" lon="5.79881">
        <ele>1135</ele>
        <time>2020-09-06T12:07:38.000Z</time>
      </trkpt>
      <trkpt lat="45.27037" lon="5.79873">
        <ele>1134.8</ele>
        <time>2020-09-06T12:07:41.000Z</time>
      </trkpt>
      <trkpt lat="45.27034" lon="5.79869">
        <ele>1134.3</ele>
        <time>2020-09-06T12:07:42.000Z</time>
      </trkpt>
      <trkpt lat="45.27025" lon="5.79866">
        <ele>1132.5</ele>
        <time>2020-09-06T12:07:45.000Z</time>
      </trkpt>
      <trkpt lat="45.27023" lon="5.79864">
        <ele>1132.3</ele>
        <time>2020-09-06T12:07:46.000Z</time>
      </trkpt>
      <trkpt lat="45.27008" lon="5.79847">
        <ele>1128.3</ele>
        <time>2020-09-06T12:07:49.000Z</time>
      </trkpt>
      <trkpt lat="45.26996" lon="5.79841">
        <ele>1125.8</ele>
        <time>2020-09-06T12:07:52.000Z</time>
      </trkpt>
      <trkpt lat="45.26993" lon="5.7984">
        <ele>1125.9</ele>
        <time>2020-09-06T12:07:53.000Z</time>
      </trkpt>
      <trkpt lat="45.26989" lon="5.79836">
        <ele>1125.7</ele>
        <time>2020-09-06T12:07:54.000Z</time>
      </trkpt>
      <trkpt lat="45.26983" lon="5.79825">
        <ele>1126.6</ele>
        <time>2020-09-06T12:07:56.000Z</time>
      </trkpt>
      <trkpt lat="45.26978" lon="5.79812">
        <ele>1127.7</ele>
        <time>2020-09-06T12:07:58.000Z</time>
      </trkpt>
      <trkpt lat="45.26973" lon="5.79801">
        <ele>1128.2</ele>
        <time>2020-09-06T12:08:00.000Z</time>
      </trkpt>
      <trkpt lat="45.26968" lon="5.798">
        <ele>1127.7</ele>
        <time>2020-09-06T12:08:02.000Z</time>
      </trkpt>
      <trkpt lat="45.26965" lon="5.79803">
        <ele>1127.3</ele>
        <time>2020-09-06T12:08:03.000Z</time>
      </trkpt>
      <trkpt lat="45.26962" lon="5.79806">
        <ele>1126.9</ele>
        <time>2020-09-06T12:08:05.000Z</time>
      </trkpt>
      <trkpt lat="45.26962" lon="5.79806">
        <ele>1126.9</ele>
        <time>2020-09-06T12:08:07.000Z</time>
      </trkpt>
      <trkpt lat="45.26958" lon="5.79805">
        <ele>1126.7</ele>
        <time>2020-09-06T12:08:09.000Z</time>
      </trkpt>
      <trkpt lat="45.26956" lon="5.79805">
        <ele>1126.5</ele>
        <time>2020-09-06T12:08:10.000Z</time>
      </trkpt>
      <trkpt lat="45.26953" lon="5.79806">
        <ele>1126.3</ele>
        <time>2020-09-06T12:08:12.000Z</time>
      </trkpt>
      <trkpt lat="45.26953" lon="5.79805">
        <ele>1126.2</ele>
        <time>2020-09-06T12:08:13.000Z</time>
      </trkpt>
      <trkpt lat="45.26952" lon="5.79802">
        <ele>1126.1</ele>
        <time>2020-09-06T12:08:14.000Z</time>
      </trkpt>
      <trkpt lat="45.26948" lon="5.79797">
        <ele>1125.5</ele>
        <time>2020-09-06T12:08:16.000Z</time>
      </trkpt>
      <trkpt lat="45.26945" lon="5.79797">
        <ele>1125.2</ele>
        <time>2020-09-06T12:08:17.000Z</time>
      </trkpt>
      <trkpt lat="45.26943" lon="5.79794">
        <ele>1124.8</ele>
        <time>2020-09-06T12:08:18.000Z</time>
      </trkpt>
      <trkpt lat="45.2694" lon="5.79783">
        <ele>1123.7</ele>
        <time>2020-09-06T12:08:20.000Z</time>
      </trkpt>
      <trkpt lat="45.26941" lon="5.79776">
        <ele>1123.3</ele>
        <time>2020-09-06T12:08:21.000Z</time>
      </trkpt>
      <trkpt lat="45.26942" lon="5.79769">
        <ele>1123.1</ele>
        <time>2020-09-06T12:08:23.000Z</time>
      </trkpt>
      <trkpt lat="45.26937" lon="5.79772">
        <ele>1122.3</ele>
        <time>2020-09-06T12:08:25.000Z</time>
      </trkpt>
      <trkpt lat="45.26929" lon="5.79773">
        <ele>1120.5</ele>
        <time>2020-09-06T12:08:27.000Z</time>
      </trkpt>
      <trkpt lat="45.26925" lon="5.79768">
        <ele>1119</ele>
        <time>2020-09-06T12:08:28.000Z</time>
      </trkpt>
      <trkpt lat="45.26921" lon="5.7976">
        <ele>1116.9</ele>
        <time>2020-09-06T12:08:31.000Z</time>
      </trkpt>
      <trkpt lat="45.2692" lon="5.79759">
        <ele>1116.5</ele>
        <time>2020-09-06T12:08:32.000Z</time>
      </trkpt>
      <trkpt lat="45.26917" lon="5.79752">
        <ele>1114.4</ele>
        <time>2020-09-06T12:08:34.000Z</time>
      </trkpt>
      <trkpt lat="45.26906" lon="5.79738">
        <ele>1115.9</ele>
        <time>2020-09-06T12:08:39.000Z</time>
      </trkpt>
      <trkpt lat="45.26905" lon="5.79735">
        <ele>1116</ele>
        <time>2020-09-06T12:08:40.000Z</time>
      </trkpt>
      <trkpt lat="45.26895" lon="5.79726">
        <ele>1116.9</ele>
        <time>2020-09-06T12:08:42.000Z</time>
      </trkpt>
      <trkpt lat="45.26897" lon="5.79727">
        <ele>1116.8</ele>
        <time>2020-09-06T12:08:43.000Z</time>
      </trkpt>
      <trkpt lat="45.26913" lon="5.79734">
        <ele>1115.5</ele>
        <time>2020-09-06T12:08:48.000Z</time>
      </trkpt>
      <trkpt lat="45.26931" lon="5.79745">
        <ele>1119.2</ele>
        <time>2020-09-06T12:08:54.000Z</time>
      </trkpt>
      <trkpt lat="45.26941" lon="5.79748">
        <ele>1121.8</ele>
        <time>2020-09-06T12:08:57.000Z</time>
      </trkpt>
      <trkpt lat="45.26951" lon="5.79758">
        <ele>1125</ele>
        <time>2020-09-06T12:09:01.000Z</time>
      </trkpt>
      <trkpt lat="45.26963" lon="5.79767">
        <ele>1128.1</ele>
        <time>2020-09-06T12:09:06.000Z</time>
      </trkpt>
      <trkpt lat="45.26965" lon="5.79769">
        <ele>1128.4</ele>
        <time>2020-09-06T12:09:07.000Z</time>
      </trkpt>
      <trkpt lat="45.26967" lon="5.79772">
        <ele>1128.8</ele>
        <time>2020-09-06T12:09:08.000Z</time>
      </trkpt>
      <trkpt lat="45.26981" lon="5.79794">
        <ele>1129.7</ele>
        <time>2020-09-06T12:09:17.000Z</time>
      </trkpt>
      <trkpt lat="45.2699" lon="5.79804">
        <ele>1129.5</ele>
        <time>2020-09-06T12:09:22.000Z</time>
      </trkpt>
      <trkpt lat="45.26991" lon="5.79805">
        <ele>1129.3</ele>
        <time>2020-09-06T12:09:23.000Z</time>
      </trkpt>
      <trkpt lat="45.26999" lon="5.79814">
        <ele>1128.5</ele>
        <time>2020-09-06T12:09:29.000Z</time>
      </trkpt>
      <trkpt lat="45.27001" lon="5.79817">
        <ele>1128.5</ele>
        <time>2020-09-06T12:09:31.000Z</time>
      </trkpt>
      <trkpt lat="45.27003" lon="5.79819">
        <ele>1128.6</ele>
        <time>2020-09-06T12:09:32.000Z</time>
      </trkpt>
      <trkpt lat="45.27009" lon="5.79828">
        <ele>1129</ele>
        <time>2020-09-06T12:09:36.000Z</time>
      </trkpt>
      <trkpt lat="45.27011" lon="5.79831">
        <ele>1129</ele>
        <time>2020-09-06T12:09:38.000Z</time>
      </trkpt>
      <trkpt lat="45.27014" lon="5.79836">
        <ele>1129.7</ele>
        <time>2020-09-06T12:09:41.000Z</time>
      </trkpt>
      <trkpt lat="45.27017" lon="5.7984">
        <ele>1130.6</ele>
        <time>2020-09-06T12:09:44.000Z</time>
      </trkpt>
      <trkpt lat="45.27021" lon="5.79841">
        <ele>1131.9</ele>
        <time>2020-09-06T12:09:47.000Z</time>
      </trkpt>
      <trkpt lat="45.27023" lon="5.79843">
        <ele>1132.5</ele>
        <time>2020-09-06T12:09:48.000Z</time>
      </trkpt>
      <trkpt lat="45.27025" lon="5.79845">
        <ele>1133.1</ele>
        <time>2020-09-06T12:09:49.000Z</time>
      </trkpt>
      <trkpt lat="45.27026" lon="5.79846">
        <ele>1133.2</ele>
        <time>2020-09-06T12:09:50.000Z</time>
      </trkpt>
      <trkpt lat="45.27027" lon="5.79846">
        <ele>1133.5</ele>
        <time>2020-09-06T12:09:51.000Z</time>
      </trkpt>
      <trkpt lat="45.2703" lon="5.79848">
        <ele>1134.2</ele>
        <time>2020-09-06T12:09:53.000Z</time>
      </trkpt>
      <trkpt lat="45.27031" lon="5.79851">
        <ele>1134.4</ele>
        <time>2020-09-06T12:09:54.000Z</time>
      </trkpt>
      <trkpt lat="45.27035" lon="5.79854">
        <ele>1135.3</ele>
        <time>2020-09-06T12:09:57.000Z</time>
      </trkpt>
      <trkpt lat="45.27036" lon="5.79855">
        <ele>1135.7</ele>
        <time>2020-09-06T12:09:58.000Z</time>
      </trkpt>
      <trkpt lat="45.27039" lon="5.79859">
        <ele>1136</ele>
        <time>2020-09-06T12:10:00.000Z</time>
      </trkpt>
      <trkpt lat="45.27042" lon="5.79861">
        <ele>1136.6</ele>
        <time>2020-09-06T12:10:02.000Z</time>
      </trkpt>
      <trkpt lat="45.27045" lon="5.7986">
        <ele>1137.4</ele>
        <time>2020-09-06T12:10:04.000Z</time>
      </trkpt>
      <trkpt lat="45.27048" lon="5.79864">
        <ele>1137.6</ele>
        <time>2020-09-06T12:10:06.000Z</time>
      </trkpt>
      <trkpt lat="45.27051" lon="5.79867">
        <ele>1137.9</ele>
        <time>2020-09-06T12:10:08.000Z</time>
      </trkpt>
      <trkpt lat="45.27053" lon="5.79871">
        <ele>1138</ele>
        <time>2020-09-06T12:10:10.000Z</time>
      </trkpt>
      <trkpt lat="45.27054" lon="5.79872">
        <ele>1138.1</ele>
        <time>2020-09-06T12:10:11.000Z</time>
      </trkpt>
      <trkpt lat="45.27059" lon="5.79877">
        <ele>1138.4</ele>
        <time>2020-09-06T12:10:14.000Z</time>
      </trkpt>
      <trkpt lat="45.27063" lon="5.79881">
        <ele>1138.5</ele>
        <time>2020-09-06T12:10:18.000Z</time>
      </trkpt>
      <trkpt lat="45.27066" lon="5.79883">
        <ele>1138.7</ele>
        <time>2020-09-06T12:10:20.000Z</time>
      </trkpt>
      <trkpt lat="45.27069" lon="5.79883">
        <ele>1139.1</ele>
        <time>2020-09-06T12:10:23.000Z</time>
      </trkpt>
      <trkpt lat="45.27073" lon="5.79884">
        <ele>1139.4</ele>
        <time>2020-09-06T12:10:25.000Z</time>
      </trkpt>
      <trkpt lat="45.27083" lon="5.7989">
        <ele>1139.8</ele>
        <time>2020-09-06T12:10:31.000Z</time>
      </trkpt>
      <trkpt lat="45.27085" lon="5.79893">
        <ele>1139.5</ele>
        <time>2020-09-06T12:10:32.000Z</time>
      </trkpt>
      <trkpt lat="45.27086" lon="5.79895">
        <ele>1139.7</ele>
        <time>2020-09-06T12:10:33.000Z</time>
      </trkpt>
      <trkpt lat="45.2709" lon="5.79898">
        <ele>1140</ele>
        <time>2020-09-06T12:10:35.000Z</time>
      </trkpt>
      <trkpt lat="45.27095" lon="5.79906">
        <ele>1139.6</ele>
        <time>2020-09-06T12:10:39.000Z</time>
      </trkpt>
      <trkpt lat="45.27097" lon="5.79911">
        <ele>1139.1</ele>
        <time>2020-09-06T12:10:41.000Z</time>
      </trkpt>
      <trkpt lat="45.271" lon="5.79915">
        <ele>1138.9</ele>
        <time>2020-09-06T12:10:44.000Z</time>
      </trkpt>
      <trkpt lat="45.27102" lon="5.79917">
        <ele>1139.2</ele>
        <time>2020-09-06T12:10:46.000Z</time>
      </trkpt>
      <trkpt lat="45.27104" lon="5.79919">
        <ele>1139.8</ele>
        <time>2020-09-06T12:10:48.000Z</time>
      </trkpt>
      <trkpt lat="45.27109" lon="5.79928">
        <ele>1141.1</ele>
        <time>2020-09-06T12:10:53.000Z</time>
      </trkpt>
      <trkpt lat="45.27117" lon="5.7994">
        <ele>1142.8</ele>
        <time>2020-09-06T12:10:57.000Z</time>
      </trkpt>
      <trkpt lat="45.27117" lon="5.79948">
        <ele>1142.7</ele>
        <time>2020-09-06T12:10:58.000Z</time>
      </trkpt>
      <trkpt lat="45.27115" lon="5.79964">
        <ele>1141.9</ele>
        <time>2020-09-06T12:11:00.000Z</time>
      </trkpt>
      <trkpt lat="45.2711" lon="5.79974">
        <ele>1141.1</ele>
        <time>2020-09-06T12:11:02.000Z</time>
      </trkpt>
      <trkpt lat="45.27107" lon="5.79991">
        <ele>1140.7</ele>
        <time>2020-09-06T12:11:06.000Z</time>
      </trkpt>
      <trkpt lat="45.27106" lon="5.80001">
        <ele>1140.8</ele>
        <time>2020-09-06T12:11:09.000Z</time>
      </trkpt>
      <trkpt lat="45.27107" lon="5.80009">
        <ele>1142.6</ele>
        <time>2020-09-06T12:11:12.000Z</time>
      </trkpt>
      <trkpt lat="45.27112" lon="5.80019">
        <ele>1145</ele>
        <time>2020-09-06T12:11:16.000Z</time>
      </trkpt>
      <trkpt lat="45.27113" lon="5.80021">
        <ele>1145.4</ele>
        <time>2020-09-06T12:11:17.000Z</time>
      </trkpt>
      <trkpt lat="45.27122" lon="5.80035">
        <ele>1148.3</ele>
        <time>2020-09-06T12:11:24.000Z</time>
      </trkpt>
      <trkpt lat="45.27123" lon="5.80037">
        <ele>1148.7</ele>
        <time>2020-09-06T12:11:25.000Z</time>
      </trkpt>
      <trkpt lat="45.27125" lon="5.80049">
        <ele>1150.7</ele>
        <time>2020-09-06T12:11:30.000Z</time>
      </trkpt>
      <trkpt lat="45.27126" lon="5.80054">
        <ele>1151.8</ele>
        <time>2020-09-06T12:11:33.000Z</time>
      </trkpt>
      <trkpt lat="45.27128" lon="5.80063">
        <ele>1153.2</ele>
        <time>2020-09-06T12:11:37.000Z</time>
      </trkpt>
      <trkpt lat="45.27134" lon="5.80074">
        <ele>1154.8</ele>
        <time>2020-09-06T12:11:43.000Z</time>
      </trkpt>
      <trkpt lat="45.27136" lon="5.80076">
        <ele>1155</ele>
        <time>2020-09-06T12:11:44.000Z</time>
      </trkpt>
      <trkpt lat="45.27138" lon="5.8008">
        <ele>1155.4</ele>
        <time>2020-09-06T12:11:46.000Z</time>
      </trkpt>
      <trkpt lat="45.27141" lon="5.8009">
        <ele>1157</ele>
        <time>2020-09-06T12:11:51.000Z</time>
      </trkpt>
      <trkpt lat="45.27142" lon="5.80092">
        <ele>1157.5</ele>
        <time>2020-09-06T12:11:52.000Z</time>
      </trkpt>
      <trkpt lat="45.27145" lon="5.80103">
        <ele>1159.1</ele>
        <time>2020-09-06T12:11:57.000Z</time>
      </trkpt>
      <trkpt lat="45.27148" lon="5.80115">
        <ele>1161.1</ele>
        <time>2020-09-06T12:12:03.000Z</time>
      </trkpt>
      <trkpt lat="45.27148" lon="5.80118">
        <ele>1161.5</ele>
        <time>2020-09-06T12:12:04.000Z</time>
      </trkpt>
      <trkpt lat="45.2715" lon="5.80126">
        <ele>1162.8</ele>
        <time>2020-09-06T12:12:07.000Z</time>
      </trkpt>
      <trkpt lat="45.27152" lon="5.80136">
        <ele>1164.1</ele>
        <time>2020-09-06T12:12:11.000Z</time>
      </trkpt>
      <trkpt lat="45.27154" lon="5.80142">
        <ele>1165</ele>
        <time>2020-09-06T12:12:14.000Z</time>
      </trkpt>
      <trkpt lat="45.27157" lon="5.8015">
        <ele>1165.9</ele>
        <time>2020-09-06T12:12:18.000Z</time>
      </trkpt>
      <trkpt lat="45.27157" lon="5.80154">
        <ele>1166.5</ele>
        <time>2020-09-06T12:12:20.000Z</time>
      </trkpt>
      <trkpt lat="45.27158" lon="5.80164">
        <ele>1168.2</ele>
        <time>2020-09-06T12:12:25.000Z</time>
      </trkpt>
      <trkpt lat="45.27157" lon="5.80173">
        <ele>1169.9</ele>
        <time>2020-09-06T12:12:29.000Z</time>
      </trkpt>
      <trkpt lat="45.27154" lon="5.80178">
        <ele>1171.3</ele>
        <time>2020-09-06T12:12:32.000Z</time>
      </trkpt>
      <trkpt lat="45.27152" lon="5.8018">
        <ele>1172.1</ele>
        <time>2020-09-06T12:12:34.000Z</time>
      </trkpt>
      <trkpt lat="45.27145" lon="5.80181">
        <ele>1173.6</ele>
        <time>2020-09-06T12:12:37.000Z</time>
      </trkpt>
      <trkpt lat="45.27142" lon="5.80181">
        <ele>1174.3</ele>
        <time>2020-09-06T12:12:39.000Z</time>
      </trkpt>
      <trkpt lat="45.27137" lon="5.80176">
        <ele>1174.3</ele>
        <time>2020-09-06T12:12:42.000Z</time>
      </trkpt>
      <trkpt lat="45.27135" lon="5.80174">
        <ele>1174.2</ele>
        <time>2020-09-06T12:12:43.000Z</time>
      </trkpt>
      <trkpt lat="45.27131" lon="5.80168">
        <ele>1173.8</ele>
        <time>2020-09-06T12:12:46.000Z</time>
      </trkpt>
      <trkpt lat="45.27128" lon="5.80158">
        <ele>1172.1</ele>
        <time>2020-09-06T12:12:50.000Z</time>
      </trkpt>
      <trkpt lat="45.27126" lon="5.80146">
        <ele>1170.1</ele>
        <time>2020-09-06T12:12:55.000Z</time>
      </trkpt>
      <trkpt lat="45.27124" lon="5.80144">
        <ele>1169.9</ele>
        <time>2020-09-06T12:12:56.000Z</time>
      </trkpt>
      <trkpt lat="45.2712" lon="5.80133">
        <ele>1168.2</ele>
        <time>2020-09-06T12:13:01.000Z</time>
      </trkpt>
      <trkpt lat="45.27116" lon="5.80124">
        <ele>1166.7</ele>
        <time>2020-09-06T12:13:05.000Z</time>
      </trkpt>
      <trkpt lat="45.27114" lon="5.8012">
        <ele>1166.1</ele>
        <time>2020-09-06T12:13:07.000Z</time>
      </trkpt>
      <trkpt lat="45.27105" lon="5.80107">
        <ele>1164</ele>
        <time>2020-09-06T12:13:14.000Z</time>
      </trkpt>
      <trkpt lat="45.27101" lon="5.80099">
        <ele>1162.6</ele>
        <time>2020-09-06T12:13:18.000Z</time>
      </trkpt>
      <trkpt lat="45.27101" lon="5.80097">
        <ele>1162.1</ele>
        <time>2020-09-06T12:13:19.000Z</time>
      </trkpt>
      <trkpt lat="45.27098" lon="5.80091">
        <ele>1160.7</ele>
        <time>2020-09-06T12:13:23.000Z</time>
      </trkpt>
      <trkpt lat="45.27095" lon="5.80087">
        <ele>1160</ele>
        <time>2020-09-06T12:13:25.000Z</time>
      </trkpt>
      <trkpt lat="45.27087" lon="5.80079">
        <ele>1158.6</ele>
        <time>2020-09-06T12:13:31.000Z</time>
      </trkpt>
      <trkpt lat="45.27086" lon="5.80078">
        <ele>1158.4</ele>
        <time>2020-09-06T12:13:32.000Z</time>
      </trkpt>
      <trkpt lat="45.27079" lon="5.80069">
        <ele>1157.9</ele>
        <time>2020-09-06T12:13:38.000Z</time>
      </trkpt>
      <trkpt lat="45.27072" lon="5.80061">
        <ele>1158</ele>
        <time>2020-09-06T12:13:45.000Z</time>
      </trkpt>
      <trkpt lat="45.27066" lon="5.80057">
        <ele>1159.1</ele>
        <time>2020-09-06T12:13:50.000Z</time>
      </trkpt>
      <trkpt lat="45.27065" lon="5.80056">
        <ele>1159.2</ele>
        <time>2020-09-06T12:13:51.000Z</time>
      </trkpt>
      <trkpt lat="45.27064" lon="5.80055">
        <ele>1159.3</ele>
        <time>2020-09-06T12:13:52.000Z</time>
      </trkpt>
      <trkpt lat="45.27058" lon="5.80053">
        <ele>1160.6</ele>
        <time>2020-09-06T12:13:56.000Z</time>
      </trkpt>
      <trkpt lat="45.27054" lon="5.8005">
        <ele>1161.2</ele>
        <time>2020-09-06T12:13:59.000Z</time>
      </trkpt>
      <trkpt lat="45.27051" lon="5.80049">
        <ele>1161.7</ele>
        <time>2020-09-06T12:14:01.000Z</time>
      </trkpt>
      <trkpt lat="45.27047" lon="5.80048">
        <ele>1162.4</ele>
        <time>2020-09-06T12:14:03.000Z</time>
      </trkpt>
      <trkpt lat="45.27044" lon="5.80047">
        <ele>1163</ele>
        <time>2020-09-06T12:14:06.000Z</time>
      </trkpt>
      <trkpt lat="45.27042" lon="5.80045">
        <ele>1163.2</ele>
        <time>2020-09-06T12:14:08.000Z</time>
      </trkpt>
      <trkpt lat="45.27036" lon="5.80044">
        <ele>1164.7</ele>
        <time>2020-09-06T12:14:11.000Z</time>
      </trkpt>
      <trkpt lat="45.27032" lon="5.80043">
        <ele>1165.5</ele>
        <time>2020-09-06T12:14:13.000Z</time>
      </trkpt>
      <trkpt lat="45.27022" lon="5.80036">
        <ele>1166.2</ele>
        <time>2020-09-06T12:14:18.000Z</time>
      </trkpt>
      <trkpt lat="45.27018" lon="5.80034">
        <ele>1166.7</ele>
        <time>2020-09-06T12:14:20.000Z</time>
      </trkpt>
      <trkpt lat="45.27002" lon="5.80026">
        <ele>1168.6</ele>
        <time>2020-09-06T12:14:28.000Z</time>
      </trkpt>
      <trkpt lat="45.26994" lon="5.8002">
        <ele>1167.6</ele>
        <time>2020-09-06T12:14:32.000Z</time>
      </trkpt>
      <trkpt lat="45.26989" lon="5.80017">
        <ele>1167.3</ele>
        <time>2020-09-06T12:14:35.000Z</time>
      </trkpt>
      <trkpt lat="45.26987" lon="5.80015">
        <ele>1166.8</ele>
        <time>2020-09-06T12:14:36.000Z</time>
      </trkpt>
      <trkpt lat="45.26983" lon="5.8001">
        <ele>1165.8</ele>
        <time>2020-09-06T12:14:39.000Z</time>
      </trkpt>
      <trkpt lat="45.26982" lon="5.80009">
        <ele>1165.6</ele>
        <time>2020-09-06T12:14:40.000Z</time>
      </trkpt>
      <trkpt lat="45.26979" lon="5.80008">
        <ele>1165.5</ele>
        <time>2020-09-06T12:14:42.000Z</time>
      </trkpt>
      <trkpt lat="45.26965" lon="5.80007">
        <ele>1167.7</ele>
        <time>2020-09-06T12:14:49.000Z</time>
      </trkpt>
      <trkpt lat="45.26964" lon="5.80006">
        <ele>1167.7</ele>
        <time>2020-09-06T12:14:50.000Z</time>
      </trkpt>
      <trkpt lat="45.26956" lon="5.8">
        <ele>1167.1</ele>
        <time>2020-09-06T12:14:55.000Z</time>
      </trkpt>
      <trkpt lat="45.26951" lon="5.79998">
        <ele>1167.3</ele>
        <time>2020-09-06T12:14:58.000Z</time>
      </trkpt>
      <trkpt lat="45.26943" lon="5.79997">
        <ele>1168.6</ele>
        <time>2020-09-06T12:15:02.000Z</time>
      </trkpt>
      <trkpt lat="45.26941" lon="5.79998">
        <ele>1169</ele>
        <time>2020-09-06T12:15:03.000Z</time>
      </trkpt>
      <trkpt lat="45.2693" lon="5.80005">
        <ele>1173.1</ele>
        <time>2020-09-06T12:15:09.000Z</time>
      </trkpt>
      <trkpt lat="45.26917" lon="5.80005">
        <ele>1175.4</ele>
        <time>2020-09-06T12:15:14.000Z</time>
      </trkpt>
      <trkpt lat="45.26914" lon="5.80001">
        <ele>1174.6</ele>
        <time>2020-09-06T12:15:16.000Z</time>
      </trkpt>
      <trkpt lat="45.2691" lon="5.79994">
        <ele>1173.3</ele>
        <time>2020-09-06T12:15:20.000Z</time>
      </trkpt>
      <trkpt lat="45.26902" lon="5.79978">
        <ele>1170.2</ele>
        <time>2020-09-06T12:15:25.000Z</time>
      </trkpt>
      <trkpt lat="45.26891" lon="5.79967">
        <ele>1169.2</ele>
        <time>2020-09-06T12:15:28.000Z</time>
      </trkpt>
      <trkpt lat="45.26887" lon="5.79964">
        <ele>1169.2</ele>
        <time>2020-09-06T12:15:29.000Z</time>
      </trkpt>
      <trkpt lat="45.2688" lon="5.79958">
        <ele>1169.2</ele>
        <time>2020-09-06T12:15:31.000Z</time>
      </trkpt>
      <trkpt lat="45.2687" lon="5.79948">
        <ele>1168.6</ele>
        <time>2020-09-06T12:15:34.000Z</time>
      </trkpt>
      <trkpt lat="45.26863" lon="5.79943">
        <ele>1168.8</ele>
        <time>2020-09-06T12:15:37.000Z</time>
      </trkpt>
      <trkpt lat="45.26859" lon="5.79941">
        <ele>1169.2</ele>
        <time>2020-09-06T12:15:38.000Z</time>
      </trkpt>
      <trkpt lat="45.2685" lon="5.79945">
        <ele>1171.8</ele>
        <time>2020-09-06T12:15:43.000Z</time>
      </trkpt>
      <trkpt lat="45.26852" lon="5.7996">
        <ele>1174.2</ele>
        <time>2020-09-06T12:15:49.000Z</time>
      </trkpt>
      <trkpt lat="45.26857" lon="5.79965">
        <ele>1174.4</ele>
        <time>2020-09-06T12:15:53.000Z</time>
      </trkpt>
      <trkpt lat="45.2686" lon="5.79968">
        <ele>1174.5</ele>
        <time>2020-09-06T12:15:55.000Z</time>
      </trkpt>
      <trkpt lat="45.26864" lon="5.79971">
        <ele>1174.5</ele>
        <time>2020-09-06T12:15:57.000Z</time>
      </trkpt>
      <trkpt lat="45.26872" lon="5.79973">
        <ele>1173.5</ele>
        <time>2020-09-06T12:16:01.000Z</time>
      </trkpt>
      <trkpt lat="45.26885" lon="5.79975">
        <ele>1172.2</ele>
        <time>2020-09-06T12:16:07.000Z</time>
      </trkpt>
      <trkpt lat="45.26889" lon="5.79978">
        <ele>1172.1</ele>
        <time>2020-09-06T12:16:09.000Z</time>
      </trkpt>
      <trkpt lat="45.26898" lon="5.79987">
        <ele>1173</ele>
        <time>2020-09-06T12:16:14.000Z</time>
      </trkpt>
      <trkpt lat="45.26903" lon="5.79995">
        <ele>1174.4</ele>
        <time>2020-09-06T12:16:17.000Z</time>
      </trkpt>
      <trkpt lat="45.26908" lon="5.80007">
        <ele>1176.9</ele>
        <time>2020-09-06T12:16:21.000Z</time>
      </trkpt>
      <trkpt lat="45.26908" lon="5.80009">
        <ele>1177.5</ele>
        <time>2020-09-06T12:16:22.000Z</time>
      </trkpt>
      <trkpt lat="45.26912" lon="5.80016">
        <ele>1179</ele>
        <time>2020-09-06T12:16:25.000Z</time>
      </trkpt>
      <trkpt lat="45.26916" lon="5.80024">
        <ele>1181.1</ele>
        <time>2020-09-06T12:16:29.000Z</time>
      </trkpt>
      <trkpt lat="45.26917" lon="5.80027">
        <ele>1181.8</ele>
        <time>2020-09-06T12:16:30.000Z</time>
      </trkpt>
      <trkpt lat="45.26917" lon="5.80037">
        <ele>1184.7</ele>
        <time>2020-09-06T12:16:34.000Z</time>
      </trkpt>
      <trkpt lat="45.26915" lon="5.80043">
        <ele>1186.6</ele>
        <time>2020-09-06T12:16:36.000Z</time>
      </trkpt>
      <trkpt lat="45.26914" lon="5.80045">
        <ele>1187.1</ele>
        <time>2020-09-06T12:16:37.000Z</time>
      </trkpt>
      <trkpt lat="45.26912" lon="5.80045">
        <ele>1187.5</ele>
        <time>2020-09-06T12:16:38.000Z</time>
      </trkpt>
      <trkpt lat="45.26908" lon="5.80044">
        <ele>1187.4</ele>
        <time>2020-09-06T12:16:40.000Z</time>
      </trkpt>
      <trkpt lat="45.26903" lon="5.80041">
        <ele>1187.1</ele>
        <time>2020-09-06T12:16:43.000Z</time>
      </trkpt>
      <trkpt lat="45.269" lon="5.80036">
        <ele>1185.9</ele>
        <time>2020-09-06T12:16:46.000Z</time>
      </trkpt>
      <trkpt lat="45.26898" lon="5.80034">
        <ele>1185.4</ele>
        <time>2020-09-06T12:16:48.000Z</time>
      </trkpt>
      <trkpt lat="45.26894" lon="5.8003">
        <ele>1184.7</ele>
        <time>2020-09-06T12:16:52.000Z</time>
      </trkpt>
      <trkpt lat="45.26891" lon="5.80028">
        <ele>1184.6</ele>
        <time>2020-09-06T12:16:54.000Z</time>
      </trkpt>
      <trkpt lat="45.2689" lon="5.80028">
        <ele>1184.6</ele>
        <time>2020-09-06T12:16:55.000Z</time>
      </trkpt>
      <trkpt lat="45.26885" lon="5.80028">
        <ele>1185.1</ele>
        <time>2020-09-06T12:16:58.000Z</time>
      </trkpt>
      <trkpt lat="45.26884" lon="5.80029">
        <ele>1185.5</ele>
        <time>2020-09-06T12:16:59.000Z</time>
      </trkpt>
      <trkpt lat="45.26877" lon="5.80033">
        <ele>1187.3</ele>
        <time>2020-09-06T12:17:03.000Z</time>
      </trkpt>
      <trkpt lat="45.26875" lon="5.80034">
        <ele>1187.5</ele>
        <time>2020-09-06T12:17:04.000Z</time>
      </trkpt>
      <trkpt lat="45.26873" lon="5.80034">
        <ele>1187.8</ele>
        <time>2020-09-06T12:17:05.000Z</time>
      </trkpt>
      <trkpt lat="45.26866" lon="5.80037">
        <ele>1189.2</ele>
        <time>2020-09-06T12:17:09.000Z</time>
      </trkpt>
      <trkpt lat="45.26857" lon="5.80046">
        <ele>1191.9</ele>
        <time>2020-09-06T12:17:15.000Z</time>
      </trkpt>
      <trkpt lat="45.26856" lon="5.80047">
        <ele>1192.3</ele>
        <time>2020-09-06T12:17:16.000Z</time>
      </trkpt>
      <trkpt lat="45.26847" lon="5.80053">
        <ele>1194.5</ele>
        <time>2020-09-06T12:17:22.000Z</time>
      </trkpt>
      <trkpt lat="45.26846" lon="5.80055">
        <ele>1194.8</ele>
        <time>2020-09-06T12:17:23.000Z</time>
      </trkpt>
      <trkpt lat="45.2684" lon="5.80061">
        <ele>1196.7</ele>
        <time>2020-09-06T12:17:27.000Z</time>
      </trkpt>
      <trkpt lat="45.26837" lon="5.80065">
        <ele>1197.8</ele>
        <time>2020-09-06T12:17:29.000Z</time>
      </trkpt>
      <trkpt lat="45.26834" lon="5.80075">
        <ele>1200.1</ele>
        <time>2020-09-06T12:17:33.000Z</time>
      </trkpt>
      <trkpt lat="45.26831" lon="5.8008">
        <ele>1201.5</ele>
        <time>2020-09-06T12:17:36.000Z</time>
      </trkpt>
      <trkpt lat="45.26825" lon="5.80089">
        <ele>1204.2</ele>
        <time>2020-09-06T12:17:40.000Z</time>
      </trkpt>
      <trkpt lat="45.26822" lon="5.80093">
        <ele>1205.3</ele>
        <time>2020-09-06T12:17:43.000Z</time>
      </trkpt>
      <trkpt lat="45.26819" lon="5.80094">
        <ele>1206</ele>
        <time>2020-09-06T12:17:45.000Z</time>
      </trkpt>
      <trkpt lat="45.26818" lon="5.80095">
        <ele>1206.2</ele>
        <time>2020-09-06T12:17:46.000Z</time>
      </trkpt>
      <trkpt lat="45.26815" lon="5.80096">
        <ele>1206.8</ele>
        <time>2020-09-06T12:17:48.000Z</time>
      </trkpt>
      <trkpt lat="45.26814" lon="5.80096">
        <ele>1207</ele>
        <time>2020-09-06T12:17:49.000Z</time>
      </trkpt>
      <trkpt lat="45.26809" lon="5.80094">
        <ele>1206.9</ele>
        <time>2020-09-06T12:17:52.000Z</time>
      </trkpt>
      <trkpt lat="45.26807" lon="5.80092">
        <ele>1206.3</ele>
        <time>2020-09-06T12:17:54.000Z</time>
      </trkpt>
      <trkpt lat="45.26805" lon="5.80089">
        <ele>1205.6</ele>
        <time>2020-09-06T12:17:57.000Z</time>
      </trkpt>
      <trkpt lat="45.26799" lon="5.80086">
        <ele>1205.3</ele>
        <time>2020-09-06T12:18:01.000Z</time>
      </trkpt>
      <trkpt lat="45.26796" lon="5.80084">
        <ele>1205</ele>
        <time>2020-09-06T12:18:04.000Z</time>
      </trkpt>
      <trkpt lat="45.26791" lon="5.8008">
        <ele>1204.4</ele>
        <time>2020-09-06T12:18:07.000Z</time>
      </trkpt>
      <trkpt lat="45.26789" lon="5.8008">
        <ele>1204.3</ele>
        <time>2020-09-06T12:18:08.000Z</time>
      </trkpt>
      <trkpt lat="45.2678" lon="5.80074">
        <ele>1203.8</ele>
        <time>2020-09-06T12:18:14.000Z</time>
      </trkpt>
      <trkpt lat="45.26772" lon="5.80072">
        <ele>1203.7</ele>
        <time>2020-09-06T12:18:21.000Z</time>
      </trkpt>
      <trkpt lat="45.2677" lon="5.80072">
        <ele>1204</ele>
        <time>2020-09-06T12:18:23.000Z</time>
      </trkpt>
      <trkpt lat="45.26767" lon="5.80072">
        <ele>1204</ele>
        <time>2020-09-06T12:18:26.000Z</time>
      </trkpt>
      <trkpt lat="45.26763" lon="5.80071">
        <ele>1204.1</ele>
        <time>2020-09-06T12:18:29.000Z</time>
      </trkpt>
      <trkpt lat="45.2676" lon="5.8007">
        <ele>1204</ele>
        <time>2020-09-06T12:18:31.000Z</time>
      </trkpt>
      <trkpt lat="45.26758" lon="5.80068">
        <ele>1203.9</ele>
        <time>2020-09-06T12:18:33.000Z</time>
      </trkpt>
      <trkpt lat="45.26755" lon="5.80067">
        <ele>1203.8</ele>
        <time>2020-09-06T12:18:35.000Z</time>
      </trkpt>
      <trkpt lat="45.26753" lon="5.80068">
        <ele>1204</ele>
        <time>2020-09-06T12:18:36.000Z</time>
      </trkpt>
      <trkpt lat="45.26746" lon="5.80069">
        <ele>1205.5</ele>
        <time>2020-09-06T12:18:42.000Z</time>
      </trkpt>
      <trkpt lat="45.26742" lon="5.80071">
        <ele>1207</ele>
        <time>2020-09-06T12:18:46.000Z</time>
      </trkpt>
      <trkpt lat="45.26739" lon="5.80072">
        <ele>1208</ele>
        <time>2020-09-06T12:18:49.000Z</time>
      </trkpt>
      <trkpt lat="45.26737" lon="5.80073">
        <ele>1208.5</ele>
        <time>2020-09-06T12:18:50.000Z</time>
      </trkpt>
      <trkpt lat="45.26729" lon="5.8007">
        <ele>1209.6</ele>
        <time>2020-09-06T12:18:55.000Z</time>
      </trkpt>
      <trkpt lat="45.26726" lon="5.80069">
        <ele>1210</ele>
        <time>2020-09-06T12:18:58.000Z</time>
      </trkpt>
      <trkpt lat="45.26717" lon="5.80065">
        <ele>1211</ele>
        <time>2020-09-06T12:19:04.000Z</time>
      </trkpt>
      <trkpt lat="45.26715" lon="5.80065">
        <ele>1211.5</ele>
        <time>2020-09-06T12:19:05.000Z</time>
      </trkpt>
      <trkpt lat="45.26712" lon="5.80063">
        <ele>1211.6</ele>
        <time>2020-09-06T12:19:07.000Z</time>
      </trkpt>
      <trkpt lat="45.26707" lon="5.8006">
        <ele>1211.6</ele>
        <time>2020-09-06T12:19:10.000Z</time>
      </trkpt>
      <trkpt lat="45.26704" lon="5.80059">
        <ele>1212</ele>
        <time>2020-09-06T12:19:12.000Z</time>
      </trkpt>
      <trkpt lat="45.267" lon="5.80058">
        <ele>1212.6</ele>
        <time>2020-09-06T12:19:15.000Z</time>
      </trkpt>
      <trkpt lat="45.26698" lon="5.80057">
        <ele>1212.8</ele>
        <time>2020-09-06T12:19:17.000Z</time>
      </trkpt>
      <trkpt lat="45.26697" lon="5.80057">
        <ele>1213</ele>
        <time>2020-09-06T12:19:18.000Z</time>
      </trkpt>
      <trkpt lat="45.26694" lon="5.80059">
        <ele>1214.3</ele>
        <time>2020-09-06T12:19:21.000Z</time>
      </trkpt>
      <trkpt lat="45.26693" lon="5.8006">
        <ele>1214.9</ele>
        <time>2020-09-06T12:19:22.000Z</time>
      </trkpt>
      <trkpt lat="45.26691" lon="5.80061">
        <ele>1215.5</ele>
        <time>2020-09-06T12:19:23.000Z</time>
      </trkpt>
      <trkpt lat="45.26684" lon="5.80059">
        <ele>1216.6</ele>
        <time>2020-09-06T12:19:28.000Z</time>
      </trkpt>
      <trkpt lat="45.26672" lon="5.80054">
        <ele>1217.3</ele>
        <time>2020-09-06T12:19:35.000Z</time>
      </trkpt>
      <trkpt lat="45.2667" lon="5.80053">
        <ele>1217.4</ele>
        <time>2020-09-06T12:19:36.000Z</time>
      </trkpt>
      <trkpt lat="45.2666" lon="5.80047">
        <ele>1218.5</ele>
        <time>2020-09-06T12:19:44.000Z</time>
      </trkpt>
      <trkpt lat="45.26658" lon="5.80047">
        <ele>1218.8</ele>
        <time>2020-09-06T12:19:45.000Z</time>
      </trkpt>
      <trkpt lat="45.26655" lon="5.80046">
        <ele>1219.7</ele>
        <time>2020-09-06T12:19:47.000Z</time>
      </trkpt>
      <trkpt lat="45.26651" lon="5.80043">
        <ele>1220.3</ele>
        <time>2020-09-06T12:19:50.000Z</time>
      </trkpt>
      <trkpt lat="45.26647" lon="5.80042">
        <ele>1221.1</ele>
        <time>2020-09-06T12:19:53.000Z</time>
      </trkpt>
      <trkpt lat="45.26644" lon="5.8004">
        <ele>1221.6</ele>
        <time>2020-09-06T12:19:55.000Z</time>
      </trkpt>
      <trkpt lat="45.26642" lon="5.8004">
        <ele>1222.2</ele>
        <time>2020-09-06T12:19:57.000Z</time>
      </trkpt>
      <trkpt lat="45.26637" lon="5.80036">
        <ele>1222.8</ele>
        <time>2020-09-06T12:20:01.000Z</time>
      </trkpt>
      <trkpt lat="45.26635" lon="5.80035">
        <ele>1223</ele>
        <time>2020-09-06T12:20:02.000Z</time>
      </trkpt>
      <trkpt lat="45.26634" lon="5.80034">
        <ele>1223.1</ele>
        <time>2020-09-06T12:20:03.000Z</time>
      </trkpt>
      <trkpt lat="45.26624" lon="5.80028">
        <ele>1224.4</ele>
        <time>2020-09-06T12:20:10.000Z</time>
      </trkpt>
      <trkpt lat="45.26616" lon="5.80021">
        <ele>1224.9</ele>
        <time>2020-09-06T12:20:16.000Z</time>
      </trkpt>
      <trkpt lat="45.26615" lon="5.80019">
        <ele>1224.9</ele>
        <time>2020-09-06T12:20:17.000Z</time>
      </trkpt>
      <trkpt lat="45.26611" lon="5.80013">
        <ele>1224.5</ele>
        <time>2020-09-06T12:20:20.000Z</time>
      </trkpt>
      <trkpt lat="45.26609" lon="5.8001">
        <ele>1223.8</ele>
        <time>2020-09-06T12:20:22.000Z</time>
      </trkpt>
      <trkpt lat="45.26604" lon="5.80004">
        <ele>1223.6</ele>
        <time>2020-09-06T12:20:26.000Z</time>
      </trkpt>
      <trkpt lat="45.26601" lon="5.8">
        <ele>1223.6</ele>
        <time>2020-09-06T12:20:29.000Z</time>
      </trkpt>
      <trkpt lat="45.26591" lon="5.7999">
        <ele>1224.4</ele>
        <time>2020-09-06T12:20:37.000Z</time>
      </trkpt>
      <trkpt lat="45.26589" lon="5.79989">
        <ele>1224.6</ele>
        <time>2020-09-06T12:20:38.000Z</time>
      </trkpt>
      <trkpt lat="45.26581" lon="5.79982">
        <ele>1225.1</ele>
        <time>2020-09-06T12:20:44.000Z</time>
      </trkpt>
      <trkpt lat="45.26579" lon="5.7998">
        <ele>1225.1</ele>
        <time>2020-09-06T12:20:46.000Z</time>
      </trkpt>
      <trkpt lat="45.26573" lon="5.79976">
        <ele>1225.3</ele>
        <time>2020-09-06T12:20:50.000Z</time>
      </trkpt>
      <trkpt lat="45.26569" lon="5.79972">
        <ele>1225.1</ele>
        <time>2020-09-06T12:20:53.000Z</time>
      </trkpt>
      <trkpt lat="45.26558" lon="5.79962">
        <ele>1224.8</ele>
        <time>2020-09-06T12:21:01.000Z</time>
      </trkpt>
      <trkpt lat="45.26554" lon="5.7996">
        <ele>1225</ele>
        <time>2020-09-06T12:21:04.000Z</time>
      </trkpt>
      <trkpt lat="45.26548" lon="5.79957">
        <ele>1225.4</ele>
        <time>2020-09-06T12:21:08.000Z</time>
      </trkpt>
      <trkpt lat="45.26547" lon="5.79956">
        <ele>1225.5</ele>
        <time>2020-09-06T12:21:09.000Z</time>
      </trkpt>
      <trkpt lat="45.26539" lon="5.79952">
        <ele>1226.1</ele>
        <time>2020-09-06T12:21:15.000Z</time>
      </trkpt>
      <trkpt lat="45.26537" lon="5.79952">
        <ele>1226.4</ele>
        <time>2020-09-06T12:21:16.000Z</time>
      </trkpt>
      <trkpt lat="45.26523" lon="5.79948">
        <ele>1228.1</ele>
        <time>2020-09-06T12:21:23.000Z</time>
      </trkpt>
      <trkpt lat="45.26519" lon="5.79947">
        <ele>1229</ele>
        <time>2020-09-06T12:21:25.000Z</time>
      </trkpt>
      <trkpt lat="45.26508" lon="5.79948">
        <ele>1231.6</ele>
        <time>2020-09-06T12:21:31.000Z</time>
      </trkpt>
      <trkpt lat="45.26503" lon="5.79945">
        <ele>1231.9</ele>
        <time>2020-09-06T12:21:34.000Z</time>
      </trkpt>
      <trkpt lat="45.26495" lon="5.79942">
        <ele>1232.9</ele>
        <time>2020-09-06T12:21:39.000Z</time>
      </trkpt>
      <trkpt lat="45.26493" lon="5.79942">
        <ele>1233.1</ele>
        <time>2020-09-06T12:21:40.000Z</time>
      </trkpt>
      <trkpt lat="45.2648" lon="5.79935">
        <ele>1233.8</ele>
        <time>2020-09-06T12:21:48.000Z</time>
      </trkpt>
      <trkpt lat="45.26473" lon="5.79932">
        <ele>1234.6</ele>
        <time>2020-09-06T12:21:52.000Z</time>
      </trkpt>
      <trkpt lat="45.26462" lon="5.79926">
        <ele>1235.1</ele>
        <time>2020-09-06T12:21:57.000Z</time>
      </trkpt>
      <trkpt lat="45.26451" lon="5.79921">
        <ele>1235.9</ele>
        <time>2020-09-06T12:22:03.000Z</time>
      </trkpt>
      <trkpt lat="45.2645" lon="5.7992">
        <ele>1236</ele>
        <time>2020-09-06T12:22:04.000Z</time>
      </trkpt>
      <trkpt lat="45.26436" lon="5.79915">
        <ele>1237.8</ele>
        <time>2020-09-06T12:22:12.000Z</time>
      </trkpt>
      <trkpt lat="45.26434" lon="5.79914">
        <ele>1238</ele>
        <time>2020-09-06T12:22:13.000Z</time>
      </trkpt>
      <trkpt lat="45.2643" lon="5.79913">
        <ele>1238.7</ele>
        <time>2020-09-06T12:22:16.000Z</time>
      </trkpt>
      <trkpt lat="45.26425" lon="5.79911">
        <ele>1239.7</ele>
        <time>2020-09-06T12:22:19.000Z</time>
      </trkpt>
      <trkpt lat="45.26411" lon="5.79906">
        <ele>1242.8</ele>
        <time>2020-09-06T12:22:25.000Z</time>
      </trkpt>
      <trkpt lat="45.26403" lon="5.79904">
        <ele>1244.9</ele>
        <time>2020-09-06T12:22:30.000Z</time>
      </trkpt>
      <trkpt lat="45.26401" lon="5.79903">
        <ele>1245.3</ele>
        <time>2020-09-06T12:22:31.000Z</time>
      </trkpt>
      <trkpt lat="45.26391" lon="5.79895">
        <ele>1247.1</ele>
        <time>2020-09-06T12:22:36.000Z</time>
      </trkpt>
      <trkpt lat="45.26388" lon="5.79891">
        <ele>1247.5</ele>
        <time>2020-09-06T12:22:38.000Z</time>
      </trkpt>
      <trkpt lat="45.26384" lon="5.79885">
        <ele>1247.7</ele>
        <time>2020-09-06T12:22:41.000Z</time>
      </trkpt>
      <trkpt lat="45.26377" lon="5.79881">
        <ele>1249</ele>
        <time>2020-09-06T12:22:43.000Z</time>
      </trkpt>
      <trkpt lat="45.26372" lon="5.79876">
        <ele>1249.6</ele>
        <time>2020-09-06T12:22:46.000Z</time>
      </trkpt>
      <trkpt lat="45.26367" lon="5.79872">
        <ele>1250.4</ele>
        <time>2020-09-06T12:22:49.000Z</time>
      </trkpt>
      <trkpt lat="45.26362" lon="5.79866">
        <ele>1250.8</ele>
        <time>2020-09-06T12:22:52.000Z</time>
      </trkpt>
      <trkpt lat="45.26357" lon="5.79858">
        <ele>1251</ele>
        <time>2020-09-06T12:22:57.000Z</time>
      </trkpt>
      <trkpt lat="45.26353" lon="5.7985">
        <ele>1250.7</ele>
        <time>2020-09-06T12:23:02.000Z</time>
      </trkpt>
      <trkpt lat="45.26352" lon="5.79844">
        <ele>1250</ele>
        <time>2020-09-06T12:23:04.000Z</time>
      </trkpt>
      <trkpt lat="45.26352" lon="5.79844">
        <ele>1250</ele>
        <time>2020-09-06T12:23:05.000Z</time>
      </trkpt>
      <trkpt lat="45.26349" lon="5.79834">
        <ele>1249.2</ele>
        <time>2020-09-06T12:23:09.000Z</time>
      </trkpt>
      <trkpt lat="45.26348" lon="5.79832">
        <ele>1249</ele>
        <time>2020-09-06T12:23:10.000Z</time>
      </trkpt>
      <trkpt lat="45.26344" lon="5.7982">
        <ele>1248.3</ele>
        <time>2020-09-06T12:23:15.000Z</time>
      </trkpt>
      <trkpt lat="45.26342" lon="5.79814">
        <ele>1248.1</ele>
        <time>2020-09-06T12:23:17.000Z</time>
      </trkpt>
      <trkpt lat="45.2634" lon="5.79807">
        <ele>1247.4</ele>
        <time>2020-09-06T12:23:19.000Z</time>
      </trkpt>
      <trkpt lat="45.26338" lon="5.79794">
        <ele>1245.8</ele>
        <time>2020-09-06T12:23:24.000Z</time>
      </trkpt>
      <trkpt lat="45.26337" lon="5.7979">
        <ele>1245.4</ele>
        <time>2020-09-06T12:23:27.000Z</time>
      </trkpt>
      <trkpt lat="45.26337" lon="5.79787">
        <ele>1244.8</ele>
        <time>2020-09-06T12:23:29.000Z</time>
      </trkpt>
      <trkpt lat="45.26336" lon="5.79785">
        <ele>1244.8</ele>
        <time>2020-09-06T12:23:31.000Z</time>
      </trkpt>
      <trkpt lat="45.26334" lon="5.79784">
        <ele>1245.1</ele>
        <time>2020-09-06T12:23:40.000Z</time>
      </trkpt>
      <trkpt lat="45.26332" lon="5.79784">
        <ele>1245.3</ele>
        <time>2020-09-06T12:23:48.000Z</time>
      </trkpt>
      <trkpt lat="45.26332" lon="5.79782">
        <ele>1245.1</ele>
        <time>2020-09-06T12:23:57.000Z</time>
      </trkpt>
      <trkpt lat="45.2633" lon="5.79777">
        <ele>1244.5</ele>
        <time>2020-09-06T12:24:07.000Z</time>
      </trkpt>
      <trkpt lat="45.26332" lon="5.79779">
        <ele>1244.5</ele>
        <time>2020-09-06T12:24:16.000Z</time>
      </trkpt>
      <trkpt lat="45.26333" lon="5.79779">
        <ele>1244.4</ele>
        <time>2020-09-06T12:24:24.000Z</time>
      </trkpt>
      <trkpt lat="45.26333" lon="5.79782">
        <ele>1244.9</ele>
        <time>2020-09-06T12:24:29.000Z</time>
      </trkpt>
      <trkpt lat="45.26338" lon="5.79779">
        <ele>1243.4</ele>
        <time>2020-09-06T12:24:34.000Z</time>
      </trkpt>
      <trkpt lat="45.26339" lon="5.79778">
        <ele>1242.9</ele>
        <time>2020-09-06T12:24:35.000Z</time>
      </trkpt>
      <trkpt lat="45.26341" lon="5.79777">
        <ele>1242.2</ele>
        <time>2020-09-06T12:24:38.000Z</time>
      </trkpt>
      <trkpt lat="45.26343" lon="5.79775">
        <ele>1241.5</ele>
        <time>2020-09-06T12:24:40.000Z</time>
      </trkpt>
      <trkpt lat="45.26344" lon="5.79773">
        <ele>1241</ele>
        <time>2020-09-06T12:24:42.000Z</time>
      </trkpt>
      <trkpt lat="45.26339" lon="5.79772">
        <ele>1241.8</ele>
        <time>2020-09-06T12:24:45.000Z</time>
      </trkpt>
      <trkpt lat="45.26335" lon="5.79771">
        <ele>1242.5</ele>
        <time>2020-09-06T12:24:46.000Z</time>
      </trkpt>
      <trkpt lat="45.26335" lon="5.79771">
        <ele>1242.5</ele>
        <time>2020-09-06T12:24:47.000Z</time>
      </trkpt>
      <trkpt lat="45.2633" lon="5.79772">
        <ele>1243.3</ele>
        <time>2020-09-06T12:24:48.000Z</time>
      </trkpt>
      <trkpt lat="45.26321" lon="5.79773">
        <ele>1245.2</ele>
        <time>2020-09-06T12:24:50.000Z</time>
      </trkpt>
      <trkpt lat="45.26317" lon="5.79774">
        <ele>1246</ele>
        <time>2020-09-06T12:24:51.000Z</time>
      </trkpt>
      <trkpt lat="45.26313" lon="5.79774">
        <ele>1246.6</ele>
        <time>2020-09-06T12:24:52.000Z</time>
      </trkpt>
      <trkpt lat="45.26305" lon="5.79774">
        <ele>1248.2</ele>
        <time>2020-09-06T12:24:54.000Z</time>
      </trkpt>
      <trkpt lat="45.26301" lon="5.79776">
        <ele>1249</ele>
        <time>2020-09-06T12:24:55.000Z</time>
      </trkpt>
      <trkpt lat="45.26293" lon="5.7978">
        <ele>1251.2</ele>
        <time>2020-09-06T12:24:57.000Z</time>
      </trkpt>
      <trkpt lat="45.26291" lon="5.79778">
        <ele>1251.2</ele>
        <time>2020-09-06T12:24:58.000Z</time>
      </trkpt>
      <trkpt lat="45.26289" lon="5.79776">
        <ele>1251.1</ele>
        <time>2020-09-06T12:24:59.000Z</time>
      </trkpt>
      <trkpt lat="45.26285" lon="5.79772">
        <ele>1250.8</ele>
        <time>2020-09-06T12:25:00.000Z</time>
      </trkpt>
      <trkpt lat="45.26279" lon="5.79766">
        <ele>1250.8</ele>
        <time>2020-09-06T12:25:02.000Z</time>
      </trkpt>
      <trkpt lat="45.26277" lon="5.79766">
        <ele>1250.9</ele>
        <time>2020-09-06T12:25:03.000Z</time>
      </trkpt>
      <trkpt lat="45.26273" lon="5.79761">
        <ele>1250.5</ele>
        <time>2020-09-06T12:25:05.000Z</time>
      </trkpt>
      <trkpt lat="45.26269" lon="5.79753">
        <ele>1249.7</ele>
        <time>2020-09-06T12:25:06.000Z</time>
      </trkpt>
      <trkpt lat="45.26261" lon="5.79743">
        <ele>1248.8</ele>
        <time>2020-09-06T12:25:09.000Z</time>
      </trkpt>
      <trkpt lat="45.26259" lon="5.7974">
        <ele>1248.3</ele>
        <time>2020-09-06T12:25:10.000Z</time>
      </trkpt>
      <trkpt lat="45.26258" lon="5.79733">
        <ele>1246.9</ele>
        <time>2020-09-06T12:25:12.000Z</time>
      </trkpt>
      <trkpt lat="45.2626" lon="5.7973">
        <ele>1246.1</ele>
        <time>2020-09-06T12:25:13.000Z</time>
      </trkpt>
      <trkpt lat="45.26261" lon="5.79729">
        <ele>1245.6</ele>
        <time>2020-09-06T12:25:14.000Z</time>
      </trkpt>
      <trkpt lat="45.26264" lon="5.79729">
        <ele>1245.1</ele>
        <time>2020-09-06T12:25:15.000Z</time>
      </trkpt>
      <trkpt lat="45.26267" lon="5.7973">
        <ele>1244.6</ele>
        <time>2020-09-06T12:25:16.000Z</time>
      </trkpt>
      <trkpt lat="45.2627" lon="5.79731">
        <ele>1244.3</ele>
        <time>2020-09-06T12:25:17.000Z</time>
      </trkpt>
      <trkpt lat="45.26275" lon="5.79731">
        <ele>1243.5</ele>
        <time>2020-09-06T12:25:19.000Z</time>
      </trkpt>
      <trkpt lat="45.26278" lon="5.79731">
        <ele>1243</ele>
        <time>2020-09-06T12:25:21.000Z</time>
      </trkpt>
      <trkpt lat="45.26281" lon="5.79732">
        <ele>1242.7</ele>
        <time>2020-09-06T12:25:22.000Z</time>
      </trkpt>
      <trkpt lat="45.26283" lon="5.79734">
        <ele>1242.6</ele>
        <time>2020-09-06T12:25:24.000Z</time>
      </trkpt>
      <trkpt lat="45.26286" lon="5.79731">
        <ele>1241.3</ele>
        <time>2020-09-06T12:25:25.000Z</time>
      </trkpt>
      <trkpt lat="45.26287" lon="5.79729">
        <ele>1240.6</ele>
        <time>2020-09-06T12:25:26.000Z</time>
      </trkpt>
      <trkpt lat="45.26289" lon="5.79727">
        <ele>1239.8</ele>
        <time>2020-09-06T12:25:27.000Z</time>
      </trkpt>
      <trkpt lat="45.2629" lon="5.79725">
        <ele>1238.8</ele>
        <time>2020-09-06T12:25:28.000Z</time>
      </trkpt>
      <trkpt lat="45.26302" lon="5.79727">
        <ele>1237.1</ele>
        <time>2020-09-06T12:25:29.000Z</time>
      </trkpt>
      <trkpt lat="45.26305" lon="5.79725">
        <ele>1235.9</ele>
        <time>2020-09-06T12:25:30.000Z</time>
      </trkpt>
      <trkpt lat="45.26307" lon="5.79724">
        <ele>1235.3</ele>
        <time>2020-09-06T12:25:31.000Z</time>
      </trkpt>
      <trkpt lat="45.26307" lon="5.79718">
        <ele>1233.5</ele>
        <time>2020-09-06T12:25:33.000Z</time>
      </trkpt>
      <trkpt lat="45.26306" lon="5.79715">
        <ele>1232.8</ele>
        <time>2020-09-06T12:25:34.000Z</time>
      </trkpt>
      <trkpt lat="45.26305" lon="5.79709">
        <ele>1231.2</ele>
        <time>2020-09-06T12:25:35.000Z</time>
      </trkpt>
      <trkpt lat="45.26304" lon="5.79703">
        <ele>1229.8</ele>
        <time>2020-09-06T12:25:37.000Z</time>
      </trkpt>
      <trkpt lat="45.26303" lon="5.79694">
        <ele>1227.2</ele>
        <time>2020-09-06T12:25:38.000Z</time>
      </trkpt>
      <trkpt lat="45.26301" lon="5.79688">
        <ele>1225.9</ele>
        <time>2020-09-06T12:25:39.000Z</time>
      </trkpt>
      <trkpt lat="45.26298" lon="5.79683">
        <ele>1225.2</ele>
        <time>2020-09-06T12:25:40.000Z</time>
      </trkpt>
      <trkpt lat="45.26296" lon="5.79672">
        <ele>1222.7</ele>
        <time>2020-09-06T12:25:42.000Z</time>
      </trkpt>
      <trkpt lat="45.26295" lon="5.79668">
        <ele>1221.9</ele>
        <time>2020-09-06T12:25:43.000Z</time>
      </trkpt>
      <trkpt lat="45.26294" lon="5.79664">
        <ele>1221.1</ele>
        <time>2020-09-06T12:25:44.000Z</time>
      </trkpt>
      <trkpt lat="45.26293" lon="5.7966">
        <ele>1220.1</ele>
        <time>2020-09-06T12:25:45.000Z</time>
      </trkpt>
      <trkpt lat="45.26288" lon="5.79651">
        <ele>1219</ele>
        <time>2020-09-06T12:25:47.000Z</time>
      </trkpt>
      <trkpt lat="45.26278" lon="5.79632">
        <ele>1216.6</ele>
        <time>2020-09-06T12:25:50.000Z</time>
      </trkpt>
      <trkpt lat="45.26277" lon="5.79625">
        <ele>1215.1</ele>
        <time>2020-09-06T12:25:51.000Z</time>
      </trkpt>
      <trkpt lat="45.26277" lon="5.79618">
        <ele>1213.3</ele>
        <time>2020-09-06T12:25:52.000Z</time>
      </trkpt>
      <trkpt lat="45.26275" lon="5.7961">
        <ele>1211.7</ele>
        <time>2020-09-06T12:25:53.000Z</time>
      </trkpt>
      <trkpt lat="45.26279" lon="5.79609">
        <ele>1210.2</ele>
        <time>2020-09-06T12:25:54.000Z</time>
      </trkpt>
      <trkpt lat="45.2628" lon="5.7961">
        <ele>1209.9</ele>
        <time>2020-09-06T12:25:55.000Z</time>
      </trkpt>
      <trkpt lat="45.26285" lon="5.79618">
        <ele>1210.5</ele>
        <time>2020-09-06T12:25:57.000Z</time>
      </trkpt>
      <trkpt lat="45.26288" lon="5.79618">
        <ele>1209.5</ele>
        <time>2020-09-06T12:25:59.000Z</time>
      </trkpt>
      <trkpt lat="45.26291" lon="5.79619">
        <ele>1208.8</ele>
        <time>2020-09-06T12:26:00.000Z</time>
      </trkpt>
      <trkpt lat="45.26295" lon="5.79621">
        <ele>1208.3</ele>
        <time>2020-09-06T12:26:01.000Z</time>
      </trkpt>
      <trkpt lat="45.26299" lon="5.79623">
        <ele>1207.6</ele>
        <time>2020-09-06T12:26:03.000Z</time>
      </trkpt>
      <trkpt lat="45.26302" lon="5.79625">
        <ele>1207.1</ele>
        <time>2020-09-06T12:26:04.000Z</time>
      </trkpt>
      <trkpt lat="45.26311" lon="5.79629">
        <ele>1205.5</ele>
        <time>2020-09-06T12:26:06.000Z</time>
      </trkpt>
      <trkpt lat="45.26317" lon="5.79632">
        <ele>1204.1</ele>
        <time>2020-09-06T12:26:07.000Z</time>
      </trkpt>
      <trkpt lat="45.26327" lon="5.79633">
        <ele>1201.4</ele>
        <time>2020-09-06T12:26:08.000Z</time>
      </trkpt>
      <trkpt lat="45.26331" lon="5.79632">
        <ele>1199.9</ele>
        <time>2020-09-06T12:26:09.000Z</time>
      </trkpt>
      <trkpt lat="45.26335" lon="5.79631">
        <ele>1198.8</ele>
        <time>2020-09-06T12:26:11.000Z</time>
      </trkpt>
      <trkpt lat="45.26335" lon="5.7963">
        <ele>1198.5</ele>
        <time>2020-09-06T12:26:12.000Z</time>
      </trkpt>
      <trkpt lat="45.26335" lon="5.7963">
        <ele>1198.6</ele>
        <time>2020-09-06T12:26:13.000Z</time>
      </trkpt>
      <trkpt lat="45.26335" lon="5.7963">
        <ele>1198.5</ele>
        <time>2020-09-06T12:26:15.000Z</time>
      </trkpt>
      <trkpt lat="45.26334" lon="5.79625">
        <ele>1197.1</ele>
        <time>2020-09-06T12:26:17.000Z</time>
      </trkpt>
      <trkpt lat="45.26334" lon="5.79624">
        <ele>1196.8</ele>
        <time>2020-09-06T12:26:18.000Z</time>
      </trkpt>
      <trkpt lat="45.26334" lon="5.79621">
        <ele>1195.7</ele>
        <time>2020-09-06T12:26:19.000Z</time>
      </trkpt>
      <trkpt lat="45.26334" lon="5.79616">
        <ele>1194.1</ele>
        <time>2020-09-06T12:26:20.000Z</time>
      </trkpt>
      <trkpt lat="45.26331" lon="5.79611">
        <ele>1193.6</ele>
        <time>2020-09-06T12:26:21.000Z</time>
      </trkpt>
      <trkpt lat="45.26328" lon="5.79608">
        <ele>1193.6</ele>
        <time>2020-09-06T12:26:22.000Z</time>
      </trkpt>
      <trkpt lat="45.26323" lon="5.79605">
        <ele>1194</ele>
        <time>2020-09-06T12:26:24.000Z</time>
      </trkpt>
      <trkpt lat="45.26323" lon="5.79602">
        <ele>1193.4</ele>
        <time>2020-09-06T12:26:25.000Z</time>
      </trkpt>
      <trkpt lat="45.26323" lon="5.79599">
        <ele>1192.2</ele>
        <time>2020-09-06T12:26:26.000Z</time>
      </trkpt>
      <trkpt lat="45.26323" lon="5.79592">
        <ele>1190.2</ele>
        <time>2020-09-06T12:26:27.000Z</time>
      </trkpt>
      <trkpt lat="45.26323" lon="5.79587">
        <ele>1188.7</ele>
        <time>2020-09-06T12:26:28.000Z</time>
      </trkpt>
      <trkpt lat="45.26323" lon="5.79584">
        <ele>1188</ele>
        <time>2020-09-06T12:26:29.000Z</time>
      </trkpt>
      <trkpt lat="45.26324" lon="5.7958">
        <ele>1186.5</ele>
        <time>2020-09-06T12:26:31.000Z</time>
      </trkpt>
      <trkpt lat="45.26327" lon="5.79573">
        <ele>1183.8</ele>
        <time>2020-09-06T12:26:33.000Z</time>
      </trkpt>
      <trkpt lat="45.26328" lon="5.79569">
        <ele>1183</ele>
        <time>2020-09-06T12:26:34.000Z</time>
      </trkpt>
      <trkpt lat="45.26328" lon="5.79567">
        <ele>1182.2</ele>
        <time>2020-09-06T12:26:35.000Z</time>
      </trkpt>
      <trkpt lat="45.26327" lon="5.79561">
        <ele>1181.3</ele>
        <time>2020-09-06T12:26:36.000Z</time>
      </trkpt>
      <trkpt lat="45.26327" lon="5.79557">
        <ele>1180.4</ele>
        <time>2020-09-06T12:26:37.000Z</time>
      </trkpt>
      <trkpt lat="45.26327" lon="5.79552">
        <ele>1179.3</ele>
        <time>2020-09-06T12:26:38.000Z</time>
      </trkpt>
      <trkpt lat="45.26328" lon="5.79547">
        <ele>1178</ele>
        <time>2020-09-06T12:26:39.000Z</time>
      </trkpt>
      <trkpt lat="45.26328" lon="5.79541">
        <ele>1176.7</ele>
        <time>2020-09-06T12:26:40.000Z</time>
      </trkpt>
      <trkpt lat="45.26333" lon="5.79539">
        <ele>1174.8</ele>
        <time>2020-09-06T12:26:42.000Z</time>
      </trkpt>
      <trkpt lat="45.26341" lon="5.79542">
        <ele>1174.4</ele>
        <time>2020-09-06T12:26:44.000Z</time>
      </trkpt>
      <trkpt lat="45.26345" lon="5.79542">
        <ele>1173.8</ele>
        <time>2020-09-06T12:26:45.000Z</time>
      </trkpt>
      <trkpt lat="45.26345" lon="5.79543">
        <ele>1174.1</ele>
        <time>2020-09-06T12:26:46.000Z</time>
      </trkpt>
      <trkpt lat="45.26344" lon="5.79542">
        <ele>1174.1</ele>
        <time>2020-09-06T12:26:47.000Z</time>
      </trkpt>
      <trkpt lat="45.26346" lon="5.79543">
        <ele>1173.9</ele>
        <time>2020-09-06T12:26:49.000Z</time>
      </trkpt>
      <trkpt lat="45.26346" lon="5.79534">
        <ele>1171.8</ele>
        <time>2020-09-06T12:26:50.000Z</time>
      </trkpt>
      <trkpt lat="45.26348" lon="5.79523">
        <ele>1169</ele>
        <time>2020-09-06T12:26:51.000Z</time>
      </trkpt>
      <trkpt lat="45.26348" lon="5.79513">
        <ele>1166.7</ele>
        <time>2020-09-06T12:26:52.000Z</time>
      </trkpt>
      <trkpt lat="45.26349" lon="5.79506">
        <ele>1165</ele>
        <time>2020-09-06T12:26:53.000Z</time>
      </trkpt>
      <trkpt lat="45.26349" lon="5.79499">
        <ele>1163.1</ele>
        <time>2020-09-06T12:26:54.000Z</time>
      </trkpt>
      <trkpt lat="45.26359" lon="5.79473">
        <ele>1155.4</ele>
        <time>2020-09-06T12:26:59.000Z</time>
      </trkpt>
      <trkpt lat="45.26363" lon="5.79447">
        <ele>1148.3</ele>
        <time>2020-09-06T12:27:04.000Z</time>
      </trkpt>
      <trkpt lat="45.26366" lon="5.79444">
        <ele>1146.8</ele>
        <time>2020-09-06T12:27:06.000Z</time>
      </trkpt>
      <trkpt lat="45.26368" lon="5.79441">
        <ele>1145.8</ele>
        <time>2020-09-06T12:27:08.000Z</time>
      </trkpt>
      <trkpt lat="45.2637" lon="5.79441">
        <ele>1145.3</ele>
        <time>2020-09-06T12:27:09.000Z</time>
      </trkpt>
      <trkpt lat="45.26371" lon="5.79438">
        <ele>1144.2</ele>
        <time>2020-09-06T12:27:11.000Z</time>
      </trkpt>
      <trkpt lat="45.2637" lon="5.79433">
        <ele>1143.2</ele>
        <time>2020-09-06T12:27:12.000Z</time>
      </trkpt>
      <trkpt lat="45.26372" lon="5.7943">
        <ele>1142.1</ele>
        <time>2020-09-06T12:27:13.000Z</time>
      </trkpt>
      <trkpt lat="45.26371" lon="5.79423">
        <ele>1140.6</ele>
        <time>2020-09-06T12:27:14.000Z</time>
      </trkpt>
      <trkpt lat="45.26372" lon="5.79419">
        <ele>1139.3</ele>
        <time>2020-09-06T12:27:15.000Z</time>
      </trkpt>
      <trkpt lat="45.26372" lon="5.79415">
        <ele>1138.2</ele>
        <time>2020-09-06T12:27:16.000Z</time>
      </trkpt>
      <trkpt lat="45.26372" lon="5.79412">
        <ele>1137.3</ele>
        <time>2020-09-06T12:27:17.000Z</time>
      </trkpt>
      <trkpt lat="45.26372" lon="5.79408">
        <ele>1136.4</ele>
        <time>2020-09-06T12:27:18.000Z</time>
      </trkpt>
      <trkpt lat="45.26371" lon="5.79399">
        <ele>1134.4</ele>
        <time>2020-09-06T12:27:20.000Z</time>
      </trkpt>
      <trkpt lat="45.26368" lon="5.79391">
        <ele>1133.1</ele>
        <time>2020-09-06T12:27:22.000Z</time>
      </trkpt>
      <trkpt lat="45.26366" lon="5.79385">
        <ele>1131.8</ele>
        <time>2020-09-06T12:27:23.000Z</time>
      </trkpt>
      <trkpt lat="45.26366" lon="5.7938">
        <ele>1130.6</ele>
        <time>2020-09-06T12:27:24.000Z</time>
      </trkpt>
      <trkpt lat="45.26367" lon="5.79379">
        <ele>1129.8</ele>
        <time>2020-09-06T12:27:25.000Z</time>
      </trkpt>
      <trkpt lat="45.26369" lon="5.79377">
        <ele>1129</ele>
        <time>2020-09-06T12:27:26.000Z</time>
      </trkpt>
      <trkpt lat="45.2637" lon="5.79377">
        <ele>1128.8</ele>
        <time>2020-09-06T12:27:27.000Z</time>
      </trkpt>
      <trkpt lat="45.26372" lon="5.79379">
        <ele>1128.7</ele>
        <time>2020-09-06T12:27:28.000Z</time>
      </trkpt>
      <trkpt lat="45.26373" lon="5.79381">
        <ele>1129</ele>
        <time>2020-09-06T12:27:29.000Z</time>
      </trkpt>
      <trkpt lat="45.26374" lon="5.79385">
        <ele>1129.6</ele>
        <time>2020-09-06T12:27:30.000Z</time>
      </trkpt>
      <trkpt lat="45.26379" lon="5.79389">
        <ele>1129.4</ele>
        <time>2020-09-06T12:27:32.000Z</time>
      </trkpt>
      <trkpt lat="45.2638" lon="5.79387">
        <ele>1128.5</ele>
        <time>2020-09-06T12:27:33.000Z</time>
      </trkpt>
      <trkpt lat="45.26383" lon="5.79385">
        <ele>1127.3</ele>
        <time>2020-09-06T12:27:34.000Z</time>
      </trkpt>
      <trkpt lat="45.26386" lon="5.7938">
        <ele>1125.2</ele>
        <time>2020-09-06T12:27:36.000Z</time>
      </trkpt>
      <trkpt lat="45.26388" lon="5.7937">
        <ele>1121.8</ele>
        <time>2020-09-06T12:27:38.000Z</time>
      </trkpt>
      <trkpt lat="45.26387" lon="5.79366">
        <ele>1120.9</ele>
        <time>2020-09-06T12:27:39.000Z</time>
      </trkpt>
      <trkpt lat="45.26386" lon="5.79361">
        <ele>1120</ele>
        <time>2020-09-06T12:27:40.000Z</time>
      </trkpt>
      <trkpt lat="45.26386" lon="5.79359">
        <ele>1119.4</ele>
        <time>2020-09-06T12:27:41.000Z</time>
      </trkpt>
      <trkpt lat="45.26386" lon="5.79358">
        <ele>1119.1</ele>
        <time>2020-09-06T12:27:42.000Z</time>
      </trkpt>
      <trkpt lat="45.26389" lon="5.79357">
        <ele>1118</ele>
        <time>2020-09-06T12:27:43.000Z</time>
      </trkpt>
      <trkpt lat="45.2639" lon="5.79355">
        <ele>1117.3</ele>
        <time>2020-09-06T12:27:44.000Z</time>
      </trkpt>
      <trkpt lat="45.2639" lon="5.79354">
        <ele>1116.9</ele>
        <time>2020-09-06T12:27:45.000Z</time>
      </trkpt>
      <trkpt lat="45.2639" lon="5.7935">
        <ele>1115.9</ele>
        <time>2020-09-06T12:27:46.000Z</time>
      </trkpt>
      <trkpt lat="45.26393" lon="5.79349">
        <ele>1115</ele>
        <time>2020-09-06T12:27:48.000Z</time>
      </trkpt>
      <trkpt lat="45.26396" lon="5.79353">
        <ele>1115.1</ele>
        <time>2020-09-06T12:27:50.000Z</time>
      </trkpt>
      <trkpt lat="45.26397" lon="5.79353">
        <ele>1114.9</ele>
        <time>2020-09-06T12:27:51.000Z</time>
      </trkpt>
      <trkpt lat="45.26398" lon="5.79353">
        <ele>1114.6</ele>
        <time>2020-09-06T12:27:52.000Z</time>
      </trkpt>
      <trkpt lat="45.26399" lon="5.7935">
        <ele>1113.4</ele>
        <time>2020-09-06T12:27:53.000Z</time>
      </trkpt>
      <trkpt lat="45.264" lon="5.79346">
        <ele>1112</ele>
        <time>2020-09-06T12:27:54.000Z</time>
      </trkpt>
      <trkpt lat="45.26401" lon="5.79341">
        <ele>1110.4</ele>
        <time>2020-09-06T12:27:55.000Z</time>
      </trkpt>
      <trkpt lat="45.26401" lon="5.79337">
        <ele>1109.5</ele>
        <time>2020-09-06T12:27:56.000Z</time>
      </trkpt>
      <trkpt lat="45.26398" lon="5.79331">
        <ele>1108.5</ele>
        <time>2020-09-06T12:27:58.000Z</time>
      </trkpt>
      <trkpt lat="45.26396" lon="5.79329">
        <ele>1108.2</ele>
        <time>2020-09-06T12:27:59.000Z</time>
      </trkpt>
      <trkpt lat="45.26395" lon="5.79317">
        <ele>1104.6</ele>
        <time>2020-09-06T12:28:02.000Z</time>
      </trkpt>
      <trkpt lat="45.26393" lon="5.79312">
        <ele>1103.7</ele>
        <time>2020-09-06T12:28:03.000Z</time>
      </trkpt>
      <trkpt lat="45.2639" lon="5.79309">
        <ele>1103.4</ele>
        <time>2020-09-06T12:28:04.000Z</time>
      </trkpt>
      <trkpt lat="45.26387" lon="5.79304">
        <ele>1102.4</ele>
        <time>2020-09-06T12:28:05.000Z</time>
      </trkpt>
      <trkpt lat="45.26387" lon="5.793">
        <ele>1101</ele>
        <time>2020-09-06T12:28:06.000Z</time>
      </trkpt>
      <trkpt lat="45.26388" lon="5.79295">
        <ele>1098.9</ele>
        <time>2020-09-06T12:28:08.000Z</time>
      </trkpt>
      <trkpt lat="45.2639" lon="5.79294">
        <ele>1098.2</ele>
        <time>2020-09-06T12:28:09.000Z</time>
      </trkpt>
      <trkpt lat="45.26394" lon="5.79293">
        <ele>1096.8</ele>
        <time>2020-09-06T12:28:11.000Z</time>
      </trkpt>
      <trkpt lat="45.26403" lon="5.79296">
        <ele>1095.4</ele>
        <time>2020-09-06T12:28:15.000Z</time>
      </trkpt>
      <trkpt lat="45.26405" lon="5.79297">
        <ele>1094.9</ele>
        <time>2020-09-06T12:28:16.000Z</time>
      </trkpt>
      <trkpt lat="45.26407" lon="5.79296">
        <ele>1094.1</ele>
        <time>2020-09-06T12:28:17.000Z</time>
      </trkpt>
      <trkpt lat="45.26408" lon="5.79295">
        <ele>1093.6</ele>
        <time>2020-09-06T12:28:18.000Z</time>
      </trkpt>
      <trkpt lat="45.2642" lon="5.79296">
        <ele>1091.1</ele>
        <time>2020-09-06T12:28:20.000Z</time>
      </trkpt>
      <trkpt lat="45.26422" lon="5.79297">
        <ele>1091</ele>
        <time>2020-09-06T12:28:21.000Z</time>
      </trkpt>
      <trkpt lat="45.26422" lon="5.79294">
        <ele>1090.3</ele>
        <time>2020-09-06T12:28:22.000Z</time>
      </trkpt>
      <trkpt lat="45.26422" lon="5.79292">
        <ele>1089.6</ele>
        <time>2020-09-06T12:28:23.000Z</time>
      </trkpt>
      <trkpt lat="45.26423" lon="5.79288">
        <ele>1088.1</ele>
        <time>2020-09-06T12:28:25.000Z</time>
      </trkpt>
      <trkpt lat="45.26428" lon="5.79283">
        <ele>1086.1</ele>
        <time>2020-09-06T12:28:27.000Z</time>
      </trkpt>
      <trkpt lat="45.26429" lon="5.79279">
        <ele>1084.8</ele>
        <time>2020-09-06T12:28:29.000Z</time>
      </trkpt>
      <trkpt lat="45.26424" lon="5.79274">
        <ele>1083.7</ele>
        <time>2020-09-06T12:28:31.000Z</time>
      </trkpt>
      <trkpt lat="45.26422" lon="5.79272">
        <ele>1083.2</ele>
        <time>2020-09-06T12:28:32.000Z</time>
      </trkpt>
      <trkpt lat="45.2642" lon="5.7927">
        <ele>1082.7</ele>
        <time>2020-09-06T12:28:33.000Z</time>
      </trkpt>
      <trkpt lat="45.26418" lon="5.79269">
        <ele>1082.4</ele>
        <time>2020-09-06T12:28:35.000Z</time>
      </trkpt>
      <trkpt lat="45.26418" lon="5.79266">
        <ele>1081.3</ele>
        <time>2020-09-06T12:28:37.000Z</time>
      </trkpt>
      <trkpt lat="45.26419" lon="5.79265">
        <ele>1080.9</ele>
        <time>2020-09-06T12:28:38.000Z</time>
      </trkpt>
      <trkpt lat="45.2642" lon="5.79264">
        <ele>1080.5</ele>
        <time>2020-09-06T12:28:40.000Z</time>
      </trkpt>
      <trkpt lat="45.26421" lon="5.79264">
        <ele>1080.6</ele>
        <time>2020-09-06T12:28:41.000Z</time>
      </trkpt>
      <trkpt lat="45.26422" lon="5.79266">
        <ele>1081.1</ele>
        <time>2020-09-06T12:28:42.000Z</time>
      </trkpt>
      <trkpt lat="45.26423" lon="5.79266">
        <ele>1081.2</ele>
        <time>2020-09-06T12:28:43.000Z</time>
      </trkpt>
      <trkpt lat="45.26425" lon="5.79266">
        <ele>1081.3</ele>
        <time>2020-09-06T12:28:44.000Z</time>
      </trkpt>
      <trkpt lat="45.26428" lon="5.79266">
        <ele>1081.1</ele>
        <time>2020-09-06T12:28:45.000Z</time>
      </trkpt>
      <trkpt lat="45.26432" lon="5.79271">
        <ele>1082.3</ele>
        <time>2020-09-06T12:28:48.000Z</time>
      </trkpt>
      <trkpt lat="45.26434" lon="5.79272">
        <ele>1082.7</ele>
        <time>2020-09-06T12:28:49.000Z</time>
      </trkpt>
      <trkpt lat="45.26436" lon="5.79271">
        <ele>1082.2</ele>
        <time>2020-09-06T12:28:50.000Z</time>
      </trkpt>
      <trkpt lat="45.26439" lon="5.79268">
        <ele>1081.3</ele>
        <time>2020-09-06T12:28:52.000Z</time>
      </trkpt>
      <trkpt lat="45.26441" lon="5.79265">
        <ele>1080.4</ele>
        <time>2020-09-06T12:28:54.000Z</time>
      </trkpt>
      <trkpt lat="45.26441" lon="5.79265">
        <ele>1080.4</ele>
        <time>2020-09-06T12:28:55.000Z</time>
      </trkpt>
      <trkpt lat="45.26442" lon="5.79265">
        <ele>1080.3</ele>
        <time>2020-09-06T12:28:57.000Z</time>
      </trkpt>
      <trkpt lat="45.26447" lon="5.79263">
        <ele>1079.9</ele>
        <time>2020-09-06T12:28:58.000Z</time>
      </trkpt>
      <trkpt lat="45.26448" lon="5.79259">
        <ele>1078.9</ele>
        <time>2020-09-06T12:29:00.000Z</time>
      </trkpt>
      <trkpt lat="45.26448" lon="5.79257">
        <ele>1078.3</ele>
        <time>2020-09-06T12:29:01.000Z</time>
      </trkpt>
      <trkpt lat="45.26449" lon="5.79253">
        <ele>1077.5</ele>
        <time>2020-09-06T12:29:02.000Z</time>
      </trkpt>
      <trkpt lat="45.26449" lon="5.7925">
        <ele>1076.8</ele>
        <time>2020-09-06T12:29:03.000Z</time>
      </trkpt>
      <trkpt lat="45.26449" lon="5.79237">
        <ele>1077</ele>
        <time>2020-09-06T12:29:06.000Z</time>
      </trkpt>
      <trkpt lat="45.26451" lon="5.79235">
        <ele>1077.2</ele>
        <time>2020-09-06T12:29:07.000Z</time>
      </trkpt>
      <trkpt lat="45.26453" lon="5.79235">
        <ele>1077.3</ele>
        <time>2020-09-06T12:29:09.000Z</time>
      </trkpt>
      <trkpt lat="45.2646" lon="5.79235">
        <ele>1077.9</ele>
        <time>2020-09-06T12:29:15.000Z</time>
      </trkpt>
      <trkpt lat="45.26462" lon="5.79235">
        <ele>1078</ele>
        <time>2020-09-06T12:29:16.000Z</time>
      </trkpt>
      <trkpt lat="45.26466" lon="5.79237">
        <ele>1078.1</ele>
        <time>2020-09-06T12:29:20.000Z</time>
      </trkpt>
      <trkpt lat="45.26467" lon="5.79239">
        <ele>1078.1</ele>
        <time>2020-09-06T12:29:22.000Z</time>
      </trkpt>
      <trkpt lat="45.26468" lon="5.79241">
        <ele>1077.9</ele>
        <time>2020-09-06T12:29:25.000Z</time>
      </trkpt>
      <trkpt lat="45.26468" lon="5.79242">
        <ele>1077.9</ele>
        <time>2020-09-06T12:29:26.000Z</time>
      </trkpt>
      <trkpt lat="45.26471" lon="5.79246">
        <ele>1077.7</ele>
        <time>2020-09-06T12:29:31.000Z</time>
      </trkpt>
      <trkpt lat="45.26476" lon="5.79247">
        <ele>1077.8</ele>
        <time>2020-09-06T12:29:36.000Z</time>
      </trkpt>
      <trkpt lat="45.26477" lon="5.79247">
        <ele>1077.8</ele>
        <time>2020-09-06T12:29:37.000Z</time>
      </trkpt>
      <trkpt lat="45.26482" lon="5.79254">
        <ele>1078</ele>
        <time>2020-09-06T12:29:41.000Z</time>
      </trkpt>
      <trkpt lat="45.26485" lon="5.79259">
        <ele>1078.6</ele>
        <time>2020-09-06T12:29:43.000Z</time>
      </trkpt>
      <trkpt lat="45.26488" lon="5.79263">
        <ele>1079.1</ele>
        <time>2020-09-06T12:29:46.000Z</time>
      </trkpt>
      <trkpt lat="45.26492" lon="5.79267">
        <ele>1079.3</ele>
        <time>2020-09-06T12:29:49.000Z</time>
      </trkpt>
      <trkpt lat="45.26493" lon="5.79267">
        <ele>1079.3</ele>
        <time>2020-09-06T12:29:50.000Z</time>
      </trkpt>
      <trkpt lat="45.26497" lon="5.79271">
        <ele>1079.4</ele>
        <time>2020-09-06T12:29:53.000Z</time>
      </trkpt>
      <trkpt lat="45.26499" lon="5.79274">
        <ele>1079.5</ele>
        <time>2020-09-06T12:29:55.000Z</time>
      </trkpt>
      <trkpt lat="45.26502" lon="5.79277">
        <ele>1080.1</ele>
        <time>2020-09-06T12:29:58.000Z</time>
      </trkpt>
      <trkpt lat="45.26505" lon="5.79282">
        <ele>1080.9</ele>
        <time>2020-09-06T12:30:01.000Z</time>
      </trkpt>
      <trkpt lat="45.26509" lon="5.79283">
        <ele>1081.9</ele>
        <time>2020-09-06T12:30:04.000Z</time>
      </trkpt>
      <trkpt lat="45.26513" lon="5.79286">
        <ele>1082.7</ele>
        <time>2020-09-06T12:30:06.000Z</time>
      </trkpt>
      <trkpt lat="45.26514" lon="5.79288">
        <ele>1082.8</ele>
        <time>2020-09-06T12:30:07.000Z</time>
      </trkpt>
      <trkpt lat="45.26515" lon="5.79293">
        <ele>1083.1</ele>
        <time>2020-09-06T12:30:10.000Z</time>
      </trkpt>
      <trkpt lat="45.26518" lon="5.79297">
        <ele>1083.6</ele>
        <time>2020-09-06T12:30:12.000Z</time>
      </trkpt>
      <trkpt lat="45.2652" lon="5.79299">
        <ele>1083.8</ele>
        <time>2020-09-06T12:30:14.000Z</time>
      </trkpt>
      <trkpt lat="45.26522" lon="5.79301">
        <ele>1084</ele>
        <time>2020-09-06T12:30:16.000Z</time>
      </trkpt>
      <trkpt lat="45.26525" lon="5.79303">
        <ele>1084.4</ele>
        <time>2020-09-06T12:30:18.000Z</time>
      </trkpt>
      <trkpt lat="45.26533" lon="5.79312">
        <ele>1084.8</ele>
        <time>2020-09-06T12:30:22.000Z</time>
      </trkpt>
      <trkpt lat="45.26536" lon="5.79312">
        <ele>1085.2</ele>
        <time>2020-09-06T12:30:24.000Z</time>
      </trkpt>
      <trkpt lat="45.26549" lon="5.79316">
        <ele>1085.8</ele>
        <time>2020-09-06T12:30:28.000Z</time>
      </trkpt>
      <trkpt lat="45.2655" lon="5.79318">
        <ele>1085.6</ele>
        <time>2020-09-06T12:30:29.000Z</time>
      </trkpt>
      <trkpt lat="45.26551" lon="5.7932">
        <ele>1085.5</ele>
        <time>2020-09-06T12:30:30.000Z</time>
      </trkpt>
      <trkpt lat="45.26554" lon="5.79322">
        <ele>1085.3</ele>
        <time>2020-09-06T12:30:32.000Z</time>
      </trkpt>
      <trkpt lat="45.26555" lon="5.79324">
        <ele>1085.2</ele>
        <time>2020-09-06T12:30:33.000Z</time>
      </trkpt>
      <trkpt lat="45.26568" lon="5.79334">
        <ele>1083.8</ele>
        <time>2020-09-06T12:30:40.000Z</time>
      </trkpt>
      <trkpt lat="45.26568" lon="5.79336">
        <ele>1083.9</ele>
        <time>2020-09-06T12:30:41.000Z</time>
      </trkpt>
      <trkpt lat="45.2657" lon="5.79342">
        <ele>1084.1</ele>
        <time>2020-09-06T12:30:44.000Z</time>
      </trkpt>
      <trkpt lat="45.26577" lon="5.79349">
        <ele>1084</ele>
        <time>2020-09-06T12:30:48.000Z</time>
      </trkpt>
      <trkpt lat="45.26588" lon="5.79359">
        <ele>1084.8</ele>
        <time>2020-09-06T12:30:55.000Z</time>
      </trkpt>
      <trkpt lat="45.26591" lon="5.79362">
        <ele>1085.7</ele>
        <time>2020-09-06T12:30:57.000Z</time>
      </trkpt>
      <trkpt lat="45.26593" lon="5.79367">
        <ele>1086.1</ele>
        <time>2020-09-06T12:31:01.000Z</time>
      </trkpt>
      <trkpt lat="45.26603" lon="5.79379">
        <ele>1088.1</ele>
        <time>2020-09-06T12:31:08.000Z</time>
      </trkpt>
      <trkpt lat="45.26604" lon="5.79381">
        <ele>1088.4</ele>
        <time>2020-09-06T12:31:09.000Z</time>
      </trkpt>
      <trkpt lat="45.26607" lon="5.79384">
        <ele>1088.7</ele>
        <time>2020-09-06T12:31:11.000Z</time>
      </trkpt>
      <trkpt lat="45.26608" lon="5.79385">
        <ele>1088.9</ele>
        <time>2020-09-06T12:31:12.000Z</time>
      </trkpt>
      <trkpt lat="45.26613" lon="5.79392">
        <ele>1089.4</ele>
        <time>2020-09-06T12:31:16.000Z</time>
      </trkpt>
      <trkpt lat="45.26615" lon="5.79397">
        <ele>1089.5</ele>
        <time>2020-09-06T12:31:18.000Z</time>
      </trkpt>
      <trkpt lat="45.26621" lon="5.79412">
        <ele>1088.8</ele>
        <time>2020-09-06T12:31:24.000Z</time>
      </trkpt>
      <trkpt lat="45.26621" lon="5.79415">
        <ele>1088.6</ele>
        <time>2020-09-06T12:31:25.000Z</time>
      </trkpt>
      <trkpt lat="45.26623" lon="5.79421">
        <ele>1089</ele>
        <time>2020-09-06T12:31:28.000Z</time>
      </trkpt>
      <trkpt lat="45.26624" lon="5.79422">
        <ele>1089.4</ele>
        <time>2020-09-06T12:31:29.000Z</time>
      </trkpt>
      <trkpt lat="45.26626" lon="5.79426">
        <ele>1090</ele>
        <time>2020-09-06T12:31:31.000Z</time>
      </trkpt>
      <trkpt lat="45.2663" lon="5.79436">
        <ele>1091.3</ele>
        <time>2020-09-06T12:31:36.000Z</time>
      </trkpt>
      <trkpt lat="45.26631" lon="5.79439">
        <ele>1091.5</ele>
        <time>2020-09-06T12:31:37.000Z</time>
      </trkpt>
      <trkpt lat="45.26635" lon="5.79447">
        <ele>1092.3</ele>
        <time>2020-09-06T12:31:41.000Z</time>
      </trkpt>
      <trkpt lat="45.26638" lon="5.7945">
        <ele>1092.5</ele>
        <time>2020-09-06T12:31:43.000Z</time>
      </trkpt>
      <trkpt lat="45.26644" lon="5.79458">
        <ele>1092.8</ele>
        <time>2020-09-06T12:31:48.000Z</time>
      </trkpt>
      <trkpt lat="45.26653" lon="5.7947">
        <ele>1092.4</ele>
        <time>2020-09-06T12:31:54.000Z</time>
      </trkpt>
      <trkpt lat="45.26661" lon="5.79482">
        <ele>1091.1</ele>
        <time>2020-09-06T12:32:01.000Z</time>
      </trkpt>
      <trkpt lat="45.26669" lon="5.79491">
        <ele>1090.7</ele>
        <time>2020-09-06T12:32:06.000Z</time>
      </trkpt>
      <trkpt lat="45.26671" lon="5.79495">
        <ele>1091.4</ele>
        <time>2020-09-06T12:32:08.000Z</time>
      </trkpt>
      <trkpt lat="45.26675" lon="5.79503">
        <ele>1092.9</ele>
        <time>2020-09-06T12:32:12.000Z</time>
      </trkpt>
      <trkpt lat="45.26676" lon="5.79505">
        <ele>1093.5</ele>
        <time>2020-09-06T12:32:13.000Z</time>
      </trkpt>
      <trkpt lat="45.26678" lon="5.7951">
        <ele>1094.9</ele>
        <time>2020-09-06T12:32:15.000Z</time>
      </trkpt>
      <trkpt lat="45.26685" lon="5.7952">
        <ele>1098.2</ele>
        <time>2020-09-06T12:32:20.000Z</time>
      </trkpt>
      <trkpt lat="45.26686" lon="5.79522">
        <ele>1098.8</ele>
        <time>2020-09-06T12:32:21.000Z</time>
      </trkpt>
      <trkpt lat="45.26689" lon="5.79525">
        <ele>1099.8</ele>
        <time>2020-09-06T12:32:23.000Z</time>
      </trkpt>
      <trkpt lat="45.26691" lon="5.79528">
        <ele>1100.6</ele>
        <time>2020-09-06T12:32:25.000Z</time>
      </trkpt>
      <trkpt lat="45.26695" lon="5.79531">
        <ele>1101.8</ele>
        <time>2020-09-06T12:32:28.000Z</time>
      </trkpt>
      <trkpt lat="45.26698" lon="5.79533">
        <ele>1102.6</ele>
        <time>2020-09-06T12:32:30.000Z</time>
      </trkpt>
      <trkpt lat="45.26702" lon="5.79536">
        <ele>1103.7</ele>
        <time>2020-09-06T12:32:33.000Z</time>
      </trkpt>
      <trkpt lat="45.26708" lon="5.79543">
        <ele>1104.8</ele>
        <time>2020-09-06T12:32:37.000Z</time>
      </trkpt>
      <trkpt lat="45.26709" lon="5.79544">
        <ele>1105.1</ele>
        <time>2020-09-06T12:32:38.000Z</time>
      </trkpt>
      <trkpt lat="45.26719" lon="5.79551">
        <ele>1106.4</ele>
        <time>2020-09-06T12:32:44.000Z</time>
      </trkpt>
      <trkpt lat="45.26728" lon="5.79558">
        <ele>1107</ele>
        <time>2020-09-06T12:32:50.000Z</time>
      </trkpt>
      <trkpt lat="45.26732" lon="5.79559">
        <ele>1107.3</ele>
        <time>2020-09-06T12:32:52.000Z</time>
      </trkpt>
      <trkpt lat="45.26745" lon="5.79563">
        <ele>1107.9</ele>
        <time>2020-09-06T12:32:59.000Z</time>
      </trkpt>
      <trkpt lat="45.26747" lon="5.79565">
        <ele>1107.7</ele>
        <time>2020-09-06T12:33:00.000Z</time>
      </trkpt>
      <trkpt lat="45.26756" lon="5.7957">
        <ele>1108.3</ele>
        <time>2020-09-06T12:33:05.000Z</time>
      </trkpt>
      <trkpt lat="45.26757" lon="5.79573">
        <ele>1108.3</ele>
        <time>2020-09-06T12:33:06.000Z</time>
      </trkpt>
      <trkpt lat="45.26768" lon="5.7958">
        <ele>1109.2</ele>
        <time>2020-09-06T12:33:12.000Z</time>
      </trkpt>
      <trkpt lat="45.2677" lon="5.7958">
        <ele>1109.7</ele>
        <time>2020-09-06T12:33:13.000Z</time>
      </trkpt>
      <trkpt lat="45.26781" lon="5.79587">
        <ele>1111.4</ele>
        <time>2020-09-06T12:33:19.000Z</time>
      </trkpt>
      <trkpt lat="45.26793" lon="5.79589">
        <ele>1114</ele>
        <time>2020-09-06T12:33:24.000Z</time>
      </trkpt>
      <trkpt lat="45.26795" lon="5.79589">
        <ele>1114.5</ele>
        <time>2020-09-06T12:33:25.000Z</time>
      </trkpt>
      <trkpt lat="45.26807" lon="5.79592">
        <ele>1116.8</ele>
        <time>2020-09-06T12:33:31.000Z</time>
      </trkpt>
      <trkpt lat="45.2681" lon="5.79597">
        <ele>1117</ele>
        <time>2020-09-06T12:33:33.000Z</time>
      </trkpt>
      <trkpt lat="45.26816" lon="5.79604">
        <ele>1117.1</ele>
        <time>2020-09-06T12:33:36.000Z</time>
      </trkpt>
      <trkpt lat="45.26818" lon="5.79606">
        <ele>1117.2</ele>
        <time>2020-09-06T12:33:37.000Z</time>
      </trkpt>
      <trkpt lat="45.2682" lon="5.79607">
        <ele>1117.2</ele>
        <time>2020-09-06T12:33:38.000Z</time>
      </trkpt>
      <trkpt lat="45.26824" lon="5.79609">
        <ele>1117.7</ele>
        <time>2020-09-06T12:33:40.000Z</time>
      </trkpt>
      <trkpt lat="45.26833" lon="5.79615">
        <ele>1118</ele>
        <time>2020-09-06T12:33:44.000Z</time>
      </trkpt>
      <trkpt lat="45.26836" lon="5.79618">
        <ele>1118.2</ele>
        <time>2020-09-06T12:33:46.000Z</time>
      </trkpt>
      <trkpt lat="45.26845" lon="5.79629">
        <ele>1117.9</ele>
        <time>2020-09-06T12:33:51.000Z</time>
      </trkpt>
      <trkpt lat="45.26854" lon="5.79643">
        <ele>1116.6</ele>
        <time>2020-09-06T12:33:57.000Z</time>
      </trkpt>
      <trkpt lat="45.26855" lon="5.79645">
        <ele>1116.3</ele>
        <time>2020-09-06T12:33:58.000Z</time>
      </trkpt>
      <trkpt lat="45.26863" lon="5.79662">
        <ele>1113.8</ele>
        <time>2020-09-06T12:34:05.000Z</time>
      </trkpt>
      <trkpt lat="45.26864" lon="5.79664">
        <ele>1113.4</ele>
        <time>2020-09-06T12:34:06.000Z</time>
      </trkpt>
      <trkpt lat="45.26869" lon="5.79672">
        <ele>1113.9</ele>
        <time>2020-09-06T12:34:09.000Z</time>
      </trkpt>
      <trkpt lat="45.26872" lon="5.79679">
        <ele>1114.8</ele>
        <time>2020-09-06T12:34:12.000Z</time>
      </trkpt>
      <trkpt lat="45.26873" lon="5.79682">
        <ele>1115.1</ele>
        <time>2020-09-06T12:34:13.000Z</time>
      </trkpt>
      <trkpt lat="45.26881" lon="5.79693">
        <ele>1116.3</ele>
        <time>2020-09-06T12:34:18.000Z</time>
      </trkpt>
      <trkpt lat="45.26881" lon="5.79696">
        <ele>1116.5</ele>
        <time>2020-09-06T12:34:19.000Z</time>
      </trkpt>
      <trkpt lat="45.2689" lon="5.79708">
        <ele>1117</ele>
        <time>2020-09-06T12:34:24.000Z</time>
      </trkpt>
      <trkpt lat="45.26897" lon="5.79715">
        <ele>1117</ele>
        <time>2020-09-06T12:34:27.000Z</time>
      </trkpt>
      <trkpt lat="45.26899" lon="5.79717">
        <ele>1117</ele>
        <time>2020-09-06T12:34:28.000Z</time>
      </trkpt>
      <trkpt lat="45.26905" lon="5.79726">
        <ele>1116.4</ele>
        <time>2020-09-06T12:34:33.000Z</time>
      </trkpt>
      <trkpt lat="45.26907" lon="5.79728">
        <ele>1116.3</ele>
        <time>2020-09-06T12:34:34.000Z</time>
      </trkpt>
      <trkpt lat="45.26914" lon="5.79735">
        <ele>1115.5</ele>
        <time>2020-09-06T12:34:38.000Z</time>
      </trkpt>
      <trkpt lat="45.26916" lon="5.79736">
        <ele>1115.2</ele>
        <time>2020-09-06T12:34:39.000Z</time>
      </trkpt>
      <trkpt lat="45.26924" lon="5.79743">
        <ele>1117</ele>
        <time>2020-09-06T12:34:43.000Z</time>
      </trkpt>
      <trkpt lat="45.26926" lon="5.79744">
        <ele>1117.3</ele>
        <time>2020-09-06T12:34:44.000Z</time>
      </trkpt>
      <trkpt lat="45.26934" lon="5.79746">
        <ele>1119.7</ele>
        <time>2020-09-06T12:34:47.000Z</time>
      </trkpt>
      <trkpt lat="45.26938" lon="5.79747">
        <ele>1121</ele>
        <time>2020-09-06T12:34:49.000Z</time>
      </trkpt>
      <trkpt lat="45.26956" lon="5.79757">
        <ele>1126.4</ele>
        <time>2020-09-06T12:34:56.000Z</time>
      </trkpt>
      <trkpt lat="45.26966" lon="5.79767">
        <ele>1128.9</ele>
        <time>2020-09-06T12:35:01.000Z</time>
      </trkpt>
      <trkpt lat="45.26976" lon="5.79777">
        <ele>1130.3</ele>
        <time>2020-09-06T12:35:06.000Z</time>
      </trkpt>
      <trkpt lat="45.26982" lon="5.79785">
        <ele>1130.7</ele>
        <time>2020-09-06T12:35:10.000Z</time>
      </trkpt>
      <trkpt lat="45.26985" lon="5.7979">
        <ele>1130.6</ele>
        <time>2020-09-06T12:35:12.000Z</time>
      </trkpt>
      <trkpt lat="45.26987" lon="5.79792">
        <ele>1130.6</ele>
        <time>2020-09-06T12:35:13.000Z</time>
      </trkpt>
      <trkpt lat="45.26992" lon="5.79795">
        <ele>1130.8</ele>
        <time>2020-09-06T12:35:16.000Z</time>
      </trkpt>
      <trkpt lat="45.26996" lon="5.79799">
        <ele>1130.7</ele>
        <time>2020-09-06T12:35:18.000Z</time>
      </trkpt>
      <trkpt lat="45.26997" lon="5.798">
        <ele>1130.7</ele>
        <time>2020-09-06T12:35:19.000Z</time>
      </trkpt>
      <trkpt lat="45.27005" lon="5.79813">
        <ele>1130.7</ele>
        <time>2020-09-06T12:35:25.000Z</time>
      </trkpt>
      <trkpt lat="45.27007" lon="5.79819">
        <ele>1130.1</ele>
        <time>2020-09-06T12:35:27.000Z</time>
      </trkpt>
      <trkpt lat="45.27009" lon="5.79827">
        <ele>1129.2</ele>
        <time>2020-09-06T12:35:30.000Z</time>
      </trkpt>
      <trkpt lat="45.27012" lon="5.79829">
        <ele>1129.6</ele>
        <time>2020-09-06T12:35:32.000Z</time>
      </trkpt>
      <trkpt lat="45.27014" lon="5.79833">
        <ele>1129.6</ele>
        <time>2020-09-06T12:35:34.000Z</time>
      </trkpt>
      <trkpt lat="45.27016" lon="5.79835">
        <ele>1130.2</ele>
        <time>2020-09-06T12:35:35.000Z</time>
      </trkpt>
      <trkpt lat="45.27018" lon="5.79837">
        <ele>1130.7</ele>
        <time>2020-09-06T12:35:36.000Z</time>
      </trkpt>
      <trkpt lat="45.27022" lon="5.7984">
        <ele>1132.1</ele>
        <time>2020-09-06T12:35:39.000Z</time>
      </trkpt>
      <trkpt lat="45.27023" lon="5.79841">
        <ele>1132.5</ele>
        <time>2020-09-06T12:35:40.000Z</time>
      </trkpt>
      <trkpt lat="45.27025" lon="5.79842">
        <ele>1133</ele>
        <time>2020-09-06T12:35:41.000Z</time>
      </trkpt>
      <trkpt lat="45.27027" lon="5.79844">
        <ele>1133.4</ele>
        <time>2020-09-06T12:35:42.000Z</time>
      </trkpt>
      <trkpt lat="45.27028" lon="5.79846">
        <ele>1133.7</ele>
        <time>2020-09-06T12:35:43.000Z</time>
      </trkpt>
      <trkpt lat="45.27031" lon="5.79851">
        <ele>1134.5</ele>
        <time>2020-09-06T12:35:47.000Z</time>
      </trkpt>
      <trkpt lat="45.27034" lon="5.79855">
        <ele>1135.1</ele>
        <time>2020-09-06T12:35:50.000Z</time>
      </trkpt>
      <trkpt lat="45.27038" lon="5.79857">
        <ele>1135.8</ele>
        <time>2020-09-06T12:35:53.000Z</time>
      </trkpt>
      <trkpt lat="45.27039" lon="5.79858">
        <ele>1136</ele>
        <time>2020-09-06T12:35:54.000Z</time>
      </trkpt>
      <trkpt lat="45.2704" lon="5.79858">
        <ele>1136.2</ele>
        <time>2020-09-06T12:35:55.000Z</time>
      </trkpt>
      <trkpt lat="45.27041" lon="5.79857">
        <ele>1136.7</ele>
        <time>2020-09-06T12:35:56.000Z</time>
      </trkpt>
      <trkpt lat="45.27048" lon="5.79863">
        <ele>1137.8</ele>
        <time>2020-09-06T12:36:02.000Z</time>
      </trkpt>
      <trkpt lat="45.27052" lon="5.79869">
        <ele>1138.1</ele>
        <time>2020-09-06T12:36:06.000Z</time>
      </trkpt>
      <trkpt lat="45.27055" lon="5.79871">
        <ele>1138.3</ele>
        <time>2020-09-06T12:36:08.000Z</time>
      </trkpt>
      <trkpt lat="45.27056" lon="5.79872">
        <ele>1138.5</ele>
        <time>2020-09-06T12:36:09.000Z</time>
      </trkpt>
      <trkpt lat="45.2706" lon="5.79873">
        <ele>1139</ele>
        <time>2020-09-06T12:36:11.000Z</time>
      </trkpt>
      <trkpt lat="45.27064" lon="5.79877">
        <ele>1139.1</ele>
        <time>2020-09-06T12:36:14.000Z</time>
      </trkpt>
      <trkpt lat="45.27067" lon="5.79882">
        <ele>1139</ele>
        <time>2020-09-06T12:36:17.000Z</time>
      </trkpt>
      <trkpt lat="45.27068" lon="5.79883">
        <ele>1138.9</ele>
        <time>2020-09-06T12:36:18.000Z</time>
      </trkpt>
      <trkpt lat="45.27069" lon="5.79884">
        <ele>1138.9</ele>
        <time>2020-09-06T12:36:19.000Z</time>
      </trkpt>
      <trkpt lat="45.27073" lon="5.79886">
        <ele>1139.1</ele>
        <time>2020-09-06T12:36:22.000Z</time>
      </trkpt>
      <trkpt lat="45.27074" lon="5.79886">
        <ele>1139.3</ele>
        <time>2020-09-06T12:36:23.000Z</time>
      </trkpt>
      <trkpt lat="45.27077" lon="5.79886">
        <ele>1139.8</ele>
        <time>2020-09-06T12:36:25.000Z</time>
      </trkpt>
      <trkpt lat="45.27085" lon="5.79892">
        <ele>1140</ele>
        <time>2020-09-06T12:36:31.000Z</time>
      </trkpt>
      <trkpt lat="45.27093" lon="5.79901">
        <ele>1140.6</ele>
        <time>2020-09-06T12:36:37.000Z</time>
      </trkpt>
      <trkpt lat="45.27095" lon="5.79904">
        <ele>1140.4</ele>
        <time>2020-09-06T12:36:39.000Z</time>
      </trkpt>
      <trkpt lat="45.27098" lon="5.79909">
        <ele>1139.8</ele>
        <time>2020-09-06T12:36:42.000Z</time>
      </trkpt>
      <trkpt lat="45.27104" lon="5.79916">
        <ele>1139.9</ele>
        <time>2020-09-06T12:36:48.000Z</time>
      </trkpt>
      <trkpt lat="45.27109" lon="5.79926">
        <ele>1141.1</ele>
        <time>2020-09-06T12:36:52.000Z</time>
      </trkpt>
      <trkpt lat="45.27112" lon="5.7993">
        <ele>1141.9</ele>
        <time>2020-09-06T12:36:55.000Z</time>
      </trkpt>
      <trkpt lat="45.27114" lon="5.79932">
        <ele>1142.2</ele>
        <time>2020-09-06T12:36:56.000Z</time>
      </trkpt>
      <trkpt lat="45.2712" lon="5.79944">
        <ele>1143.4</ele>
        <time>2020-09-06T12:37:00.000Z</time>
      </trkpt>
      <trkpt lat="45.2712" lon="5.79962">
        <ele>1142.7</ele>
        <time>2020-09-06T12:37:03.000Z</time>
      </trkpt>
      <trkpt lat="45.27113" lon="5.79985">
        <ele>1141.3</ele>
        <time>2020-09-06T12:37:08.000Z</time>
      </trkpt>
      <trkpt lat="45.27111" lon="5.80001">
        <ele>1141.3</ele>
        <time>2020-09-06T12:37:13.000Z</time>
      </trkpt>
      <trkpt lat="45.27117" lon="5.80016">
        <ele>1144.5</ele>
        <time>2020-09-06T12:37:20.000Z</time>
      </trkpt>
      <trkpt lat="45.27119" lon="5.80021">
        <ele>1145.5</ele>
        <time>2020-09-06T12:37:22.000Z</time>
      </trkpt>
      <trkpt lat="45.27124" lon="5.8003">
        <ele>1147.3</ele>
        <time>2020-09-06T12:37:27.000Z</time>
      </trkpt>
      <trkpt lat="45.27125" lon="5.80033">
        <ele>1148</ele>
        <time>2020-09-06T12:37:28.000Z</time>
      </trkpt>
      <trkpt lat="45.27128" lon="5.80044">
        <ele>1149.9</ele>
        <time>2020-09-06T12:37:33.000Z</time>
      </trkpt>
      <trkpt lat="45.27128" lon="5.80045">
        <ele>1150.1</ele>
        <time>2020-09-06T12:37:34.000Z</time>
      </trkpt>
      <trkpt lat="45.2713" lon="5.80055">
        <ele>1151.7</ele>
        <time>2020-09-06T12:37:39.000Z</time>
      </trkpt>
      <trkpt lat="45.27131" lon="5.80058">
        <ele>1152.3</ele>
        <time>2020-09-06T12:37:40.000Z</time>
      </trkpt>
      <trkpt lat="45.27136" lon="5.80075">
        <ele>1154.8</ele>
        <time>2020-09-06T12:37:46.000Z</time>
      </trkpt>
      <trkpt lat="45.27137" lon="5.80078">
        <ele>1155.3</ele>
        <time>2020-09-06T12:37:47.000Z</time>
      </trkpt>
      <trkpt lat="45.27141" lon="5.80087">
        <ele>1156.5</ele>
        <time>2020-09-06T12:37:52.000Z</time>
      </trkpt>
      <trkpt lat="45.27142" lon="5.8009">
        <ele>1157</ele>
        <time>2020-09-06T12:37:53.000Z</time>
      </trkpt>
      <trkpt lat="45.27147" lon="5.80102">
        <ele>1158.9</ele>
        <time>2020-09-06T12:37:59.000Z</time>
      </trkpt>
      <trkpt lat="45.27147" lon="5.80105">
        <ele>1159.3</ele>
        <time>2020-09-06T12:38:00.000Z</time>
      </trkpt>
      <trkpt lat="45.27152" lon="5.80119">
        <ele>1161.4</ele>
        <time>2020-09-06T12:38:05.000Z</time>
      </trkpt>
      <trkpt lat="45.27153" lon="5.80125">
        <ele>1162.2</ele>
        <time>2020-09-06T12:38:07.000Z</time>
      </trkpt>
      <trkpt lat="45.27157" lon="5.80141">
        <ele>1164.3</ele>
        <time>2020-09-06T12:38:14.000Z</time>
      </trkpt>
      <trkpt lat="45.27158" lon="5.80143">
        <ele>1164.6</ele>
        <time>2020-09-06T12:38:15.000Z</time>
      </trkpt>
      <trkpt lat="45.2716" lon="5.8015">
        <ele>1165.5</ele>
        <time>2020-09-06T12:38:18.000Z</time>
      </trkpt>
      <trkpt lat="45.27162" lon="5.80155">
        <ele>1166</ele>
        <time>2020-09-06T12:38:20.000Z</time>
      </trkpt>
      <trkpt lat="45.27164" lon="5.80165">
        <ele>1167.2</ele>
        <time>2020-09-06T12:38:24.000Z</time>
      </trkpt>
      <trkpt lat="45.27164" lon="5.80173">
        <ele>1168.5</ele>
        <time>2020-09-06T12:38:27.000Z</time>
      </trkpt>
      <trkpt lat="45.27164" lon="5.80175">
        <ele>1168.9</ele>
        <time>2020-09-06T12:38:28.000Z</time>
      </trkpt>
      <trkpt lat="45.27163" lon="5.80183">
        <ele>1170.3</ele>
        <time>2020-09-06T12:38:31.000Z</time>
      </trkpt>
      <trkpt lat="45.2716" lon="5.80189">
        <ele>1171.8</ele>
        <time>2020-09-06T12:38:34.000Z</time>
      </trkpt>
      <trkpt lat="45.27155" lon="5.8019">
        <ele>1173</ele>
        <time>2020-09-06T12:38:37.000Z</time>
      </trkpt>
      <trkpt lat="45.27153" lon="5.80188">
        <ele>1173.3</ele>
        <time>2020-09-06T12:38:39.000Z</time>
      </trkpt>
      <trkpt lat="45.2715" lon="5.80182">
        <ele>1172.7</ele>
        <time>2020-09-06T12:38:42.000Z</time>
      </trkpt>
      <trkpt lat="45.27149" lon="5.80179">
        <ele>1172.5</ele>
        <time>2020-09-06T12:38:43.000Z</time>
      </trkpt>
      <trkpt lat="45.27146" lon="5.80172">
        <ele>1171.7</ele>
        <time>2020-09-06T12:38:46.000Z</time>
      </trkpt>
      <trkpt lat="45.27141" lon="5.80166">
        <ele>1171.4</ele>
        <time>2020-09-06T12:38:49.000Z</time>
      </trkpt>
      <trkpt lat="45.27136" lon="5.80154">
        <ele>1170.1</ele>
        <time>2020-09-06T12:38:53.000Z</time>
      </trkpt>
      <trkpt lat="45.27134" lon="5.80152">
        <ele>1169.9</ele>
        <time>2020-09-06T12:38:54.000Z</time>
      </trkpt>
      <trkpt lat="45.27123" lon="5.80137">
        <ele>1168.6</ele>
        <time>2020-09-06T12:39:00.000Z</time>
      </trkpt>
      <trkpt lat="45.27122" lon="5.80135">
        <ele>1168.3</ele>
        <time>2020-09-06T12:39:01.000Z</time>
      </trkpt>
      <trkpt lat="45.27119" lon="5.80132">
        <ele>1168.1</ele>
        <time>2020-09-06T12:39:02.000Z</time>
      </trkpt>
      <trkpt lat="45.27113" lon="5.80126">
        <ele>1167.5</ele>
        <time>2020-09-06T12:39:05.000Z</time>
      </trkpt>
      <trkpt lat="45.27107" lon="5.80117">
        <ele>1166.2</ele>
        <time>2020-09-06T12:39:09.000Z</time>
      </trkpt>
      <trkpt lat="45.27103" lon="5.80111">
        <ele>1165.3</ele>
        <time>2020-09-06T12:39:12.000Z</time>
      </trkpt>
      <trkpt lat="45.27101" lon="5.80109">
        <ele>1164.9</ele>
        <time>2020-09-06T12:39:13.000Z</time>
      </trkpt>
      <trkpt lat="45.27094" lon="5.80097">
        <ele>1162.6</ele>
        <time>2020-09-06T12:39:18.000Z</time>
      </trkpt>
      <trkpt lat="45.27092" lon="5.80094">
        <ele>1162.1</ele>
        <time>2020-09-06T12:39:19.000Z</time>
      </trkpt>
      <trkpt lat="45.27079" lon="5.8008">
        <ele>1160.8</ele>
        <time>2020-09-06T12:39:23.000Z</time>
      </trkpt>
      <trkpt lat="45.27074" lon="5.80074">
        <ele>1161.2</ele>
        <time>2020-09-06T12:39:26.000Z</time>
      </trkpt>
      <trkpt lat="45.27068" lon="5.80066">
        <ele>1161</ele>
        <time>2020-09-06T12:39:30.000Z</time>
      </trkpt>
      <trkpt lat="45.27066" lon="5.80064">
        <ele>1160.9</ele>
        <time>2020-09-06T12:39:31.000Z</time>
      </trkpt>
      <trkpt lat="45.27065" lon="5.80062">
        <ele>1160.9</ele>
        <time>2020-09-06T12:39:32.000Z</time>
      </trkpt>
      <trkpt lat="45.27062" lon="5.80058">
        <ele>1160.7</ele>
        <time>2020-09-06T12:39:34.000Z</time>
      </trkpt>
      <trkpt lat="45.27059" lon="5.80053">
        <ele>1160.3</ele>
        <time>2020-09-06T12:39:36.000Z</time>
      </trkpt>
      <trkpt lat="45.27053" lon="5.80051">
        <ele>1161.8</ele>
        <time>2020-09-06T12:39:40.000Z</time>
      </trkpt>
      <trkpt lat="45.27052" lon="5.8005">
        <ele>1161.8</ele>
        <time>2020-09-06T12:39:41.000Z</time>
      </trkpt>
      <trkpt lat="45.27047" lon="5.80046">
        <ele>1162</ele>
        <time>2020-09-06T12:39:44.000Z</time>
      </trkpt>
      <trkpt lat="45.27044" lon="5.80045">
        <ele>1162.7</ele>
        <time>2020-09-06T12:39:46.000Z</time>
      </trkpt>
      <trkpt lat="45.27042" lon="5.80045">
        <ele>1163</ele>
        <time>2020-09-06T12:39:47.000Z</time>
      </trkpt>
      <trkpt lat="45.27037" lon="5.8004">
        <ele>1163.4</ele>
        <time>2020-09-06T12:39:51.000Z</time>
      </trkpt>
      <trkpt lat="45.27034" lon="5.80038">
        <ele>1163.5</ele>
        <time>2020-09-06T12:39:53.000Z</time>
      </trkpt>
      <trkpt lat="45.27031" lon="5.80035">
        <ele>1163.2</ele>
        <time>2020-09-06T12:39:55.000Z</time>
      </trkpt>
      <trkpt lat="45.27016" lon="5.8003">
        <ele>1165.7</ele>
        <time>2020-09-06T12:40:00.000Z</time>
      </trkpt>
      <trkpt lat="45.27014" lon="5.80028">
        <ele>1165.8</ele>
        <time>2020-09-06T12:40:01.000Z</time>
      </trkpt>
      <trkpt lat="45.27009" lon="5.80024">
        <ele>1165.5</ele>
        <time>2020-09-06T12:40:04.000Z</time>
      </trkpt>
      <trkpt lat="45.27006" lon="5.80021">
        <ele>1165.4</ele>
        <time>2020-09-06T12:40:06.000Z</time>
      </trkpt>
      <trkpt lat="45.27001" lon="5.80017">
        <ele>1165</ele>
        <time>2020-09-06T12:40:09.000Z</time>
      </trkpt>
      <trkpt lat="45.26995" lon="5.80014">
        <ele>1165.1</ele>
        <time>2020-09-06T12:40:13.000Z</time>
      </trkpt>
      <trkpt lat="45.26984" lon="5.80006">
        <ele>1164.1</ele>
        <time>2020-09-06T12:40:19.000Z</time>
      </trkpt>
      <trkpt lat="45.26982" lon="5.80005">
        <ele>1164</ele>
        <time>2020-09-06T12:40:20.000Z</time>
      </trkpt>
      <trkpt lat="45.26973" lon="5.80004">
        <ele>1165.3</ele>
        <time>2020-09-06T12:40:24.000Z</time>
      </trkpt>
      <trkpt lat="45.26967" lon="5.80002">
        <ele>1165.7</ele>
        <time>2020-09-06T12:40:28.000Z</time>
      </trkpt>
      <trkpt lat="45.26964" lon="5.8">
        <ele>1165.4</ele>
        <time>2020-09-06T12:40:30.000Z</time>
      </trkpt>
      <trkpt lat="45.26956" lon="5.79998">
        <ele>1166.5</ele>
        <time>2020-09-06T12:40:34.000Z</time>
      </trkpt>
      <trkpt lat="45.26954" lon="5.79999">
        <ele>1166.9</ele>
        <time>2020-09-06T12:40:35.000Z</time>
      </trkpt>
      <trkpt lat="45.26943" lon="5.80004">
        <ele>1170.4</ele>
        <time>2020-09-06T12:40:41.000Z</time>
      </trkpt>
      <trkpt lat="45.26932" lon="5.80004">
        <ele>1172.6</ele>
        <time>2020-09-06T12:40:46.000Z</time>
      </trkpt>
      <trkpt lat="45.26919" lon="5.79995">
        <ele>1172.1</ele>
        <time>2020-09-06T12:40:51.000Z</time>
      </trkpt>
      <trkpt lat="45.26913" lon="5.79986">
        <ele>1170.7</ele>
        <time>2020-09-06T12:40:54.000Z</time>
      </trkpt>
      <trkpt lat="45.26904" lon="5.79973">
        <ele>1168.8</ele>
        <time>2020-09-06T12:40:57.000Z</time>
      </trkpt>
      <trkpt lat="45.269" lon="5.79969">
        <ele>1168.4</ele>
        <time>2020-09-06T12:40:58.000Z</time>
      </trkpt>
      <trkpt lat="45.26892" lon="5.79961">
        <ele>1167.8</ele>
        <time>2020-09-06T12:41:00.000Z</time>
      </trkpt>
      <trkpt lat="45.26884" lon="5.79951">
        <ele>1166.9</ele>
        <time>2020-09-06T12:41:02.000Z</time>
      </trkpt>
      <trkpt lat="45.26872" lon="5.79942">
        <ele>1167.2</ele>
        <time>2020-09-06T12:41:06.000Z</time>
      </trkpt>
      <trkpt lat="45.26866" lon="5.79944">
        <ele>1168.6</ele>
        <time>2020-09-06T12:41:08.000Z</time>
      </trkpt>
      <trkpt lat="45.26863" lon="5.79948">
        <ele>1169.8</ele>
        <time>2020-09-06T12:41:10.000Z</time>
      </trkpt>
      <trkpt lat="45.26861" lon="5.79957">
        <ele>1172.1</ele>
        <time>2020-09-06T12:41:13.000Z</time>
      </trkpt>
      <trkpt lat="45.26861" lon="5.7996">
        <ele>1172.8</ele>
        <time>2020-09-06T12:41:14.000Z</time>
      </trkpt>
      <trkpt lat="45.26864" lon="5.79973">
        <ele>1174.8</ele>
        <time>2020-09-06T12:41:19.000Z</time>
      </trkpt>
      <trkpt lat="45.26865" lon="5.79974">
        <ele>1174.9</ele>
        <time>2020-09-06T12:41:20.000Z</time>
      </trkpt>
      <trkpt lat="45.26867" lon="5.79977">
        <ele>1175.2</ele>
        <time>2020-09-06T12:41:23.000Z</time>
      </trkpt>
      <trkpt lat="45.26868" lon="5.79978">
        <ele>1175.3</ele>
        <time>2020-09-06T12:41:24.000Z</time>
      </trkpt>
      <trkpt lat="45.26879" lon="5.79987">
        <ele>1175.7</ele>
        <time>2020-09-06T12:41:30.000Z</time>
      </trkpt>
      <trkpt lat="45.26881" lon="5.79988">
        <ele>1175.6</ele>
        <time>2020-09-06T12:41:31.000Z</time>
      </trkpt>
      <trkpt lat="45.26886" lon="5.79994">
        <ele>1176.4</ele>
        <time>2020-09-06T12:41:34.000Z</time>
      </trkpt>
      <trkpt lat="45.26889" lon="5.8">
        <ele>1177.3</ele>
        <time>2020-09-06T12:41:37.000Z</time>
      </trkpt>
      <trkpt lat="45.26891" lon="5.80002">
        <ele>1177.6</ele>
        <time>2020-09-06T12:41:38.000Z</time>
      </trkpt>
      <trkpt lat="45.26894" lon="5.80006">
        <ele>1178.4</ele>
        <time>2020-09-06T12:41:40.000Z</time>
      </trkpt>
      <trkpt lat="45.26899" lon="5.80017">
        <ele>1180.7</ele>
        <time>2020-09-06T12:41:45.000Z</time>
      </trkpt>
      <trkpt lat="45.26903" lon="5.80022">
        <ele>1181.6</ele>
        <time>2020-09-06T12:41:47.000Z</time>
      </trkpt>
      <trkpt lat="45.26908" lon="5.80031">
        <ele>1183.6</ele>
        <time>2020-09-06T12:41:51.000Z</time>
      </trkpt>
      <trkpt lat="45.2691" lon="5.80032">
        <ele>1183.9</ele>
        <time>2020-09-06T12:41:52.000Z</time>
      </trkpt>
      <trkpt lat="45.26913" lon="5.80039">
        <ele>1185.6</ele>
        <time>2020-09-06T12:41:55.000Z</time>
      </trkpt>
      <trkpt lat="45.26913" lon="5.80042">
        <ele>1186.4</ele>
        <time>2020-09-06T12:41:56.000Z</time>
      </trkpt>
      <trkpt lat="45.26913" lon="5.80044">
        <ele>1187</ele>
        <time>2020-09-06T12:41:57.000Z</time>
      </trkpt>
      <trkpt lat="45.2691" lon="5.80046">
        <ele>1187.7</ele>
        <time>2020-09-06T12:41:59.000Z</time>
      </trkpt>
      <trkpt lat="45.26909" lon="5.80045">
        <ele>1187.7</ele>
        <time>2020-09-06T12:42:00.000Z</time>
      </trkpt>
      <trkpt lat="45.26908" lon="5.80045">
        <ele>1187.6</ele>
        <time>2020-09-06T12:42:01.000Z</time>
      </trkpt>
      <trkpt lat="45.26905" lon="5.80041">
        <ele>1186.9</ele>
        <time>2020-09-06T12:42:03.000Z</time>
      </trkpt>
      <trkpt lat="45.26897" lon="5.80032">
        <ele>1185</ele>
        <time>2020-09-06T12:42:09.000Z</time>
      </trkpt>
      <trkpt lat="45.26894" lon="5.80028">
        <ele>1184.2</ele>
        <time>2020-09-06T12:42:11.000Z</time>
      </trkpt>
      <trkpt lat="45.26892" lon="5.80026">
        <ele>1183.8</ele>
        <time>2020-09-06T12:42:13.000Z</time>
      </trkpt>
      <trkpt lat="45.26885" lon="5.80025">
        <ele>1184.4</ele>
        <time>2020-09-06T12:42:18.000Z</time>
      </trkpt>
      <trkpt lat="45.26883" lon="5.80026">
        <ele>1184.7</ele>
        <time>2020-09-06T12:42:19.000Z</time>
      </trkpt>
      <trkpt lat="45.26883" lon="5.80027">
        <ele>1185</ele>
        <time>2020-09-06T12:42:20.000Z</time>
      </trkpt>
      <trkpt lat="45.26879" lon="5.80031">
        <ele>1186.4</ele>
        <time>2020-09-06T12:42:23.000Z</time>
      </trkpt>
      <trkpt lat="45.26874" lon="5.80038">
        <ele>1188.7</ele>
        <time>2020-09-06T12:42:29.000Z</time>
      </trkpt>
      <trkpt lat="45.26873" lon="5.80039">
        <ele>1189.1</ele>
        <time>2020-09-06T12:42:31.000Z</time>
      </trkpt>
      <trkpt lat="45.26863" lon="5.80043">
        <ele>1190.9</ele>
        <time>2020-09-06T12:42:37.000Z</time>
      </trkpt>
      <trkpt lat="45.26861" lon="5.80044">
        <ele>1191.1</ele>
        <time>2020-09-06T12:42:38.000Z</time>
      </trkpt>
      <trkpt lat="45.26857" lon="5.80048">
        <ele>1192.5</ele>
        <time>2020-09-06T12:42:42.000Z</time>
      </trkpt>
      <trkpt lat="45.26854" lon="5.80053">
        <ele>1193.9</ele>
        <time>2020-09-06T12:42:45.000Z</time>
      </trkpt>
      <trkpt lat="45.26852" lon="5.80056">
        <ele>1194.9</ele>
        <time>2020-09-06T12:42:47.000Z</time>
      </trkpt>
      <trkpt lat="45.2685" lon="5.80067">
        <ele>1197.4</ele>
        <time>2020-09-06T12:42:52.000Z</time>
      </trkpt>
      <trkpt lat="45.26841" lon="5.80081">
        <ele>1201</ele>
        <time>2020-09-06T12:42:57.000Z</time>
      </trkpt>
      <trkpt lat="45.26839" lon="5.80084">
        <ele>1201.8</ele>
        <time>2020-09-06T12:42:58.000Z</time>
      </trkpt>
      <trkpt lat="45.26828" lon="5.80092">
        <ele>1204.5</ele>
        <time>2020-09-06T12:43:03.000Z</time>
      </trkpt>
      <trkpt lat="45.26827" lon="5.80092">
        <ele>1204.7</ele>
        <time>2020-09-06T12:43:04.000Z</time>
      </trkpt>
      <trkpt lat="45.26816" lon="5.80088">
        <ele>1204.6</ele>
        <time>2020-09-06T12:43:11.000Z</time>
      </trkpt>
      <trkpt lat="45.26809" lon="5.80084">
        <ele>1204</ele>
        <time>2020-09-06T12:43:16.000Z</time>
      </trkpt>
      <trkpt lat="45.26808" lon="5.80084">
        <ele>1203.9</ele>
        <time>2020-09-06T12:43:17.000Z</time>
      </trkpt>
      <trkpt lat="45.26805" lon="5.80082">
        <ele>1203.9</ele>
        <time>2020-09-06T12:43:19.000Z</time>
      </trkpt>
      <trkpt lat="45.26798" lon="5.80078">
        <ele>1203.3</ele>
        <time>2020-09-06T12:43:24.000Z</time>
      </trkpt>
      <trkpt lat="45.26789" lon="5.80072">
        <ele>1202.5</ele>
        <time>2020-09-06T12:43:29.000Z</time>
      </trkpt>
      <trkpt lat="45.26785" lon="5.8007">
        <ele>1202.4</ele>
        <time>2020-09-06T12:43:31.000Z</time>
      </trkpt>
      <trkpt lat="45.26779" lon="5.80066">
        <ele>1201.8</ele>
        <time>2020-09-06T12:43:36.000Z</time>
      </trkpt>
      <trkpt lat="45.26776" lon="5.80065">
        <ele>1201.9</ele>
        <time>2020-09-06T12:43:39.000Z</time>
      </trkpt>
      <trkpt lat="45.26772" lon="5.80066">
        <ele>1202.3</ele>
        <time>2020-09-06T12:43:44.000Z</time>
      </trkpt>
      <trkpt lat="45.26767" lon="5.80065">
        <ele>1202.6</ele>
        <time>2020-09-06T12:43:48.000Z</time>
      </trkpt>
      <trkpt lat="45.26761" lon="5.80065">
        <ele>1202.9</ele>
        <time>2020-09-06T12:43:52.000Z</time>
      </trkpt>
      <trkpt lat="45.26757" lon="5.80065">
        <ele>1203.1</ele>
        <time>2020-09-06T12:43:56.000Z</time>
      </trkpt>
      <trkpt lat="45.26754" lon="5.80065">
        <ele>1203.3</ele>
        <time>2020-09-06T12:43:59.000Z</time>
      </trkpt>
      <trkpt lat="45.2675" lon="5.80063">
        <ele>1203.2</ele>
        <time>2020-09-06T12:44:02.000Z</time>
      </trkpt>
      <trkpt lat="45.26748" lon="5.80064">
        <ele>1203.6</ele>
        <time>2020-09-06T12:44:03.000Z</time>
      </trkpt>
      <trkpt lat="45.26744" lon="5.80064">
        <ele>1204.7</ele>
        <time>2020-09-06T12:44:07.000Z</time>
      </trkpt>
      <trkpt lat="45.26739" lon="5.80063">
        <ele>1205.6</ele>
        <time>2020-09-06T12:44:10.000Z</time>
      </trkpt>
      <trkpt lat="45.26736" lon="5.80063">
        <ele>1206.2</ele>
        <time>2020-09-06T12:44:12.000Z</time>
      </trkpt>
      <trkpt lat="45.26732" lon="5.80063">
        <ele>1207</ele>
        <time>2020-09-06T12:44:16.000Z</time>
      </trkpt>
      <trkpt lat="45.26725" lon="5.80063">
        <ele>1208.5</ele>
        <time>2020-09-06T12:44:19.000Z</time>
      </trkpt>
      <trkpt lat="45.26715" lon="5.80061">
        <ele>1210.3</ele>
        <time>2020-09-06T12:44:25.000Z</time>
      </trkpt>
      <trkpt lat="45.26713" lon="5.80061">
        <ele>1210.6</ele>
        <time>2020-09-06T12:44:26.000Z</time>
      </trkpt>
      <trkpt lat="45.2671" lon="5.80059">
        <ele>1210.9</ele>
        <time>2020-09-06T12:44:28.000Z</time>
      </trkpt>
      <trkpt lat="45.26707" lon="5.80057">
        <ele>1211</ele>
        <time>2020-09-06T12:44:30.000Z</time>
      </trkpt>
      <trkpt lat="45.26704" lon="5.80057">
        <ele>1211.5</ele>
        <time>2020-09-06T12:44:32.000Z</time>
      </trkpt>
      <trkpt lat="45.267" lon="5.80054">
        <ele>1211.7</ele>
        <time>2020-09-06T12:44:35.000Z</time>
      </trkpt>
      <trkpt lat="45.26691" lon="5.80052">
        <ele>1212.7</ele>
        <time>2020-09-06T12:44:39.000Z</time>
      </trkpt>
      <trkpt lat="45.26687" lon="5.80051">
        <ele>1213.2</ele>
        <time>2020-09-06T12:44:41.000Z</time>
      </trkpt>
      <trkpt lat="45.26682" lon="5.80052">
        <ele>1214.4</ele>
        <time>2020-09-06T12:44:44.000Z</time>
      </trkpt>
      <trkpt lat="45.26681" lon="5.80052">
        <ele>1214.8</ele>
        <time>2020-09-06T12:44:45.000Z</time>
      </trkpt>
      <trkpt lat="45.26669" lon="5.80046">
        <ele>1215.3</ele>
        <time>2020-09-06T12:44:53.000Z</time>
      </trkpt>
      <trkpt lat="45.26666" lon="5.80045">
        <ele>1215.3</ele>
        <time>2020-09-06T12:44:55.000Z</time>
      </trkpt>
      <trkpt lat="45.26655" lon="5.80039">
        <ele>1217.5</ele>
        <time>2020-09-06T12:45:02.000Z</time>
      </trkpt>
      <trkpt lat="45.26653" lon="5.80038">
        <ele>1217.6</ele>
        <time>2020-09-06T12:45:03.000Z</time>
      </trkpt>
      <trkpt lat="45.26647" lon="5.80035">
        <ele>1218.5</ele>
        <time>2020-09-06T12:45:07.000Z</time>
      </trkpt>
      <trkpt lat="45.26645" lon="5.80034">
        <ele>1219.1</ele>
        <time>2020-09-06T12:45:08.000Z</time>
      </trkpt>
      <trkpt lat="45.26638" lon="5.80031">
        <ele>1220.5</ele>
        <time>2020-09-06T12:45:12.000Z</time>
      </trkpt>
      <trkpt lat="45.26631" lon="5.80024">
        <ele>1220.8</ele>
        <time>2020-09-06T12:45:17.000Z</time>
      </trkpt>
      <trkpt lat="45.2662" lon="5.8002">
        <ele>1223.1</ele>
        <time>2020-09-06T12:45:22.000Z</time>
      </trkpt>
      <trkpt lat="45.26617" lon="5.80018">
        <ele>1223.6</ele>
        <time>2020-09-06T12:45:24.000Z</time>
      </trkpt>
      <trkpt lat="45.2661" lon="5.80011">
        <ele>1223.8</ele>
        <time>2020-09-06T12:45:29.000Z</time>
      </trkpt>
      <trkpt lat="45.26609" lon="5.80009">
        <ele>1223.7</ele>
        <time>2020-09-06T12:45:30.000Z</time>
      </trkpt>
      <trkpt lat="45.26602" lon="5.80001">
        <ele>1223.4</ele>
        <time>2020-09-06T12:45:35.000Z</time>
      </trkpt>
      <trkpt lat="45.26594" lon="5.79991">
        <ele>1223.5</ele>
        <time>2020-09-06T12:45:41.000Z</time>
      </trkpt>
      <trkpt lat="45.26591" lon="5.79989">
        <ele>1224.1</ele>
        <time>2020-09-06T12:45:43.000Z</time>
      </trkpt>
      <trkpt lat="45.2658" lon="5.79979">
        <ele>1224.4</ele>
        <time>2020-09-06T12:45:49.000Z</time>
      </trkpt>
      <trkpt lat="45.26579" lon="5.79978">
        <ele>1224.5</ele>
        <time>2020-09-06T12:45:50.000Z</time>
      </trkpt>
      <trkpt lat="45.26568" lon="5.79969">
        <ele>1224.5</ele>
        <time>2020-09-06T12:45:56.000Z</time>
      </trkpt>
      <trkpt lat="45.26563" lon="5.79965">
        <ele>1224.7</ele>
        <time>2020-09-06T12:45:59.000Z</time>
      </trkpt>
      <trkpt lat="45.26556" lon="5.79961">
        <ele>1224.9</ele>
        <time>2020-09-06T12:46:03.000Z</time>
      </trkpt>
      <trkpt lat="45.26554" lon="5.7996">
        <ele>1225</ele>
        <time>2020-09-06T12:46:05.000Z</time>
      </trkpt>
      <trkpt lat="45.26552" lon="5.7996">
        <ele>1225.3</ele>
        <time>2020-09-06T12:46:07.000Z</time>
      </trkpt>
      <trkpt lat="45.26551" lon="5.79961">
        <ele>1226.3</ele>
        <time>2020-09-06T12:46:11.000Z</time>
      </trkpt>
      <trkpt lat="45.26552" lon="5.79958">
        <ele>1225.1</ele>
        <time>2020-09-06T12:46:17.000Z</time>
      </trkpt>
      <trkpt lat="45.26552" lon="5.79961">
        <ele>1225.7</ele>
        <time>2020-09-06T12:46:24.000Z</time>
      </trkpt>
      <trkpt lat="45.26553" lon="5.79962">
        <ele>1226</ele>
        <time>2020-09-06T12:46:30.000Z</time>
      </trkpt>
      <trkpt lat="45.26553" lon="5.79963">
        <ele>1226.5</ele>
        <time>2020-09-06T12:46:32.000Z</time>
      </trkpt>
      <trkpt lat="45.26552" lon="5.79963">
        <ele>1226.6</ele>
        <time>2020-09-06T12:46:36.000Z</time>
      </trkpt>
      <trkpt lat="45.26555" lon="5.79963">
        <ele>1225.9</ele>
        <time>2020-09-06T12:46:49.000Z</time>
      </trkpt>
      <trkpt lat="45.26556" lon="5.79962">
        <ele>1225.2</ele>
        <time>2020-09-06T12:46:58.000Z</time>
      </trkpt>
      <trkpt lat="45.26556" lon="5.79962">
        <ele>1225.4</ele>
        <time>2020-09-06T12:47:08.000Z</time>
      </trkpt>
      <trkpt lat="45.26553" lon="5.79962">
        <ele>1226.1</ele>
        <time>2020-09-06T12:47:17.000Z</time>
      </trkpt>
      <trkpt lat="45.26553" lon="5.79961">
        <ele>1225.8</ele>
        <time>2020-09-06T12:47:25.000Z</time>
      </trkpt>
      <trkpt lat="45.26553" lon="5.79961">
        <ele>1225.7</ele>
        <time>2020-09-06T12:47:26.000Z</time>
      </trkpt>
      <trkpt lat="45.26554" lon="5.7996">
        <ele>1225.1</ele>
        <time>2020-09-06T12:47:36.000Z</time>
      </trkpt>
      <trkpt lat="45.26554" lon="5.7996">
        <ele>1225.1</ele>
        <time>2020-09-06T12:47:45.000Z</time>
      </trkpt>
      <trkpt lat="45.26555" lon="5.79959">
        <ele>1224.5</ele>
        <time>2020-09-06T12:47:54.000Z</time>
      </trkpt>
      <trkpt lat="45.26555" lon="5.79959">
        <ele>1224.6</ele>
        <time>2020-09-06T12:47:57.000Z</time>
      </trkpt>
      <trkpt lat="45.26555" lon="5.79958">
        <ele>1224.4</ele>
        <time>2020-09-06T12:48:03.000Z</time>
      </trkpt>
      <trkpt lat="45.26555" lon="5.79959">
        <ele>1224.5</ele>
        <time>2020-09-06T12:48:12.000Z</time>
      </trkpt>
      <trkpt lat="45.26556" lon="5.79959">
        <ele>1224.4</ele>
        <time>2020-09-06T12:48:21.000Z</time>
      </trkpt>
      <trkpt lat="45.26556" lon="5.79959">
        <ele>1224.2</ele>
        <time>2020-09-06T12:48:28.000Z</time>
      </trkpt>
      <trkpt lat="45.26556" lon="5.79959">
        <ele>1224.4</ele>
        <time>2020-09-06T12:48:38.000Z</time>
      </trkpt>
      <trkpt lat="45.26556" lon="5.79959">
        <ele>1224.3</ele>
        <time>2020-09-06T12:48:48.000Z</time>
      </trkpt>
      <trkpt lat="45.26557" lon="5.79958">
        <ele>1223.8</ele>
        <time>2020-09-06T12:48:57.000Z</time>
      </trkpt>
      <trkpt lat="45.26556" lon="5.79958">
        <ele>1223.9</ele>
        <time>2020-09-06T12:49:04.000Z</time>
      </trkpt>
      <trkpt lat="45.26556" lon="5.79957">
        <ele>1223.6</ele>
        <time>2020-09-06T12:49:13.000Z</time>
      </trkpt>
      <trkpt lat="45.26555" lon="5.79957">
        <ele>1223.8</ele>
        <time>2020-09-06T12:49:22.000Z</time>
      </trkpt>
      <trkpt lat="45.26554" lon="5.79957">
        <ele>1224.2</ele>
        <time>2020-09-06T12:49:28.000Z</time>
      </trkpt>
      <trkpt lat="45.26554" lon="5.79957">
        <ele>1224.1</ele>
        <time>2020-09-06T12:49:34.000Z</time>
      </trkpt>
      <trkpt lat="45.26557" lon="5.79959">
        <ele>1224.1</ele>
        <time>2020-09-06T12:49:41.000Z</time>
      </trkpt>
      <trkpt lat="45.26557" lon="5.79959">
        <ele>1224</ele>
        <time>2020-09-06T12:49:48.000Z</time>
      </trkpt>
      <trkpt lat="45.26557" lon="5.7996">
        <ele>1224.2</ele>
        <time>2020-09-06T12:49:57.000Z</time>
      </trkpt>
      <trkpt lat="45.26558" lon="5.7996">
        <ele>1224.1</ele>
        <time>2020-09-06T12:50:06.000Z</time>
      </trkpt>
      <trkpt lat="45.26556" lon="5.79959">
        <ele>1224.4</ele>
        <time>2020-09-06T12:50:14.000Z</time>
      </trkpt>
      <trkpt lat="45.26556" lon="5.7996">
        <ele>1224.6</ele>
        <time>2020-09-06T12:50:23.000Z</time>
      </trkpt>
      <trkpt lat="45.26556" lon="5.7996">
        <ele>1224.5</ele>
        <time>2020-09-06T12:50:25.000Z</time>
      </trkpt>
      <trkpt lat="45.26554" lon="5.79961">
        <ele>1225.3</ele>
        <time>2020-09-06T12:50:32.000Z</time>
      </trkpt>
      <trkpt lat="45.26553" lon="5.79959">
        <ele>1225.2</ele>
        <time>2020-09-06T12:50:42.000Z</time>
      </trkpt>
      <trkpt lat="45.26553" lon="5.79961">
        <ele>1225.6</ele>
        <time>2020-09-06T12:50:49.000Z</time>
      </trkpt>
      <trkpt lat="45.26557" lon="5.79961">
        <ele>1224.6</ele>
        <time>2020-09-06T12:50:59.000Z</time>
      </trkpt>
      <trkpt lat="45.26556" lon="5.79961">
        <ele>1225</ele>
        <time>2020-09-06T12:51:07.000Z</time>
      </trkpt>
      <trkpt lat="45.26557" lon="5.79961">
        <ele>1224.6</ele>
        <time>2020-09-06T12:51:16.000Z</time>
      </trkpt>
      <trkpt lat="45.26558" lon="5.79964">
        <ele>1225.3</ele>
        <time>2020-09-06T12:51:23.000Z</time>
      </trkpt>
      <trkpt lat="45.26558" lon="5.79967">
        <ele>1226.3</ele>
        <time>2020-09-06T12:51:32.000Z</time>
      </trkpt>
      <trkpt lat="45.26559" lon="5.79965">
        <ele>1225.6</ele>
        <time>2020-09-06T12:51:39.000Z</time>
      </trkpt>
      <trkpt lat="45.2656" lon="5.79966">
        <ele>1225.4</ele>
        <time>2020-09-06T12:51:46.000Z</time>
      </trkpt>
      <trkpt lat="45.26558" lon="5.79969">
        <ele>1226.9</ele>
        <time>2020-09-06T12:51:53.000Z</time>
      </trkpt>
      <trkpt lat="45.26558" lon="5.79969">
        <ele>1226.9</ele>
        <time>2020-09-06T12:52:02.000Z</time>
      </trkpt>
      <trkpt lat="45.26558" lon="5.79969">
        <ele>1227.1</ele>
        <time>2020-09-06T12:52:18.000Z</time>
      </trkpt>
      <trkpt lat="45.26558" lon="5.79969">
        <ele>1227.1</ele>
        <time>2020-09-06T12:52:32.000Z</time>
      </trkpt>
      <trkpt lat="45.26558" lon="5.79969">
        <ele>1227.2</ele>
        <time>2020-09-06T12:52:35.000Z</time>
      </trkpt>
      <trkpt lat="45.26558" lon="5.79969">
        <ele>1227.2</ele>
        <time>2020-09-06T12:52:38.000Z</time>
      </trkpt>
      <trkpt lat="45.26556" lon="5.7997">
        <ele>1227.6</ele>
        <time>2020-09-06T12:52:55.000Z</time>
      </trkpt>
      <trkpt lat="45.26556" lon="5.7997">
        <ele>1227.7</ele>
        <time>2020-09-06T12:53:06.000Z</time>
      </trkpt>
      <trkpt lat="45.26554" lon="5.79972">
        <ele>1228.9</ele>
        <time>2020-09-06T12:53:14.000Z</time>
      </trkpt>
      <trkpt lat="45.26551" lon="5.79974">
        <ele>1230.3</ele>
        <time>2020-09-06T12:53:40.000Z</time>
      </trkpt>
      <trkpt lat="45.26552" lon="5.79973">
        <ele>1229.9</ele>
        <time>2020-09-06T12:53:44.000Z</time>
      </trkpt>
      <trkpt lat="45.26553" lon="5.79972">
        <ele>1229.2</ele>
        <time>2020-09-06T12:53:48.000Z</time>
      </trkpt>
      <trkpt lat="45.26555" lon="5.79969">
        <ele>1227.6</ele>
        <time>2020-09-06T12:53:56.000Z</time>
      </trkpt>
      <trkpt lat="45.2656" lon="5.7997">
        <ele>1226.7</ele>
        <time>2020-09-06T12:54:03.000Z</time>
      </trkpt>
      <trkpt lat="45.26558" lon="5.7997">
        <ele>1227.3</ele>
        <time>2020-09-06T12:54:12.000Z</time>
      </trkpt>
      <trkpt lat="45.26556" lon="5.79971">
        <ele>1228</ele>
        <time>2020-09-06T12:54:22.000Z</time>
      </trkpt>
      <trkpt lat="45.26558" lon="5.79969">
        <ele>1227.2</ele>
        <time>2020-09-06T12:54:32.000Z</time>
      </trkpt>
      <trkpt lat="45.26557" lon="5.7997">
        <ele>1227.5</ele>
        <time>2020-09-06T12:54:38.000Z</time>
      </trkpt>
      <trkpt lat="45.26557" lon="5.7997">
        <ele>1227.7</ele>
        <time>2020-09-06T12:54:45.000Z</time>
      </trkpt>
      <trkpt lat="45.26559" lon="5.79969">
        <ele>1226.9</ele>
        <time>2020-09-06T12:54:55.000Z</time>
      </trkpt>
      <trkpt lat="45.2656" lon="5.79961">
        <ele>1223.7</ele>
        <time>2020-09-06T12:55:03.000Z</time>
      </trkpt>
      <trkpt lat="45.26557" lon="5.79961">
        <ele>1224.6</ele>
        <time>2020-09-06T12:55:13.000Z</time>
      </trkpt>
      <trkpt lat="45.26556" lon="5.79965">
        <ele>1226.1</ele>
        <time>2020-09-06T12:55:21.000Z</time>
      </trkpt>
      <trkpt lat="45.26553" lon="5.7997">
        <ele>1228.6</ele>
        <time>2020-09-06T12:55:28.000Z</time>
      </trkpt>
      <trkpt lat="45.26552" lon="5.79973">
        <ele>1229.9</ele>
        <time>2020-09-06T12:55:35.000Z</time>
      </trkpt>
      <trkpt lat="45.26552" lon="5.79969">
        <ele>1228.6</ele>
        <time>2020-09-06T12:55:45.000Z</time>
      </trkpt>
      <trkpt lat="45.26552" lon="5.79965">
        <ele>1227.2</ele>
        <time>2020-09-06T12:55:55.000Z</time>
      </trkpt>
      <trkpt lat="45.26553" lon="5.79965">
        <ele>1226.8</ele>
        <time>2020-09-06T12:56:04.000Z</time>
      </trkpt>
      <trkpt lat="45.26554" lon="5.79963">
        <ele>1226.2</ele>
        <time>2020-09-06T12:56:09.000Z</time>
      </trkpt>
      <trkpt lat="45.26555" lon="5.79964">
        <ele>1226</ele>
        <time>2020-09-06T12:56:15.000Z</time>
      </trkpt>
      <trkpt lat="45.26555" lon="5.79965">
        <ele>1226.5</ele>
        <time>2020-09-06T12:56:21.000Z</time>
      </trkpt>
      <trkpt lat="45.2656" lon="5.79964">
        <ele>1225</ele>
        <time>2020-09-06T12:56:29.000Z</time>
      </trkpt>
      <trkpt lat="45.26559" lon="5.79967">
        <ele>1226.2</ele>
        <time>2020-09-06T12:56:36.000Z</time>
      </trkpt>
      <trkpt lat="45.26557" lon="5.79967">
        <ele>1226.5</ele>
        <time>2020-09-06T12:56:46.000Z</time>
      </trkpt>
      <trkpt lat="45.26556" lon="5.79968">
        <ele>1227.1</ele>
        <time>2020-09-06T12:56:53.000Z</time>
      </trkpt>
      <trkpt lat="45.26557" lon="5.79964">
        <ele>1225.7</ele>
        <time>2020-09-06T12:57:00.000Z</time>
      </trkpt>
      <trkpt lat="45.26556" lon="5.79965">
        <ele>1226.2</ele>
        <time>2020-09-06T12:57:08.000Z</time>
      </trkpt>
      <trkpt lat="45.26556" lon="5.79966">
        <ele>1226.5</ele>
        <time>2020-09-06T12:57:16.000Z</time>
      </trkpt>
      <trkpt lat="45.26555" lon="5.79964">
        <ele>1226</ele>
        <time>2020-09-06T12:57:24.000Z</time>
      </trkpt>
      <trkpt lat="45.26553" lon="5.79963">
        <ele>1226.2</ele>
        <time>2020-09-06T12:57:34.000Z</time>
      </trkpt>
      <trkpt lat="45.26553" lon="5.79962">
        <ele>1226</ele>
        <time>2020-09-06T12:57:45.000Z</time>
      </trkpt>
      <trkpt lat="45.26553" lon="5.79962">
        <ele>1226</ele>
        <time>2020-09-06T12:57:55.000Z</time>
      </trkpt>
      <trkpt lat="45.26554" lon="5.79961">
        <ele>1225.3</ele>
        <time>2020-09-06T12:58:06.000Z</time>
      </trkpt>
      <trkpt lat="45.26554" lon="5.79961">
        <ele>1225.5</ele>
        <time>2020-09-06T12:58:13.000Z</time>
      </trkpt>
      <trkpt lat="45.26554" lon="5.79961">
        <ele>1225.5</ele>
        <time>2020-09-06T12:58:21.000Z</time>
      </trkpt>
      <trkpt lat="45.26555" lon="5.79962">
        <ele>1225.6</ele>
        <time>2020-09-06T12:58:28.000Z</time>
      </trkpt>
      <trkpt lat="45.26555" lon="5.79963">
        <ele>1225.5</ele>
        <time>2020-09-06T12:58:35.000Z</time>
      </trkpt>
      <trkpt lat="45.26555" lon="5.79964">
        <ele>1226</ele>
        <time>2020-09-06T12:58:42.000Z</time>
      </trkpt>
      <trkpt lat="45.26554" lon="5.79964">
        <ele>1226.5</ele>
        <time>2020-09-06T12:58:49.000Z</time>
      </trkpt>
      <trkpt lat="45.26556" lon="5.79963">
        <ele>1225.6</ele>
        <time>2020-09-06T12:58:56.000Z</time>
      </trkpt>
      <trkpt lat="45.26556" lon="5.79962">
        <ele>1225.4</ele>
        <time>2020-09-06T12:59:04.000Z</time>
      </trkpt>
      <trkpt lat="45.26556" lon="5.79961">
        <ele>1225</ele>
        <time>2020-09-06T12:59:13.000Z</time>
      </trkpt>
      <trkpt lat="45.26557" lon="5.79961">
        <ele>1224.7</ele>
        <time>2020-09-06T12:59:23.000Z</time>
      </trkpt>
      <trkpt lat="45.26556" lon="5.7996">
        <ele>1224.8</ele>
        <time>2020-09-06T12:59:32.000Z</time>
      </trkpt>
      <trkpt lat="45.26555" lon="5.79959">
        <ele>1224.7</ele>
        <time>2020-09-06T12:59:41.000Z</time>
      </trkpt>
      <trkpt lat="45.26552" lon="5.79963">
        <ele>1226.5</ele>
        <time>2020-09-06T12:59:49.000Z</time>
      </trkpt>
      <trkpt lat="45.26551" lon="5.79963">
        <ele>1227</ele>
        <time>2020-09-06T12:59:59.000Z</time>
      </trkpt>
      <trkpt lat="45.26553" lon="5.79961">
        <ele>1225.8</ele>
        <time>2020-09-06T13:00:07.000Z</time>
      </trkpt>
      <trkpt lat="45.26555" lon="5.79959">
        <ele>1224.8</ele>
        <time>2020-09-06T13:00:16.000Z</time>
      </trkpt>
      <trkpt lat="45.26554" lon="5.79959">
        <ele>1224.6</ele>
        <time>2020-09-06T13:00:23.000Z</time>
      </trkpt>
      <trkpt lat="45.26554" lon="5.7996">
        <ele>1225.1</ele>
        <time>2020-09-06T13:00:29.000Z</time>
      </trkpt>
      <trkpt lat="45.26553" lon="5.79959">
        <ele>1225</ele>
        <time>2020-09-06T13:00:37.000Z</time>
      </trkpt>
      <trkpt lat="45.26553" lon="5.79959">
        <ele>1224.7</ele>
        <time>2020-09-06T13:00:44.000Z</time>
      </trkpt>
      <trkpt lat="45.26555" lon="5.79957">
        <ele>1223.9</ele>
        <time>2020-09-06T13:00:54.000Z</time>
      </trkpt>
      <trkpt lat="45.26555" lon="5.79957">
        <ele>1223.9</ele>
        <time>2020-09-06T13:01:06.000Z</time>
      </trkpt>
      <trkpt lat="45.26556" lon="5.79959">
        <ele>1224.2</ele>
        <time>2020-09-06T13:01:19.000Z</time>
      </trkpt>
      <trkpt lat="45.26556" lon="5.79959">
        <ele>1224.2</ele>
        <time>2020-09-06T13:01:38.000Z</time>
      </trkpt>
      <trkpt lat="45.26556" lon="5.7996">
        <ele>1224.7</ele>
        <time>2020-09-06T13:02:13.000Z</time>
      </trkpt>
      <trkpt lat="45.26556" lon="5.7996">
        <ele>1224.5</ele>
        <time>2020-09-06T13:02:40.000Z</time>
      </trkpt>
      <trkpt lat="45.26556" lon="5.7996">
        <ele>1224.5</ele>
        <time>2020-09-06T13:03:01.000Z</time>
      </trkpt>
      <trkpt lat="45.26554" lon="5.79961">
        <ele>1225.4</ele>
        <time>2020-09-06T13:03:15.000Z</time>
      </trkpt>
      <trkpt lat="45.26554" lon="5.7996">
        <ele>1225.2</ele>
        <time>2020-09-06T13:03:34.000Z</time>
      </trkpt>
      <trkpt lat="45.26552" lon="5.79959">
        <ele>1225.1</ele>
        <time>2020-09-06T13:03:51.000Z</time>
      </trkpt>
      <trkpt lat="45.26557" lon="5.79963">
        <ele>1225.2</ele>
        <time>2020-09-06T13:04:12.000Z</time>
      </trkpt>
      <trkpt lat="45.26554" lon="5.79959">
        <ele>1224.9</ele>
        <time>2020-09-06T13:04:32.000Z</time>
      </trkpt>
      <trkpt lat="45.26553" lon="5.79958">
        <ele>1224.7</ele>
        <time>2020-09-06T13:04:48.000Z</time>
      </trkpt>
      <trkpt lat="45.26551" lon="5.79953">
        <ele>1223.4</ele>
        <time>2020-09-06T13:05:01.000Z</time>
      </trkpt>
      <trkpt lat="45.26551" lon="5.7995">
        <ele>1222.7</ele>
        <time>2020-09-06T13:05:02.000Z</time>
      </trkpt>
      <trkpt lat="45.26549" lon="5.7994">
        <ele>1219.7</ele>
        <time>2020-09-06T13:05:05.000Z</time>
      </trkpt>
      <trkpt lat="45.2655" lon="5.79932">
        <ele>1216.9</ele>
        <time>2020-09-06T13:05:07.000Z</time>
      </trkpt>
      <trkpt lat="45.26551" lon="5.79929">
        <ele>1215.8</ele>
        <time>2020-09-06T13:05:08.000Z</time>
      </trkpt>
      <trkpt lat="45.26552" lon="5.79928">
        <ele>1215</ele>
        <time>2020-09-06T13:05:09.000Z</time>
      </trkpt>
      <trkpt lat="45.26555" lon="5.79929">
        <ele>1214.8</ele>
        <time>2020-09-06T13:05:10.000Z</time>
      </trkpt>
      <trkpt lat="45.2656" lon="5.79932">
        <ele>1214.7</ele>
        <time>2020-09-06T13:05:12.000Z</time>
      </trkpt>
      <trkpt lat="45.26565" lon="5.79936">
        <ele>1215.1</ele>
        <time>2020-09-06T13:05:14.000Z</time>
      </trkpt>
      <trkpt lat="45.26569" lon="5.79944">
        <ele>1216.4</ele>
        <time>2020-09-06T13:05:16.000Z</time>
      </trkpt>
      <trkpt lat="45.26574" lon="5.79951">
        <ele>1217.5</ele>
        <time>2020-09-06T13:05:18.000Z</time>
      </trkpt>
      <trkpt lat="45.26576" lon="5.79952">
        <ele>1217.4</ele>
        <time>2020-09-06T13:05:19.000Z</time>
      </trkpt>
      <trkpt lat="45.26579" lon="5.79956">
        <ele>1217.6</ele>
        <time>2020-09-06T13:05:20.000Z</time>
      </trkpt>
      <trkpt lat="45.26583" lon="5.7996">
        <ele>1218.1</ele>
        <time>2020-09-06T13:05:21.000Z</time>
      </trkpt>
      <trkpt lat="45.26588" lon="5.79966">
        <ele>1218.2</ele>
        <time>2020-09-06T13:05:23.000Z</time>
      </trkpt>
      <trkpt lat="45.26593" lon="5.79968">
        <ele>1217.1</ele>
        <time>2020-09-06T13:05:24.000Z</time>
      </trkpt>
      <trkpt lat="45.26598" lon="5.79972">
        <ele>1216.6</ele>
        <time>2020-09-06T13:05:25.000Z</time>
      </trkpt>
      <trkpt lat="45.26606" lon="5.79978">
        <ele>1215.5</ele>
        <time>2020-09-06T13:05:27.000Z</time>
      </trkpt>
      <trkpt lat="45.26619" lon="5.79984">
        <ele>1212.4</ele>
        <time>2020-09-06T13:05:29.000Z</time>
      </trkpt>
      <trkpt lat="45.26625" lon="5.79986">
        <ele>1210.7</ele>
        <time>2020-09-06T13:05:30.000Z</time>
      </trkpt>
      <trkpt lat="45.26634" lon="5.79994">
        <ele>1209.3</ele>
        <time>2020-09-06T13:05:33.000Z</time>
      </trkpt>
      <trkpt lat="45.26645" lon="5.79995">
        <ele>1205.6</ele>
        <time>2020-09-06T13:05:35.000Z</time>
      </trkpt>
      <trkpt lat="45.26648" lon="5.79997">
        <ele>1205</ele>
        <time>2020-09-06T13:05:36.000Z</time>
      </trkpt>
      <trkpt lat="45.26652" lon="5.79999">
        <ele>1204.1</ele>
        <time>2020-09-06T13:05:37.000Z</time>
      </trkpt>
      <trkpt lat="45.26655" lon="5.79999">
        <ele>1203.1</ele>
        <time>2020-09-06T13:05:38.000Z</time>
      </trkpt>
      <trkpt lat="45.26658" lon="5.8">
        <ele>1202.4</ele>
        <time>2020-09-06T13:05:39.000Z</time>
      </trkpt>
      <trkpt lat="45.26669" lon="5.80002">
        <ele>1199.3</ele>
        <time>2020-09-06T13:05:41.000Z</time>
      </trkpt>
      <trkpt lat="45.26676" lon="5.80003">
        <ele>1198.7</ele>
        <time>2020-09-06T13:05:43.000Z</time>
      </trkpt>
      <trkpt lat="45.26684" lon="5.80004">
        <ele>1198</ele>
        <time>2020-09-06T13:05:44.000Z</time>
      </trkpt>
      <trkpt lat="45.26708" lon="5.80014">
        <ele>1197.6</ele>
        <time>2020-09-06T13:05:48.000Z</time>
      </trkpt>
      <trkpt lat="45.26713" lon="5.80017">
        <ele>1197.9</ele>
        <time>2020-09-06T13:05:50.000Z</time>
      </trkpt>
      <trkpt lat="45.26722" lon="5.80023">
        <ele>1198</ele>
        <time>2020-09-06T13:05:53.000Z</time>
      </trkpt>
      <trkpt lat="45.26729" lon="5.80029">
        <ele>1198.6</ele>
        <time>2020-09-06T13:05:57.000Z</time>
      </trkpt>
      <trkpt lat="45.26735" lon="5.80034">
        <ele>1199</ele>
        <time>2020-09-06T13:05:59.000Z</time>
      </trkpt>
      <trkpt lat="45.26738" lon="5.80039">
        <ele>1199.6</ele>
        <time>2020-09-06T13:06:01.000Z</time>
      </trkpt>
      <trkpt lat="45.26742" lon="5.80042">
        <ele>1199.5</ele>
        <time>2020-09-06T13:06:03.000Z</time>
      </trkpt>
      <trkpt lat="45.26745" lon="5.80043">
        <ele>1199.4</ele>
        <time>2020-09-06T13:06:04.000Z</time>
      </trkpt>
      <trkpt lat="45.26749" lon="5.80045">
        <ele>1198.9</ele>
        <time>2020-09-06T13:06:05.000Z</time>
      </trkpt>
      <trkpt lat="45.26753" lon="5.80046">
        <ele>1198.9</ele>
        <time>2020-09-06T13:06:06.000Z</time>
      </trkpt>
      <trkpt lat="45.26764" lon="5.80052">
        <ele>1199.6</ele>
        <time>2020-09-06T13:06:10.000Z</time>
      </trkpt>
      <trkpt lat="45.26764" lon="5.80053">
        <ele>1199.8</ele>
        <time>2020-09-06T13:06:11.000Z</time>
      </trkpt>
      <trkpt lat="45.26766" lon="5.80053">
        <ele>1199.8</ele>
        <time>2020-09-06T13:06:12.000Z</time>
      </trkpt>
      <trkpt lat="45.26772" lon="5.80056">
        <ele>1200.1</ele>
        <time>2020-09-06T13:06:14.000Z</time>
      </trkpt>
      <trkpt lat="45.26776" lon="5.80057">
        <ele>1200</ele>
        <time>2020-09-06T13:06:15.000Z</time>
      </trkpt>
      <trkpt lat="45.26777" lon="5.80056">
        <ele>1199.7</ele>
        <time>2020-09-06T13:06:16.000Z</time>
      </trkpt>
      <trkpt lat="45.26776" lon="5.80054">
        <ele>1199.2</ele>
        <time>2020-09-06T13:06:17.000Z</time>
      </trkpt>
      <trkpt lat="45.26775" lon="5.80047">
        <ele>1197.7</ele>
        <time>2020-09-06T13:06:19.000Z</time>
      </trkpt>
      <trkpt lat="45.26775" lon="5.80044">
        <ele>1197.1</ele>
        <time>2020-09-06T13:06:20.000Z</time>
      </trkpt>
      <trkpt lat="45.26774" lon="5.80041">
        <ele>1196.5</ele>
        <time>2020-09-06T13:06:21.000Z</time>
      </trkpt>
      <trkpt lat="45.26771" lon="5.80037">
        <ele>1195.7</ele>
        <time>2020-09-06T13:06:22.000Z</time>
      </trkpt>
      <trkpt lat="45.26768" lon="5.80034">
        <ele>1195.1</ele>
        <time>2020-09-06T13:06:23.000Z</time>
      </trkpt>
      <trkpt lat="45.26766" lon="5.80029">
        <ele>1194.1</ele>
        <time>2020-09-06T13:06:24.000Z</time>
      </trkpt>
      <trkpt lat="45.26762" lon="5.80025">
        <ele>1193.3</ele>
        <time>2020-09-06T13:06:25.000Z</time>
      </trkpt>
      <trkpt lat="45.26753" lon="5.80019">
        <ele>1192.3</ele>
        <time>2020-09-06T13:06:28.000Z</time>
      </trkpt>
      <trkpt lat="45.26743" lon="5.80005">
        <ele>1190.2</ele>
        <time>2020-09-06T13:06:32.000Z</time>
      </trkpt>
      <trkpt lat="45.2674" lon="5.80004">
        <ele>1190.5</ele>
        <time>2020-09-06T13:06:33.000Z</time>
      </trkpt>
      <trkpt lat="45.26725" lon="5.79996">
        <ele>1190.6</ele>
        <time>2020-09-06T13:06:37.000Z</time>
      </trkpt>
      <trkpt lat="45.26721" lon="5.79993">
        <ele>1190.3</ele>
        <time>2020-09-06T13:06:38.000Z</time>
      </trkpt>
      <trkpt lat="45.26719" lon="5.7999">
        <ele>1190.1</ele>
        <time>2020-09-06T13:06:39.000Z</time>
      </trkpt>
      <trkpt lat="45.26713" lon="5.79983">
        <ele>1189.3</ele>
        <time>2020-09-06T13:06:41.000Z</time>
      </trkpt>
      <trkpt lat="45.2671" lon="5.7998">
        <ele>1189</ele>
        <time>2020-09-06T13:06:42.000Z</time>
      </trkpt>
      <trkpt lat="45.26702" lon="5.79969">
        <ele>1187.7</ele>
        <time>2020-09-06T13:06:45.000Z</time>
      </trkpt>
      <trkpt lat="45.26702" lon="5.79965">
        <ele>1186.8</ele>
        <time>2020-09-06T13:06:46.000Z</time>
      </trkpt>
      <trkpt lat="45.26703" lon="5.79961">
        <ele>1186</ele>
        <time>2020-09-06T13:06:47.000Z</time>
      </trkpt>
      <trkpt lat="45.26704" lon="5.7996">
        <ele>1185.5</ele>
        <time>2020-09-06T13:06:48.000Z</time>
      </trkpt>
      <trkpt lat="45.26704" lon="5.79959">
        <ele>1185.2</ele>
        <time>2020-09-06T13:06:49.000Z</time>
      </trkpt>
      <trkpt lat="45.26704" lon="5.79952">
        <ele>1183.8</ele>
        <time>2020-09-06T13:06:51.000Z</time>
      </trkpt>
      <trkpt lat="45.26703" lon="5.79947">
        <ele>1183</ele>
        <time>2020-09-06T13:06:52.000Z</time>
      </trkpt>
      <trkpt lat="45.26703" lon="5.79941">
        <ele>1181.6</ele>
        <time>2020-09-06T13:06:53.000Z</time>
      </trkpt>
      <trkpt lat="45.26705" lon="5.79939">
        <ele>1181</ele>
        <time>2020-09-06T13:06:54.000Z</time>
      </trkpt>
      <trkpt lat="45.2671" lon="5.79942">
        <ele>1181.3</ele>
        <time>2020-09-06T13:06:56.000Z</time>
      </trkpt>
      <trkpt lat="45.26712" lon="5.79944">
        <ele>1181.5</ele>
        <time>2020-09-06T13:06:57.000Z</time>
      </trkpt>
      <trkpt lat="45.26717" lon="5.79949">
        <ele>1182</ele>
        <time>2020-09-06T13:06:59.000Z</time>
      </trkpt>
      <trkpt lat="45.26725" lon="5.79948">
        <ele>1181</ele>
        <time>2020-09-06T13:07:01.000Z</time>
      </trkpt>
      <trkpt lat="45.26726" lon="5.79932">
        <ele>1177.7</ele>
        <time>2020-09-06T13:07:04.000Z</time>
      </trkpt>
      <trkpt lat="45.26727" lon="5.79927">
        <ele>1176.7</ele>
        <time>2020-09-06T13:07:05.000Z</time>
      </trkpt>
      <trkpt lat="45.26726" lon="5.79922">
        <ele>1175.7</ele>
        <time>2020-09-06T13:07:06.000Z</time>
      </trkpt>
      <trkpt lat="45.26723" lon="5.79916">
        <ele>1174.8</ele>
        <time>2020-09-06T13:07:07.000Z</time>
      </trkpt>
      <trkpt lat="45.26721" lon="5.79911">
        <ele>1173.9</ele>
        <time>2020-09-06T13:07:08.000Z</time>
      </trkpt>
      <trkpt lat="45.26718" lon="5.79903">
        <ele>1172.5</ele>
        <time>2020-09-06T13:07:10.000Z</time>
      </trkpt>
      <trkpt lat="45.26714" lon="5.79897">
        <ele>1171.4</ele>
        <time>2020-09-06T13:07:12.000Z</time>
      </trkpt>
      <trkpt lat="45.26706" lon="5.79885">
        <ele>1169.6</ele>
        <time>2020-09-06T13:07:15.000Z</time>
      </trkpt>
      <trkpt lat="45.26702" lon="5.79876">
        <ele>1167.9</ele>
        <time>2020-09-06T13:07:17.000Z</time>
      </trkpt>
      <trkpt lat="45.26701" lon="5.79873">
        <ele>1167.2</ele>
        <time>2020-09-06T13:07:18.000Z</time>
      </trkpt>
      <trkpt lat="45.26699" lon="5.79867">
        <ele>1166.1</ele>
        <time>2020-09-06T13:07:19.000Z</time>
      </trkpt>
      <trkpt lat="45.26696" lon="5.79859">
        <ele>1164.8</ele>
        <time>2020-09-06T13:07:20.000Z</time>
      </trkpt>
      <trkpt lat="45.26689" lon="5.79848">
        <ele>1162.7</ele>
        <time>2020-09-06T13:07:22.000Z</time>
      </trkpt>
      <trkpt lat="45.26688" lon="5.79843">
        <ele>1161.7</ele>
        <time>2020-09-06T13:07:23.000Z</time>
      </trkpt>
      <trkpt lat="45.26688" lon="5.79838">
        <ele>1160.8</ele>
        <time>2020-09-06T13:07:24.000Z</time>
      </trkpt>
      <trkpt lat="45.26691" lon="5.7983">
        <ele>1158.9</ele>
        <time>2020-09-06T13:07:26.000Z</time>
      </trkpt>
      <trkpt lat="45.26692" lon="5.79816">
        <ele>1155.9</ele>
        <time>2020-09-06T13:07:28.000Z</time>
      </trkpt>
      <trkpt lat="45.2669" lon="5.79798">
        <ele>1152.5</ele>
        <time>2020-09-06T13:07:30.000Z</time>
      </trkpt>
      <trkpt lat="45.26688" lon="5.79792">
        <ele>1151.2</ele>
        <time>2020-09-06T13:07:31.000Z</time>
      </trkpt>
      <trkpt lat="45.26687" lon="5.79785">
        <ele>1150</ele>
        <time>2020-09-06T13:07:32.000Z</time>
      </trkpt>
      <trkpt lat="45.26683" lon="5.79765">
        <ele>1146.2</ele>
        <time>2020-09-06T13:07:35.000Z</time>
      </trkpt>
      <trkpt lat="45.26681" lon="5.79753">
        <ele>1144.2</ele>
        <time>2020-09-06T13:07:37.000Z</time>
      </trkpt>
      <trkpt lat="45.26679" lon="5.79748">
        <ele>1143.2</ele>
        <time>2020-09-06T13:07:38.000Z</time>
      </trkpt>
      <trkpt lat="45.26674" lon="5.79731">
        <ele>1139.9</ele>
        <time>2020-09-06T13:07:41.000Z</time>
      </trkpt>
      <trkpt lat="45.26671" lon="5.79721">
        <ele>1138.2</ele>
        <time>2020-09-06T13:07:43.000Z</time>
      </trkpt>
      <trkpt lat="45.26671" lon="5.79716">
        <ele>1137.1</ele>
        <time>2020-09-06T13:07:44.000Z</time>
      </trkpt>
      <trkpt lat="45.26668" lon="5.79709">
        <ele>1135.9</ele>
        <time>2020-09-06T13:07:45.000Z</time>
      </trkpt>
      <trkpt lat="45.26665" lon="5.79702">
        <ele>1135</ele>
        <time>2020-09-06T13:07:46.000Z</time>
      </trkpt>
      <trkpt lat="45.26658" lon="5.79691">
        <ele>1134.1</ele>
        <time>2020-09-06T13:07:48.000Z</time>
      </trkpt>
      <trkpt lat="45.26652" lon="5.7968">
        <ele>1133.2</ele>
        <time>2020-09-06T13:07:50.000Z</time>
      </trkpt>
      <trkpt lat="45.26651" lon="5.79675">
        <ele>1132.3</ele>
        <time>2020-09-06T13:07:51.000Z</time>
      </trkpt>
      <trkpt lat="45.2665" lon="5.79669">
        <ele>1131.2</ele>
        <time>2020-09-06T13:07:52.000Z</time>
      </trkpt>
      <trkpt lat="45.26653" lon="5.79669">
        <ele>1130.7</ele>
        <time>2020-09-06T13:07:53.000Z</time>
      </trkpt>
      <trkpt lat="45.26656" lon="5.79672">
        <ele>1130.7</ele>
        <time>2020-09-06T13:07:54.000Z</time>
      </trkpt>
      <trkpt lat="45.26658" lon="5.79675">
        <ele>1130.6</ele>
        <time>2020-09-06T13:07:55.000Z</time>
      </trkpt>
      <trkpt lat="45.26663" lon="5.79679">
        <ele>1130.5</ele>
        <time>2020-09-06T13:07:57.000Z</time>
      </trkpt>
      <trkpt lat="45.26664" lon="5.79682">
        <ele>1130.8</ele>
        <time>2020-09-06T13:07:58.000Z</time>
      </trkpt>
      <trkpt lat="45.26666" lon="5.79684">
        <ele>1130.8</ele>
        <time>2020-09-06T13:07:59.000Z</time>
      </trkpt>
      <trkpt lat="45.26668" lon="5.79684">
        <ele>1130.5</ele>
        <time>2020-09-06T13:08:00.000Z</time>
      </trkpt>
      <trkpt lat="45.2667" lon="5.79681">
        <ele>1129.5</ele>
        <time>2020-09-06T13:08:02.000Z</time>
      </trkpt>
      <trkpt lat="45.2667" lon="5.79674">
        <ele>1128</ele>
        <time>2020-09-06T13:08:04.000Z</time>
      </trkpt>
      <trkpt lat="45.26667" lon="5.79665">
        <ele>1126.6</ele>
        <time>2020-09-06T13:08:06.000Z</time>
      </trkpt>
      <trkpt lat="45.26664" lon="5.79659">
        <ele>1125.4</ele>
        <time>2020-09-06T13:08:08.000Z</time>
      </trkpt>
      <trkpt lat="45.26665" lon="5.79657">
        <ele>1124.9</ele>
        <time>2020-09-06T13:08:09.000Z</time>
      </trkpt>
      <trkpt lat="45.26666" lon="5.79657">
        <ele>1124.6</ele>
        <time>2020-09-06T13:08:10.000Z</time>
      </trkpt>
      <trkpt lat="45.26671" lon="5.79658">
        <ele>1123.9</ele>
        <time>2020-09-06T13:08:13.000Z</time>
      </trkpt>
      <trkpt lat="45.26673" lon="5.79654">
        <ele>1122.7</ele>
        <time>2020-09-06T13:08:15.000Z</time>
      </trkpt>
      <trkpt lat="45.26673" lon="5.7965">
        <ele>1121.7</ele>
        <time>2020-09-06T13:08:16.000Z</time>
      </trkpt>
      <trkpt lat="45.26673" lon="5.79647">
        <ele>1121</ele>
        <time>2020-09-06T13:08:17.000Z</time>
      </trkpt>
      <trkpt lat="45.26672" lon="5.79644">
        <ele>1120.2</ele>
        <time>2020-09-06T13:08:18.000Z</time>
      </trkpt>
      <trkpt lat="45.26673" lon="5.79638">
        <ele>1118.6</ele>
        <time>2020-09-06T13:08:20.000Z</time>
      </trkpt>
      <trkpt lat="45.2667" lon="5.79628">
        <ele>1116.4</ele>
        <time>2020-09-06T13:08:22.000Z</time>
      </trkpt>
      <trkpt lat="45.2667" lon="5.79625">
        <ele>1115.7</ele>
        <time>2020-09-06T13:08:23.000Z</time>
      </trkpt>
      <trkpt lat="45.2667" lon="5.79622">
        <ele>1115</ele>
        <time>2020-09-06T13:08:24.000Z</time>
      </trkpt>
      <trkpt lat="45.26671" lon="5.7962">
        <ele>1114.2</ele>
        <time>2020-09-06T13:08:25.000Z</time>
      </trkpt>
      <trkpt lat="45.26668" lon="5.79616">
        <ele>1113.5</ele>
        <time>2020-09-06T13:08:27.000Z</time>
      </trkpt>
      <trkpt lat="45.26666" lon="5.79612">
        <ele>1112.7</ele>
        <time>2020-09-06T13:08:28.000Z</time>
      </trkpt>
      <trkpt lat="45.26664" lon="5.79603">
        <ele>1111.2</ele>
        <time>2020-09-06T13:08:30.000Z</time>
      </trkpt>
      <trkpt lat="45.2666" lon="5.79596">
        <ele>1110.2</ele>
        <time>2020-09-06T13:08:32.000Z</time>
      </trkpt>
      <trkpt lat="45.26658" lon="5.79593">
        <ele>1110</ele>
        <time>2020-09-06T13:08:33.000Z</time>
      </trkpt>
      <trkpt lat="45.26656" lon="5.7959">
        <ele>1109.7</ele>
        <time>2020-09-06T13:08:34.000Z</time>
      </trkpt>
      <trkpt lat="45.26653" lon="5.79584">
        <ele>1109.2</ele>
        <time>2020-09-06T13:08:37.000Z</time>
      </trkpt>
      <trkpt lat="45.26646" lon="5.79569">
        <ele>1108.1</ele>
        <time>2020-09-06T13:08:41.000Z</time>
      </trkpt>
      <trkpt lat="45.26641" lon="5.79556">
        <ele>1106.7</ele>
        <time>2020-09-06T13:08:43.000Z</time>
      </trkpt>
      <trkpt lat="45.26636" lon="5.79546">
        <ele>1105.7</ele>
        <time>2020-09-06T13:08:45.000Z</time>
      </trkpt>
      <trkpt lat="45.26633" lon="5.79541">
        <ele>1105.1</ele>
        <time>2020-09-06T13:08:46.000Z</time>
      </trkpt>
      <trkpt lat="45.26631" lon="5.79537">
        <ele>1104.6</ele>
        <time>2020-09-06T13:08:47.000Z</time>
      </trkpt>
      <trkpt lat="45.26629" lon="5.79531">
        <ele>1103.7</ele>
        <time>2020-09-06T13:08:49.000Z</time>
      </trkpt>
      <trkpt lat="45.26628" lon="5.79528">
        <ele>1103.2</ele>
        <time>2020-09-06T13:08:50.000Z</time>
      </trkpt>
      <trkpt lat="45.26626" lon="5.79525">
        <ele>1102.9</ele>
        <time>2020-09-06T13:08:51.000Z</time>
      </trkpt>
      <trkpt lat="45.26624" lon="5.79521">
        <ele>1102.3</ele>
        <time>2020-09-06T13:08:52.000Z</time>
      </trkpt>
      <trkpt lat="45.26624" lon="5.79516">
        <ele>1101.3</ele>
        <time>2020-09-06T13:08:53.000Z</time>
      </trkpt>
      <trkpt lat="45.26623" lon="5.79511">
        <ele>1100</ele>
        <time>2020-09-06T13:08:54.000Z</time>
      </trkpt>
      <trkpt lat="45.26622" lon="5.79506">
        <ele>1099.1</ele>
        <time>2020-09-06T13:08:55.000Z</time>
      </trkpt>
      <trkpt lat="45.26616" lon="5.79492">
        <ele>1097.7</ele>
        <time>2020-09-06T13:08:57.000Z</time>
      </trkpt>
      <trkpt lat="45.26614" lon="5.79487">
        <ele>1097.3</ele>
        <time>2020-09-06T13:08:58.000Z</time>
      </trkpt>
      <trkpt lat="45.26611" lon="5.79478">
        <ele>1096.3</ele>
        <time>2020-09-06T13:09:00.000Z</time>
      </trkpt>
      <trkpt lat="45.26609" lon="5.79474">
        <ele>1095.8</ele>
        <time>2020-09-06T13:09:01.000Z</time>
      </trkpt>
      <trkpt lat="45.26609" lon="5.7947">
        <ele>1095</ele>
        <time>2020-09-06T13:09:03.000Z</time>
      </trkpt>
      <trkpt lat="45.26611" lon="5.79464">
        <ele>1094</ele>
        <time>2020-09-06T13:09:05.000Z</time>
      </trkpt>
      <trkpt lat="45.26611" lon="5.79459">
        <ele>1093.3</ele>
        <time>2020-09-06T13:09:06.000Z</time>
      </trkpt>
      <trkpt lat="45.26613" lon="5.79453">
        <ele>1092.3</ele>
        <time>2020-09-06T13:09:07.000Z</time>
      </trkpt>
      <trkpt lat="45.26618" lon="5.79443">
        <ele>1091.2</ele>
        <time>2020-09-06T13:09:09.000Z</time>
      </trkpt>
      <trkpt lat="45.26618" lon="5.79439">
        <ele>1090.7</ele>
        <time>2020-09-06T13:09:10.000Z</time>
      </trkpt>
      <trkpt lat="45.26618" lon="5.79439">
        <ele>1090.7</ele>
      </trkpt>
      <trkpt lat="45.26586" lon="5.79415">
        <ele>1082.5</ele>
      </trkpt>
      <trkpt lat="45.26529" lon="5.79359">
        <ele>1088.3</ele>
      </trkpt>
      <trkpt lat="45.26447" lon="5.79263">
        <ele>1079.9</ele>
      </trkpt>
      <trkpt lat="45.26408" lon="5.79221">
        <ele>1075</ele>
      </trkpt>
      <trkpt lat="45.26353" lon="5.79148">
        <ele>1071.2</ele>
      </trkpt>
      <trkpt lat="45.26285" lon="5.79058">
        <ele>1060.2</ele>
      </trkpt>
      <trkpt lat="45.2624" lon="5.79043">
        <ele>1056.2</ele>
      </trkpt>
      <trkpt lat="45.26202" lon="5.79045">
        <ele>1055.4</ele>
      </trkpt>
      <trkpt lat="45.26151" lon="5.79005">
        <ele>1050</ele>
      </trkpt>
      <trkpt lat="45.26127" lon="5.78928">
        <ele>1049.2</ele>
      </trkpt>
      <trkpt lat="45.26122" lon="5.78823">
        <ele>1035.7</ele>
      </trkpt>
      <trkpt lat="45.26081" lon="5.7872">
        <ele>1023.2</ele>
      </trkpt>
      <trkpt lat="45.26013" lon="5.78578">
        <ele>1023.4</ele>
      </trkpt>
      <trkpt lat="45.25927" lon="5.78417">
        <ele>1014.5</ele>
      </trkpt>
      <trkpt lat="45.25881" lon="5.78265">
        <ele>1008.7</ele>
      </trkpt>
      <trkpt lat="45.2583" lon="5.78106">
        <ele>1006.1</ele>
      </trkpt>
      <trkpt lat="45.25809" lon="5.77923">
        <ele>1001.7</ele>
      </trkpt>
      <trkpt lat="45.25874" lon="5.77893">
        <ele>1006</ele>
      </trkpt>
      <trkpt lat="45.25928" lon="5.77833">
        <ele>1009</ele>
      </trkpt>
      <trkpt lat="45.2597" lon="5.77808">
        <ele>1008.1</ele>
      </trkpt>
      <trkpt lat="45.25983" lon="5.77782">
        <ele>1007.7</ele>
      </trkpt>
    </trkseg>
  </trk>
</gpx>